GFSFLT2_sfc_wetblb_024.txt.gz
Wetbulb
65.17 65.71 66.56 66.60 66.73 66.75 66.41 66.06 65.99 66.02 66.29 66.23 66.30 66.13 66.26 66.65 66.77 66.65 66.28 65.80 65.22 64.63 64.60 64.64 64.70 64.55 64.69 64.11 62.04 61.39 55.87 57.33
63.24 64.85 65.47 65.71 65.06 65.82 65.83 65.17 65.14 65.57 65.67 65.46 65.14 65.61 66.23 66.02 65.72 65.82 65.55 64.80 64.77 64.20 64.27 63.86 63.74 63.89 63.97 63.53 60.09 59.79 54.28 56.36
64.30 65.00 65.11 64.49 63.88 64.49 65.20 65.18 64.70 64.60 64.70 64.63 63.08 61.69 62.26 63.22 63.56 64.57 64.24 63.74 64.01 63.68 63.79 63.77 63.32 61.65 63.63 62.62 58.23 53.12 53.83 55.33
62.12 64.63 64.63 63.50 63.46 62.80 61.76 62.18 61.32 61.01 60.68 60.94 59.81 59.53 60.15 62.50 63.59 63.89 64.01 63.09 63.48 63.51 63.68 61.30 58.42 54.81 55.07 57.06 52.77 51.88 53.79 55.03
61.39 64.19 64.01 62.43 61.58 61.01 60.82 60.57 60.28 60.28 59.80 59.89 61.06 61.30 61.25 60.91 60.77 59.97 59.78 60.01 57.05 57.24 55.06 53.71 53.15 53.16 52.77 52.67 51.86 50.68 50.42 53.62
62.32 64.42 63.92 61.75 60.85 59.77 59.21 60.41 62.76 62.33 62.41 62.52 61.73 60.41 58.34 57.74 57.58 56.96 55.69 54.20 53.12 53.41 52.32 52.43 51.28 51.41 51.18 50.41 50.00 49.49 49.12 51.25
63.44 64.31 63.97 61.32 61.04 60.57 61.37 62.58 61.42 60.81 60.90 60.94 60.27 58.94 57.35 57.13 55.37 54.29 53.64 52.56 51.85 51.30 51.00 49.93 49.41 49.34 49.15 48.94 48.33 48.07 47.01 49.06
63.77 63.97 60.55 61.20 61.45 59.77 59.08 59.02 59.64 59.86 60.01 60.18 60.01 57.90 56.01 54.48 53.10 52.56 52.02 52.15 50.87 49.66 48.75 48.34 47.82 47.75 47.77 47.16 47.05 46.34 45.92 45.65
62.82 59.70 61.58 61.17 58.90 58.44 58.06 58.44 58.10 57.65 58.41 58.85 58.02 56.56 55.23 52.98 52.46 51.04 50.18 50.27 49.22 48.91 48.26 48.06 47.41 47.50 45.60 45.17 46.40 45.20 45.63 44.61
61.56 62.82 60.56 59.12 58.38 57.61 58.16 57.24 56.11 55.29 55.27 55.78 55.73 55.64 53.85 52.45 50.29 49.39 49.34 49.62 48.63 47.74 47.40 46.70 45.93 44.29 42.64 42.12 42.55 44.09 43.38 43.54
59.38 61.34 59.41 58.47 58.35 58.28 57.95 56.76 55.15 54.78 54.59 53.36 53.18 53.04 53.60 51.15 49.30 48.67 48.75 48.17 47.29 47.08 45.75 44.81 43.79 42.61 43.43 41.64 41.02 41.66 41.45 43.49
59.94 60.93 59.09 58.68 58.56 58.33 57.58 56.20 54.88 54.90 53.24 52.05 51.32 50.67 51.86 50.05 48.72 47.91 47.96 46.74 45.49 44.83 42.87 42.87 42.69 41.47 44.54 41.88 39.72 39.95 39.64 38.99
60.72 59.48 59.27 58.60 58.04 57.65 55.81 54.35 54.06 52.62 50.34 50.68 50.23 50.05 49.64 48.54 48.02 47.44 46.65 45.60 44.35 44.02 42.09 41.05 40.59 40.43 38.47 38.45 38.45 38.45 38.17 37.97
60.32 59.97 59.39 58.71 58.14 58.03 56.76 54.23 51.47 49.90 49.39 49.13 49.34 49.28 49.09 48.97 47.23 46.14 45.40 44.39 43.26 42.71 41.46 40.27 40.42 39.28 37.04 35.59 33.09 35.44 36.57 37.31
60.05 59.65 59.65 58.84 58.25 57.18 52.89 50.99 49.28 47.94 47.05 47.37 48.24 49.04 46.84 45.04 43.47 42.16 41.76 41.77 40.90 40.53 40.63 40.03 38.22 38.45 37.64 36.11 31.72 29.89 31.28 34.46
60.05 60.26 59.77 59.32 57.83 55.14 53.81 51.91 49.15 47.38 47.11 47.07 45.12 43.83 43.31 43.24 42.35 41.32 40.70 40.40 39.60 39.73 42.81 39.84 38.65 36.85 37.40 38.98 35.30 34.29 28.98 27.35
59.96 59.44 59.25 59.48 55.04 53.95 51.94 48.27 47.27 47.20 45.21 41.49 41.15 41.34 42.12 41.98 41.21 40.23 40.11 40.40 39.98 40.86 39.88 39.53 39.05 37.83 36.96 35.78 33.76 32.16 30.67 28.39
57.76 57.40 54.21 54.22 53.45 50.82 49.13 45.85 43.62 42.45 39.82 39.15 39.68 40.59 40.40 40.01 40.53 39.15 39.56 40.11 41.01 39.94 39.34 39.27 38.35 37.89 37.39 35.84 33.53 31.75 30.52 28.79
56.04 52.42 48.08 47.45 46.63 45.83 45.07 43.25 42.92 41.03 39.50 39.43 39.42 40.15 39.84 38.28 38.53 38.21 38.15 40.26 41.29 40.27 39.35 38.96 38.15 36.83 36.13 35.22 34.69 33.92 33.00 31.26
51.56 50.59 46.51 44.23 43.83 42.90 42.93 41.87 40.97 40.60 41.26 41.12 40.23 39.77 39.34 40.10 39.72 39.26 38.68 38.64 40.13 40.04 39.19 38.75 38.00 37.04 36.27 35.63 34.73 34.25 33.86 32.99

GFSFLT2_sfc_wetblb_030.txt.gz
Wetbulb
64.72 66.54 66.78 66.77 66.62 66.57 66.34 66.79 67.30 67.45 67.30 67.38 67.24 66.89 66.82 66.94 66.93 66.45 66.13 65.79 65.76 65.66 65.80 65.82 64.52 64.24 63.97 62.73 61.83 60.98 57.26 59.22
61.47 61.87 63.08 63.33 63.88 65.35 65.64 66.23 66.42 66.76 66.64 66.11 65.60 65.96 66.38 65.93 65.78 65.70 65.43 65.45 65.42 65.14 64.97 65.25 64.08 62.94 62.82 61.86 60.00 58.37 55.73 57.90
60.39 60.46 62.30 63.08 63.23 64.35 64.96 66.20 65.94 65.50 65.33 65.01 62.71 61.87 61.64 60.43 63.61 64.09 64.03 63.79 64.58 63.68 62.59 61.68 61.26 61.22 60.12 58.38 56.64 53.02 54.07 55.99
60.12 60.22 60.37 61.97 63.63 60.95 60.41 62.42 61.60 61.12 60.92 60.19 60.21 59.67 59.06 61.03 62.61 63.45 63.65 62.58 61.86 60.96 59.73 58.17 54.78 51.48 51.09 53.13 49.95 50.85 52.65 53.95
59.59 60.11 59.86 61.84 60.94 59.76 59.15 58.90 58.87 59.30 59.23 58.63 58.46 59.29 59.05 58.85 58.49 56.37 54.74 56.34 52.54 52.23 50.96 50.16 49.42 48.70 48.16 47.70 47.02 46.83 47.76 51.55
59.34 60.66 61.73 61.50 60.52 58.97 58.17 57.77 58.02 58.04 57.92 58.86 58.84 58.43 57.29 56.26 55.28 52.65 51.93 51.48 50.41 49.68 49.03 48.62 47.71 47.49 47.31 46.81 45.95 45.06 45.04 46.83
59.89 60.73 61.75 60.89 58.70 57.91 57.78 59.37 59.41 59.12 58.96 59.53 57.42 56.47 55.42 53.36 52.07 51.24 50.13 49.94 48.86 48.06 47.49 47.16 46.26 45.74 45.86 45.27 44.88 44.24 44.05 44.37
58.41 60.37 62.07 60.32 57.64 57.77 59.60 59.56 59.40 58.96 58.88 58.03 56.96 55.70 53.05 51.44 50.54 50.24 48.93 48.35 47.77 47.27 46.63 45.78 44.48 44.30 44.11 44.14 43.80 42.58 42.44 43.56
59.01 61.06 62.06 59.39 58.17 58.78 59.04 58.18 58.30 58.24 58.26 57.71 56.02 53.94 52.03 50.16 49.09 48.51 47.82 47.56 47.15 46.59 45.96 45.11 43.71 43.94 42.21 42.70 42.56 41.80 41.47 42.10
61.04 62.60 60.41 58.35 57.85 57.92 57.78 57.28 56.90 56.88 56.68 55.80 55.03 53.08 51.34 48.95 48.54 47.89 47.47 47.03 46.07 45.26 44.33 43.38 42.37 41.92 40.35 40.04 40.26 40.70 40.63 40.99
60.91 60.83 58.74 57.56 57.02 56.96 56.36 55.54 55.24 55.36 54.50 53.92 52.69 51.67 50.16 48.82 47.81 46.84 46.00 45.37 44.75 44.28 42.47 42.03 40.51 40.89 40.87 39.22 38.77 38.27 38.36 40.03
60.02 59.12 57.70 56.98 56.44 55.72 54.28 53.19 53.83 52.94 51.60 51.55 52.15 50.13 49.30 48.01 46.68 45.81 45.18 43.94 42.53 41.74 40.85 40.63 40.79 40.05 41.78 39.33 37.43 37.36 37.26 36.40
59.07 57.38 56.60 56.73 55.70 54.12 52.49 52.30 52.50 50.64 49.87 49.83 50.54 48.86 47.84 46.50 45.64 44.86 44.18 42.74 41.96 41.94 40.50 39.77 38.70 38.26 38.08 37.59 36.94 36.75 35.96 35.46
58.81 58.11 57.00 57.29 57.10 54.71 53.90 52.89 51.41 49.41 48.56 48.30 48.30 47.51 46.67 46.37 44.45 43.23 42.56 41.55 40.64 40.65 40.28 39.08 38.67 37.63 36.30 34.45 32.64 35.06 35.79 35.33
58.96 58.09 57.33 57.46 57.10 54.93 50.62 50.95 47.99 46.67 45.71 45.77 46.35 46.70 45.48 43.43 41.80 40.32 39.70 39.47 39.07 39.38 39.59 39.14 37.21 36.87 36.45 35.81 32.29 30.40 31.62 34.20
59.30 58.45 57.44 57.37 57.42 55.45 52.76 51.89 49.12 47.47 45.38 44.89 42.12 42.27 41.24 40.75 40.74 40.37 40.11 40.24 39.48 40.65 40.87 39.68 37.84 36.27 37.01 37.44 34.96 34.23 31.45 30.19
58.53 58.19 57.93 57.35 57.46 56.43 53.60 51.61 50.61 47.94 44.55 40.01 40.16 39.80 40.38 40.83 40.73 40.61 39.77 40.63 41.98 41.77 39.61 38.14 38.07 37.01 36.58 35.96 33.97 32.23 30.69 29.33
57.80 58.82 58.07 57.55 56.77 54.66 52.95 49.72 48.99 46.33 42.58 39.26 40.47 38.25 39.27 39.56 39.63 39.21 40.97 42.84 41.04 40.26 38.90 38.25 37.60 36.96 37.15 35.66 34.33 32.24 30.80 28.92
57.96 59.14 57.64 57.62 56.30 54.70 52.28 51.50 49.30 46.64 41.87 39.74 37.88 38.01 38.86 38.33 39.23 39.63 40.83 42.53 42.03 39.73 38.51 38.06 37.10 36.45 35.77 35.52 34.74 33.93 33.38 31.45
58.13 58.17 57.63 55.88 55.80 53.87 52.45 50.43 48.91 47.38 41.50 40.46 40.16 39.92 39.88 40.33 40.81 39.50 40.49 41.36 39.92 40.30 39.25 37.50 37.37 36.50 35.39 34.92 34.86 34.52 33.50 32.09

GFSFLT2_sfc_wetblb_033.txt.gz
Wetbulb
66.43 66.12 66.13 66.29 66.50 66.67 66.98 67.44 67.62 67.51 67.50 67.68 67.69 67.25 66.99 66.97 66.84 66.72 66.38 66.18 66.49 66.54 65.41 65.25 65.45 64.73 63.40 62.59 62.18 62.15 62.78 62.54
62.28 62.17 63.02 62.96 64.09 65.90 66.57 66.75 66.90 67.03 67.13 66.59 65.99 66.15 66.48 66.29 65.94 65.88 66.08 66.13 66.06 66.35 65.05 64.35 63.82 63.06 60.66 59.60 59.20 60.39 62.55 62.72
59.84 59.15 60.80 62.96 64.17 65.41 66.41 66.87 66.38 65.87 65.76 65.23 64.06 64.12 64.35 63.85 64.06 64.46 65.17 64.51 64.13 63.71 62.04 61.36 60.93 60.11 59.05 58.34 59.34 59.80 60.96 61.94
58.71 59.87 60.00 63.12 62.28 62.51 64.16 64.23 63.73 63.79 63.74 63.88 63.67 64.23 63.59 63.35 63.84 63.93 63.11 61.78 60.99 60.25 58.80 57.68 57.87 56.68 56.05 56.27 55.85 57.36 58.41 59.81
58.94 58.12 58.82 61.32 62.36 60.91 61.65 61.51 62.14 62.59 62.63 62.79 62.91 63.37 63.88 63.59 62.21 60.14 59.55 58.38 56.73 56.58 55.83 55.34 55.37 55.50 54.90 54.60 54.36 54.49 55.90 58.58
58.91 59.18 58.41 60.81 62.55 60.80 60.61 61.22 60.95 61.87 61.36 62.89 63.76 62.96 62.44 61.81 58.82 58.29 57.74 56.54 56.03 55.84 55.14 54.90 54.58 54.07 53.92 53.67 53.40 53.14 53.72 54.03
58.85 59.90 59.88 62.09 61.59 60.44 60.22 60.96 61.28 62.13 62.20 63.67 63.69 62.47 61.42 58.99 57.74 57.22 56.63 56.39 55.97 55.39 55.01 54.26 53.45 52.59 52.52 52.22 51.47 51.91 52.74 53.60
59.34 59.96 62.60 62.64 60.88 60.94 61.29 62.12 62.42 62.07 62.98 63.15 62.25 61.45 58.94 57.56 57.01 56.31 55.88 56.32 55.99 55.46 54.39 53.27 52.17 51.98 51.23 50.87 50.22 50.77 52.18 53.24
60.11 61.70 64.15 63.24 60.77 60.86 61.89 62.92 63.01 62.44 62.74 61.94 61.22 59.84 58.81 57.71 56.35 55.39 55.11 55.32 54.91 54.29 53.08 52.55 51.59 50.52 49.84 49.95 49.68 49.61 50.70 52.51
60.58 62.05 63.68 63.47 61.85 61.96 62.59 62.86 63.01 62.78 62.46 61.68 60.02 58.36 57.62 57.16 55.78 55.06 54.76 54.66 53.93 52.95 52.20 51.00 50.74 50.58 49.79 48.80 48.95 48.50 48.93 50.52
60.77 62.41 63.46 63.25 62.29 62.26 62.88 62.46 62.00 62.28 61.83 61.09 59.44 57.37 56.24 56.28 55.39 54.15 54.27 52.99 52.30 51.66 50.84 50.97 49.93 49.96 48.39 48.43 47.84 47.16 46.91 47.30
61.87 62.86 63.61 63.21 61.85 61.72 61.19 60.36 59.85 60.51 60.70 59.86 58.30 56.14 55.62 54.82 53.66 53.31 52.78 51.50 50.78 50.99 50.37 49.88 50.18 50.28 47.35 46.85 46.64 46.59 46.79 46.49
62.35 62.66 62.92 61.70 60.21 59.84 59.65 58.18 58.35 57.80 58.09 57.55 56.34 55.38 54.62 54.00 52.78 52.23 52.19 51.61 50.73 50.66 49.32 48.48 48.24 48.81 47.86 47.14 45.51 45.68 45.60 45.46
62.38 62.75 62.29 61.85 61.53 60.93 60.21 58.35 58.09 56.97 55.73 56.37 55.23 54.56 53.71 52.97 52.50 51.77 51.32 50.11 49.88 49.63 48.96 47.73 48.24 47.96 46.51 45.24 42.87 43.09 44.47 43.90
62.55 62.82 62.05 61.98 61.65 60.13 57.33 56.01 55.08 53.91 53.28 53.94 53.53 53.35 53.09 52.38 51.89 50.69 49.22 48.76 47.72 48.45 48.61 47.39 45.31 45.54 45.70 45.44 41.38 40.54 42.53 44.14
63.01 62.63 61.86 61.75 61.03 59.79 57.48 57.37 55.44 55.00 53.37 53.27 52.58 52.21 51.01 50.18 48.92 48.65 48.27 48.14 47.71 47.76 47.09 45.98 46.80 44.72 45.57 45.23 45.63 44.42 40.37 38.75
62.78 62.54 61.61 61.31 59.81 60.03 58.82 58.01 56.91 53.86 51.91 50.54 49.16 48.94 48.75 47.67 48.18 48.12 47.88 47.69 47.91 48.03 46.82 46.05 46.78 45.95 45.68 45.03 44.72 43.94 42.60 39.45
62.36 61.03 60.86 60.22 59.68 59.84 58.42 57.31 53.71 51.57 48.14 46.88 46.84 47.09 46.39 47.28 47.22 47.55 47.96 47.86 47.36 46.81 44.45 44.81 45.87 45.77 45.46 44.75 43.46 41.73 40.42 39.24
61.31 60.23 59.60 58.65 58.80 58.90 58.05 55.46 53.51 51.91 47.07 45.85 45.33 45.40 45.36 45.77 46.52 46.55 46.87 46.45 45.32 43.59 44.36 46.27 45.79 45.23 44.51 44.03 44.18 42.97 42.65 41.15
60.88 60.68 59.70 58.58 58.78 58.69 57.63 55.74 55.17 51.95 48.31 47.50 46.67 46.63 45.79 46.16 46.07 46.70 46.93 45.75 45.02 46.39 46.24 46.06 45.94 45.47 44.51 43.96 43.85 43.47 43.06 41.74

GFSFLT2_sfc_wetblb_036.txt.gz
Wetbulb
66.59 66.35 66.50 66.72 66.53 66.99 67.03 67.46 67.82 67.93 67.90 68.14 68.04 67.26 66.97 66.92 66.95 67.15 67.28 66.99 66.30 66.19 66.18 65.90 64.59 63.38 62.72 62.61 62.55 63.03 62.96 63.04
63.72 62.73 62.71 63.29 64.98 66.42 66.93 67.12 67.25 67.49 67.56 66.99 66.23 66.33 66.44 66.43 66.20 66.60 66.88 67.16 66.13 65.36 65.54 64.65 62.58 61.49 60.68 60.32 61.19 61.99 62.37 62.36
61.67 60.62 60.69 61.33 63.16 65.81 66.84 67.17 66.70 66.32 66.13 65.29 64.31 63.83 64.03 64.79 64.86 65.88 65.41 65.38 64.75 63.37 62.41 61.95 61.35 60.14 59.33 60.08 60.49 61.10 61.08 61.56
60.05 59.09 59.08 60.10 60.69 63.75 66.03 65.72 64.82 64.81 63.92 63.82 63.70 65.12 65.05 64.46 64.74 63.44 63.09 62.59 62.24 60.66 59.89 59.89 61.58 61.22 59.29 59.57 59.43 59.70 59.77 59.96
58.45 59.55 60.37 60.25 59.97 63.09 64.37 64.33 64.19 64.14 64.19 64.04 64.25 64.07 64.42 64.58 64.11 62.87 62.18 61.69 60.33 60.34 60.33 60.85 60.51 60.06 59.28 59.01 58.61 58.35 57.99 58.20
56.83 58.20 58.19 59.83 61.06 62.06 62.49 61.87 62.33 62.55 62.80 63.56 64.18 63.63 64.79 64.64 63.60 63.14 62.22 62.13 61.30 60.99 60.04 59.71 58.92 58.57 58.28 57.71 57.31 57.01 56.59 56.21
56.28 57.99 58.55 59.76 61.18 60.11 61.15 61.58 61.62 62.03 62.90 63.52 63.90 63.84 64.97 64.37 63.05 62.69 62.14 61.50 61.33 60.26 59.41 58.86 58.15 57.45 57.27 55.97 55.07 54.74 54.55 54.58
57.23 57.91 59.08 59.40 60.05 61.60 61.59 62.35 62.79 62.80 63.93 64.90 65.55 65.18 64.39 63.11 62.27 61.48 61.27 61.52 61.01 60.43 59.34 58.35 57.64 57.35 55.63 54.24 53.32 53.23 54.12 54.83
58.44 59.41 61.51 61.43 62.19 63.16 62.27 62.29 62.54 63.55 65.51 66.18 66.04 65.15 64.00 63.34 62.31 61.42 60.86 60.51 59.94 58.78 58.24 58.05 57.19 55.44 53.32 53.59 53.67 53.17 53.53 53.52
60.48 61.39 62.51 63.63 63.51 63.10 62.27 63.91 64.04 64.70 65.21 65.93 65.34 64.57 63.89 62.84 61.45 60.78 60.24 59.77 59.10 58.34 57.59 56.52 55.98 54.93 54.22 53.62 53.78 53.66 52.99 53.58
60.54 62.66 63.93 65.03 65.22 63.84 62.82 64.71 64.58 65.88 65.61 65.36 63.93 63.04 62.50 62.60 61.24 60.17 59.99 58.61 58.08 57.06 56.14 56.31 54.02 53.83 52.72 53.85 53.60 53.16 52.05 52.08
61.88 63.20 64.23 65.20 65.23 63.83 63.24 64.82 65.96 66.18 65.81 65.32 64.26 63.03 61.91 61.95 60.68 59.29 58.74 57.25 56.58 55.89 54.56 53.96 53.42 53.43 49.86 50.61 51.54 51.48 51.43 51.66
62.56 62.96 64.39 65.01 64.23 62.02 62.03 62.76 64.39 64.80 65.48 65.14 64.07 62.73 61.27 60.65 59.24 58.16 57.78 56.87 56.16 55.49 53.83 51.34 51.99 53.24 51.01 51.02 50.61 50.20 49.73 49.88
63.00 63.58 64.50 65.14 64.88 63.10 63.90 64.21 64.33 64.39 63.77 63.07 62.63 61.33 60.62 59.44 58.49 57.50 57.53 56.05 55.19 54.07 52.35 51.56 52.88 52.16 49.80 49.11 47.21 47.89 48.72 48.73
62.90 64.30 65.40 66.01 65.72 64.16 63.60 64.26 62.89 60.90 60.51 60.57 60.34 60.06 59.37 58.31 58.27 57.58 56.87 55.83 53.69 52.80 51.93 51.55 50.84 50.74 50.62 47.58 45.15 45.17 47.33 48.54
64.15 64.46 65.48 66.10 66.01 63.84 61.98 60.90 60.71 60.98 60.28 60.16 58.16 57.23 58.11 57.69 57.31 55.94 55.48 54.10 52.70 51.81 52.43 52.49 51.07 49.68 49.84 48.72 48.79 47.06 43.01 42.96
64.92 65.09 65.55 66.17 65.77 64.76 62.76 61.83 63.08 62.24 60.25 58.52 57.60 57.18 57.15 56.67 55.03 53.39 52.91 52.83 52.05 52.46 51.79 50.87 51.56 46.94 48.22 48.92 47.68 47.20 46.48 43.32
64.74 64.79 64.97 65.56 64.27 62.40 61.86 61.83 61.91 59.88 58.43 57.14 55.67 55.80 54.74 53.04 51.20 51.88 53.27 52.09 51.98 52.33 50.53 51.09 48.48 49.28 49.06 47.88 46.18 45.22 44.46 43.30
64.69 64.74 62.11 63.74 62.89 61.09 61.59 61.71 61.85 58.43 58.07 56.67 53.28 49.60 49.64 49.66 51.08 51.85 51.90 52.01 51.89 51.14 50.67 48.34 49.25 48.39 47.88 47.19 47.41 46.12 45.58 44.07
64.79 64.43 61.51 60.76 60.03 61.14 62.18 61.82 61.70 59.66 59.89 53.38 49.08 48.27 48.82 51.26 51.37 52.17 51.44 48.67 49.97 49.44 48.21 47.29 48.04 48.60 47.91 47.49 46.66 46.31 46.02 44.81

GFSFLT2_sfc_wetblb_039.txt.gz
Wetbulb
67.19 66.97 67.67 67.32 66.83 66.82 67.17 67.75 68.11 68.20 68.32 68.39 68.10 67.49 67.39 67.69 67.49 67.19 66.94 66.93 66.91 66.68 66.18 65.41 63.85 63.32 62.95 62.84 62.51 63.87 63.35 63.00
66.05 66.19 67.66 67.26 66.99 66.70 66.92 67.27 67.54 67.71 67.49 66.76 66.28 66.43 66.48 66.87 66.75 67.29 66.63 66.48 66.47 65.96 65.09 63.69 62.47 61.66 61.46 61.68 61.55 63.22 62.08 62.31
62.80 62.20 63.14 64.79 64.87 66.35 66.75 67.49 67.16 66.22 66.12 65.19 63.98 63.57 64.31 65.13 65.74 66.61 66.16 65.15 65.32 64.83 63.77 62.91 61.96 61.18 60.57 59.99 60.92 60.44 60.54 60.67
60.27 59.83 60.32 60.23 63.61 65.59 65.39 66.14 65.48 64.74 63.99 63.26 63.08 65.28 65.60 64.20 64.23 64.35 64.10 63.42 62.91 62.83 62.31 62.15 61.92 61.04 59.92 60.63 59.40 59.40 59.09 59.26
58.85 59.32 58.88 59.27 59.62 62.53 63.00 64.12 64.87 64.91 64.42 65.58 65.66 64.95 64.62 64.08 62.47 62.58 62.83 62.59 60.79 59.88 59.72 62.20 61.97 61.12 60.12 59.69 58.93 58.64 57.40 57.11
57.50 58.69 58.20 59.11 58.64 59.92 62.07 61.91 63.63 63.75 63.93 64.86 65.45 64.26 65.35 64.01 63.60 63.84 63.52 62.91 62.10 62.59 61.94 61.29 60.60 59.69 59.22 58.51 57.80 56.68 55.57 55.68
56.16 57.10 56.25 57.47 58.19 59.72 61.37 61.86 62.08 62.81 63.37 63.76 63.94 64.24 65.33 64.63 64.30 63.71 63.54 63.38 62.74 61.86 60.67 60.14 59.22 58.64 58.27 56.57 55.04 54.91 54.95 54.66
56.28 57.31 58.58 58.80 57.44 58.32 59.42 60.88 61.94 62.75 62.96 63.47 64.11 64.10 66.46 64.18 63.99 63.37 63.06 63.11 62.95 62.01 60.71 59.39 58.50 58.33 56.36 54.60 53.95 53.85 54.82 55.26
55.88 56.71 57.84 57.92 57.85 59.02 59.90 61.21 61.37 61.61 62.36 66.12 65.05 65.03 66.10 65.18 64.15 63.34 63.11 63.14 62.40 61.09 59.89 58.73 57.52 56.08 54.10 54.17 54.07 53.99 54.09 53.90
55.81 56.94 57.26 59.62 60.17 62.38 61.53 62.65 62.70 62.36 64.02 65.88 65.87 65.62 65.73 65.03 63.36 63.10 63.00 62.39 61.59 60.29 58.73 57.34 56.44 55.53 54.50 54.48 54.25 53.90 53.24 53.33
57.11 59.97 59.67 62.31 62.43 63.10 62.21 62.83 62.78 62.17 64.53 66.44 66.33 65.69 65.26 65.03 63.79 63.03 62.50 61.53 60.56 59.40 57.83 56.96 54.78 54.30 53.81 54.09 54.43 53.21 52.73 51.98
59.57 61.50 62.11 63.34 62.85 63.06 62.15 61.97 63.09 64.49 65.97 65.70 65.62 64.88 64.54 64.39 63.76 62.56 62.01 60.67 59.59 58.16 56.86 56.03 54.86 54.94 52.87 52.37 53.87 53.13 52.51 52.17
60.61 61.25 62.84 63.44 62.45 61.50 60.85 59.87 62.23 64.34 66.10 65.53 65.88 65.32 64.12 64.20 63.21 61.85 61.07 59.49 58.76 57.76 56.36 54.43 53.51 55.21 53.31 54.16 53.43 52.48 51.53 51.30
60.81 61.28 62.30 63.66 64.09 62.58 61.67 62.22 62.92 64.12 65.47 65.67 65.74 65.35 63.90 63.48 62.87 61.06 60.29 58.92 57.93 56.87 55.60 53.57 54.95 55.05 52.37 52.29 49.80 50.39 50.67 50.74
62.35 63.16 63.08 64.52 64.87 63.79 62.54 63.48 64.08 63.56 63.71 63.79 64.63 64.57 63.26 62.55 61.72 60.56 59.72 58.81 56.64 56.49 54.98 54.68 53.67 54.35 53.59 50.68 47.72 46.46 48.93 51.01
63.64 64.18 64.27 64.74 65.53 63.65 62.24 61.38 61.15 62.81 63.37 63.40 63.29 62.71 61.82 60.54 59.73 60.06 59.36 58.19 57.06 55.89 54.66 55.26 53.84 51.80 53.25 52.32 51.35 49.32 45.08 44.19
64.75 64.23 64.40 65.62 65.58 65.93 64.02 62.43 63.11 64.13 63.17 62.60 62.37 60.24 59.99 59.08 59.50 59.29 58.40 56.69 56.88 55.97 54.54 54.15 52.72 51.45 51.39 51.01 50.36 49.63 48.88 44.98
65.62 64.18 63.88 64.97 66.33 65.51 64.70 63.39 62.88 62.99 62.37 60.97 60.13 59.73 59.10 59.19 58.32 57.93 56.59 54.54 54.74 54.16 54.35 53.07 53.27 51.85 50.20 50.51 48.37 46.87 46.52 46.11
65.16 64.19 63.94 64.98 65.42 65.42 63.37 62.04 62.78 62.52 61.99 60.26 59.27 59.42 58.64 58.11 54.43 52.30 52.51 52.60 54.36 54.66 53.52 49.92 50.80 49.75 50.68 48.48 49.22 48.42 48.07 46.00
64.81 64.39 64.15 64.89 64.56 63.95 62.42 61.24 60.78 61.91 63.13 61.16 60.15 59.76 57.45 52.70 50.57 50.94 51.62 54.03 54.22 52.53 49.64 51.39 50.71 50.42 49.27 48.70 48.77 48.49 47.60 46.23

GFSFLT2_sfc_wetblb_042.txt.gz
Wetbulb
66.78 67.27 68.04 67.33 67.20 67.17 67.34 68.06 68.31 68.48 68.71 68.66 68.19 67.70 67.57 67.39 67.70 68.13 67.88 67.15 66.80 66.22 65.70 64.95 64.12 63.35 62.28 62.04 62.71 63.51 60.22 59.96
64.68 65.02 65.35 65.91 66.34 66.62 67.19 67.27 67.47 67.30 67.16 66.65 66.37 66.62 67.03 66.68 66.54 66.90 66.89 66.68 66.29 65.77 64.81 64.00 62.84 61.65 61.02 60.41 61.46 61.77 57.77 59.22
64.53 64.55 63.52 64.96 65.86 66.77 67.25 67.68 66.84 66.34 65.98 65.19 63.79 62.82 62.14 64.74 65.70 65.97 66.17 65.58 65.33 64.85 64.00 62.67 61.49 60.79 60.48 61.13 61.11 56.47 56.19 59.49
61.60 63.16 63.73 64.34 65.36 65.71 65.83 66.10 64.95 64.41 63.42 62.82 62.75 63.22 63.51 64.17 64.58 64.42 64.36 64.42 64.51 63.72 62.81 62.17 61.05 56.20 56.03 59.89 55.37 55.73 56.60 58.94
59.81 60.06 60.78 60.87 61.73 63.25 63.13 63.04 63.18 63.26 62.78 63.76 62.86 62.66 62.43 61.82 61.69 61.12 60.20 61.11 58.41 59.20 59.11 58.09 59.06 57.38 56.72 55.78 54.93 53.88 52.76 55.59
57.87 58.74 58.88 59.48 60.32 60.90 61.87 61.93 61.97 61.87 63.36 63.66 62.72 62.64 61.48 60.54 60.58 60.87 60.31 59.85 57.50 58.23 58.94 58.46 56.92 56.68 56.14 54.85 53.25 51.66 50.84 53.85
55.55 56.56 56.44 56.73 57.46 58.10 59.58 60.65 60.93 62.04 62.57 63.22 63.16 62.46 63.18 61.76 60.95 60.84 60.13 61.04 60.38 59.02 57.88 57.20 55.99 55.60 54.34 52.45 51.68 51.45 51.16 51.83
55.55 55.88 56.21 56.37 55.69 55.87 56.85 58.81 59.68 60.82 61.62 62.12 62.93 62.97 62.90 62.43 62.57 62.21 61.32 60.74 60.39 59.02 57.75 56.20 55.02 54.55 52.49 50.98 50.64 50.65 51.14 51.08
55.29 56.18 56.06 55.18 55.92 57.34 58.22 57.93 58.62 57.78 59.68 62.48 62.86 62.26 63.84 63.23 61.53 60.96 60.91 60.76 60.17 58.43 56.72 55.27 53.70 52.81 50.92 50.34 50.89 50.41 50.55 50.05
56.06 57.72 56.27 56.13 56.47 55.56 56.08 57.44 57.51 58.09 59.50 62.67 63.26 63.34 63.93 62.90 62.19 60.92 60.95 59.74 58.71 57.41 55.90 54.26 52.83 51.26 49.75 49.45 49.30 49.60 49.10 49.36
55.73 55.48 54.80 54.52 54.98 55.40 55.88 58.02 61.11 60.18 60.41 62.38 64.19 63.89 63.63 62.92 62.15 61.63 60.70 59.46 58.49 57.18 54.90 53.70 51.02 50.16 50.63 49.45 49.22 48.66 48.63 49.77
55.63 55.11 54.40 54.80 54.61 56.48 58.76 60.55 60.32 60.38 60.15 62.89 63.26 63.51 64.18 63.13 62.42 60.91 59.53 58.53 57.12 55.73 53.19 51.83 50.91 50.25 51.99 49.98 49.60 49.00 48.03 47.21
55.86 54.74 55.69 57.40 58.16 58.72 59.25 57.66 59.20 60.30 62.55 63.14 64.07 63.58 63.09 62.19 61.57 60.27 59.39 57.95 56.30 55.71 53.21 50.40 48.58 50.14 48.42 49.81 48.94 48.98 47.64 46.98
58.04 57.50 59.02 60.35 60.63 59.39 59.69 59.09 59.29 60.93 63.06 63.92 63.89 63.41 62.71 62.05 61.36 59.36 58.78 57.05 56.39 54.08 52.78 50.28 50.61 50.80 47.79 47.44 45.09 44.76 46.26 47.54
58.09 59.45 60.29 61.27 61.81 61.49 60.51 60.39 59.48 60.03 61.27 62.75 63.25 63.35 62.66 61.40 61.38 59.41 58.29 57.46 54.93 54.29 52.92 50.94 48.73 49.53 49.49 46.44 42.74 40.71 42.59 45.44
59.40 59.88 60.28 61.54 62.63 62.33 59.44 58.19 57.61 60.17 61.34 61.74 62.33 63.06 62.44 60.76 60.30 59.06 58.42 57.04 54.72 54.00 54.17 52.29 50.75 48.40 49.55 51.27 48.47 44.69 39.81 38.41
60.69 60.77 61.44 62.07 62.49 62.95 61.42 59.24 60.64 62.37 61.47 61.55 61.23 61.22 60.47 60.41 58.31 57.21 57.29 56.71 56.26 53.50 52.32 52.27 51.84 47.56 49.46 48.92 47.49 45.19 44.51 40.58
61.70 61.59 62.07 62.75 63.08 62.99 62.11 59.67 60.75 60.86 60.34 59.39 59.61 58.42 57.88 57.97 57.61 57.22 57.07 56.43 54.24 52.64 51.90 52.04 49.23 47.90 47.29 46.68 46.69 44.19 41.72 41.18
61.60 62.01 61.65 62.75 63.06 63.15 62.87 62.22 61.57 60.39 59.69 59.81 58.80 57.00 56.90 57.03 57.26 56.28 54.85 53.62 52.75 51.32 51.92 51.04 49.38 46.46 46.77 47.31 45.97 46.11 45.96 43.98
61.65 61.52 61.26 62.12 63.00 63.11 63.13 63.01 61.65 61.45 61.01 60.21 58.68 57.85 57.81 57.91 57.08 53.19 51.78 51.65 51.21 51.25 51.63 49.73 48.52 47.40 47.49 45.89 45.31 46.01 46.05 43.22

GFSFLT2_sfc_wetblb_045.txt.gz
Wetbulb
66.58 67.62 68.40 67.90 67.37 67.61 67.73 68.32 68.51 68.62 68.63 68.37 68.20 68.14 68.30 68.91 68.82 68.25 67.69 67.19 66.43 65.82 65.12 64.11 63.22 62.77 62.34 62.10 62.32 62.60 57.67 58.13
63.88 65.17 65.96 66.54 66.54 66.32 67.32 67.63 67.65 67.51 67.35 66.88 66.48 66.75 67.45 67.69 67.57 67.19 66.96 66.43 65.85 65.17 64.32 63.18 62.07 61.10 60.73 60.97 61.43 61.39 57.06 57.46
63.20 62.62 63.83 64.47 64.23 66.63 67.51 67.71 66.88 66.36 66.06 65.56 63.16 62.20 62.76 64.49 65.88 66.33 66.22 65.37 65.17 64.34 63.39 62.33 61.14 60.42 60.24 60.75 58.55 56.52 57.80 58.20
62.44 61.42 61.64 62.68 64.37 65.11 65.74 65.66 64.35 63.59 62.63 60.49 60.53 61.64 62.49 63.47 64.63 65.07 65.00 64.36 64.19 63.72 62.58 61.65 58.99 54.09 54.03 56.98 52.58 56.35 57.88 58.23
62.08 61.72 62.05 62.57 63.16 62.26 63.86 63.62 63.28 61.60 61.20 61.22 61.82 62.08 61.67 61.09 60.94 61.04 61.27 62.10 60.03 60.38 59.18 56.60 56.20 54.54 53.06 51.70 50.32 51.26 53.61 56.49
59.92 60.14 61.08 61.42 62.02 61.96 62.00 61.47 60.89 60.83 61.74 61.54 61.07 59.58 59.41 59.62 59.09 57.96 57.04 57.37 55.39 55.52 55.89 55.71 53.55 53.96 53.18 50.98 49.51 48.46 51.49 53.81
56.74 58.03 58.41 59.10 59.32 60.46 60.82 60.87 60.96 61.73 61.43 61.39 61.10 59.54 58.49 58.91 59.13 58.30 58.09 57.56 55.00 56.21 55.24 54.76 53.34 52.45 50.73 49.18 48.89 48.41 50.23 50.29
55.45 55.94 56.61 57.32 57.37 57.93 57.76 58.20 58.54 60.51 60.51 60.67 61.47 61.43 59.75 59.43 59.60 58.59 57.68 58.19 57.72 55.96 55.47 54.24 53.12 51.29 48.87 48.66 48.33 48.73 48.37 50.15
54.69 54.97 55.70 55.21 55.64 56.83 56.80 57.10 57.05 54.59 56.32 58.89 60.16 60.90 61.04 60.67 60.67 59.79 59.07 57.73 57.68 56.03 54.86 52.63 50.37 50.35 48.19 48.00 48.62 48.22 48.07 47.97
54.91 56.13 55.50 55.31 55.07 55.99 56.58 56.68 56.42 55.06 54.53 59.55 60.05 60.85 61.65 61.00 59.40 58.72 59.21 56.98 55.86 54.56 52.57 51.25 50.02 48.54 46.95 45.91 46.91 47.37 47.10 47.57
54.22 54.81 55.00 54.52 55.07 55.37 54.92 55.00 55.34 55.59 54.70 56.21 60.82 60.53 62.53 60.50 60.10 59.51 57.83 56.71 55.89 55.39 53.24 51.26 48.28 47.04 47.15 46.86 46.43 46.46 46.40 48.53
54.24 54.32 54.61 54.00 53.99 53.77 54.09 54.00 54.75 54.36 56.47 57.70 61.39 61.23 61.52 61.26 60.39 59.44 57.58 56.48 55.54 53.67 51.65 49.35 48.12 47.34 50.65 48.03 46.01 46.32 45.32 44.71
52.92 52.51 53.20 52.72 52.86 51.66 51.88 52.61 54.69 57.28 57.94 61.30 58.98 58.83 61.50 61.04 59.97 58.20 57.18 56.15 54.43 53.00 50.63 47.96 46.03 47.19 45.93 46.32 46.22 45.60 44.75 44.56
52.53 52.09 52.38 52.87 54.02 54.29 54.69 55.33 57.62 58.13 60.29 60.30 60.35 60.37 60.99 60.49 58.89 57.38 56.56 55.91 53.86 52.19 49.75 47.51 46.78 47.46 45.55 44.79 42.58 43.13 44.24 44.46
52.50 52.81 53.06 53.34 54.72 56.90 57.34 56.41 54.80 56.03 58.07 59.53 60.40 61.93 61.54 60.78 59.36 58.03 57.14 55.63 53.44 51.30 50.72 48.69 45.79 47.04 46.85 45.11 40.62 39.12 40.76 42.84
54.14 54.03 54.30 55.05 57.79 58.12 56.39 55.82 54.71 55.57 57.07 60.05 60.91 61.50 60.98 60.30 59.09 57.76 57.68 57.37 54.08 52.47 52.65 50.91 50.64 48.68 47.72 48.31 45.92 43.14 39.19 37.62
55.60 56.44 56.28 57.97 58.74 58.95 58.17 55.86 55.96 56.41 57.26 58.96 59.60 59.80 59.71 59.41 58.31 56.99 56.04 55.19 54.03 53.44 52.47 51.76 51.15 49.34 47.95 47.12 46.60 45.03 42.62 41.20
55.50 56.19 57.34 58.71 59.16 59.38 59.21 56.97 55.98 57.12 57.47 58.38 57.61 58.72 57.36 58.78 57.44 55.73 55.22 54.95 53.93 53.45 51.93 51.08 50.29 49.89 47.86 46.72 45.91 44.20 43.80 41.69
55.72 56.11 56.41 57.86 58.20 59.31 59.34 58.86 58.01 58.19 58.46 57.75 57.40 56.72 56.40 56.34 56.51 55.17 55.37 54.11 53.48 51.61 51.06 50.88 49.95 47.76 47.03 46.35 46.02 45.29 45.31 43.94
57.08 56.94 56.85 58.06 59.12 58.96 60.01 60.17 59.72 58.61 58.87 58.50 58.48 57.96 57.58 56.70 55.56 55.01 55.11 54.38 52.24 50.59 51.44 50.22 49.76 48.63 46.47 46.27 44.89 45.30 45.12 43.59

GFSFLT2_sfc_wetblb_048.txt.gz
Wetbulb
67.03 66.12 67.51 65.54 64.93 65.87 67.90 68.42 68.75 69.06 69.24 69.49 69.46 69.16 68.83 68.48 68.13 67.69 67.13 66.44 65.55 64.90 64.40 63.87 63.97 63.35 63.35 63.44 61.86 61.29 56.12 56.88
64.25 65.35 66.06 63.76 61.89 63.44 66.34 67.75 67.64 67.61 67.85 67.70 67.76 68.18 68.37 67.89 67.23 66.93 66.62 65.87 65.12 64.27 63.74 63.47 63.06 62.39 63.34 62.38 61.76 60.58 55.39 55.97
63.57 64.07 63.54 63.31 62.80 63.66 65.00 67.05 66.92 66.49 66.27 65.69 64.83 65.34 65.58 64.70 65.72 65.98 65.73 64.75 64.35 63.42 62.96 61.77 60.00 61.14 61.38 61.41 59.74 55.60 55.99 56.49
62.28 61.55 61.48 61.09 61.67 61.43 64.48 65.57 64.24 63.42 61.62 60.55 61.97 62.68 63.60 64.29 64.70 64.85 64.44 64.00 63.36 62.57 61.73 60.58 57.88 52.24 52.52 58.10 55.67 56.91 57.41 57.44
61.04 61.63 60.90 59.94 59.38 60.42 63.35 63.22 61.93 60.60 59.90 61.13 61.78 62.23 61.78 61.76 61.65 61.68 61.61 62.35 60.22 59.24 56.68 55.84 55.39 52.62 50.86 51.05 53.31 55.29 56.09 57.74
60.88 60.98 61.19 60.24 59.12 59.73 63.13 61.94 60.67 60.61 60.30 61.07 59.82 58.96 58.92 58.95 58.28 58.56 57.82 57.03 55.63 54.88 54.83 54.32 52.79 51.98 50.04 48.61 50.81 52.37 54.33 55.81
60.48 60.76 61.26 61.48 59.97 61.81 61.67 60.76 60.64 61.14 60.70 59.84 59.18 58.13 57.38 57.04 55.93 56.05 56.15 55.27 53.87 55.30 54.25 52.73 51.31 49.76 48.70 48.83 48.07 50.54 51.48 52.44
57.87 59.74 60.81 60.40 59.94 60.03 60.26 60.21 61.30 61.24 60.78 60.09 58.85 57.98 57.80 57.45 56.35 56.18 56.38 55.83 54.81 55.14 53.72 52.08 50.75 48.53 47.83 47.62 47.84 48.64 49.43 49.28
55.73 56.61 57.08 57.83 57.82 57.65 57.61 58.22 56.88 59.86 59.88 60.23 59.35 59.11 58.29 58.57 57.94 56.93 56.44 57.03 56.17 54.33 53.92 52.42 50.89 49.01 47.28 47.02 47.17 47.17 48.28 48.94
56.37 56.72 55.89 56.58 56.64 56.88 56.54 56.21 55.56 54.41 55.72 58.17 58.79 59.85 60.60 59.10 58.44 57.91 58.09 56.70 56.21 54.56 52.85 49.84 48.51 46.57 45.38 44.71 46.17 45.88 45.97 47.63
55.37 55.81 55.32 55.75 55.94 55.63 55.37 54.98 55.06 54.84 54.22 55.09 59.50 59.70 60.94 60.08 58.87 58.35 57.41 56.25 54.84 54.09 51.77 50.73 47.90 46.18 45.97 44.87 44.71 45.14 45.56 47.99
55.31 55.56 54.80 55.18 55.03 54.62 53.93 54.30 54.75 54.69 54.42 55.03 56.64 58.47 59.71 59.57 59.05 58.66 56.70 55.21 54.26 53.05 51.59 49.56 47.47 46.16 48.61 47.07 43.76 44.28 44.17 44.62
54.23 54.33 53.74 54.19 53.76 52.85 52.70 52.77 54.15 54.47 54.03 55.39 57.05 58.72 60.52 59.41 58.86 58.31 56.39 55.25 54.93 53.44 49.84 47.30 45.40 46.31 45.46 45.26 45.45 44.75 43.52 43.09
52.54 52.72 52.39 53.29 53.47 53.40 53.70 53.14 53.51 53.74 54.24 55.51 58.05 57.68 58.46 60.33 59.25 58.11 56.27 54.92 53.35 51.87 49.52 46.37 45.75 46.15 44.28 44.03 42.59 43.63 43.73 43.63
52.08 52.24 51.74 51.94 52.60 51.92 51.88 51.59 52.38 52.61 54.00 55.54 57.92 58.00 57.92 59.69 59.42 58.05 56.36 55.61 54.21 53.08 49.48 48.36 47.49 48.37 47.74 45.93 41.28 41.23 40.31 41.92
52.25 52.09 51.96 52.42 53.17 52.00 51.61 51.55 51.02 53.45 54.30 56.48 57.88 58.88 59.50 59.88 59.52 57.98 56.81 56.07 54.15 53.61 51.54 48.94 48.35 47.64 48.10 48.55 46.83 43.89 40.68 38.39
52.15 52.32 52.21 52.81 53.12 53.56 53.62 54.42 55.90 54.52 54.27 55.55 58.09 58.45 59.16 59.44 58.90 57.22 56.71 57.68 55.26 52.32 50.63 50.45 50.58 50.07 48.69 47.55 46.62 44.92 44.04 40.91
51.47 51.70 52.15 52.85 53.03 53.88 55.30 55.75 55.11 53.49 54.17 55.51 56.76 58.78 59.14 58.83 58.34 58.08 57.52 57.20 55.18 52.66 51.82 50.66 50.96 48.88 48.67 47.59 47.16 45.64 43.48 40.96
52.00 52.24 52.16 53.39 53.82 54.67 56.10 56.97 55.90 54.22 54.92 55.62 56.32 57.31 56.83 58.05 57.97 57.27 56.17 55.30 53.60 53.20 52.30 50.44 50.08 49.44 48.92 47.54 47.82 46.77 45.06 44.06
52.55 53.06 53.92 54.21 54.97 55.92 56.95 57.26 58.28 57.00 56.46 57.00 57.35 57.56 57.26 58.43 57.72 56.18 54.94 55.10 53.15 51.68 51.54 50.91 49.69 49.29 48.25 47.84 47.06 45.45 45.20 43.97

GFSFLT2_sfc_wetblb_051.txt.gz
Wetbulb
65.26 65.46 64.55 65.10 65.96 65.35 65.34 68.27 68.32 67.93 68.57 68.55 68.40 67.99 67.58 67.59 67.16 66.35 65.46 65.03 64.49 64.33 64.29 64.65 65.11 64.09 63.47 62.48 61.74 60.44 55.21 55.85
65.17 62.96 61.68 62.62 62.13 62.13 64.39 67.16 67.55 67.72 68.41 68.26 67.56 67.41 67.20 66.69 66.05 65.54 65.20 64.93 64.64 63.89 63.55 64.02 64.32 64.06 62.64 62.05 61.53 59.78 54.94 55.37
64.69 61.09 60.16 59.89 60.62 61.94 62.51 67.26 67.56 67.16 67.74 67.51 66.04 65.61 64.62 63.23 64.81 64.96 64.65 63.84 63.58 63.08 62.09 62.08 63.68 63.00 62.61 61.79 59.03 55.16 55.33 55.74
63.30 61.67 60.05 58.53 59.33 58.61 57.64 60.09 64.82 65.31 65.84 64.19 64.17 63.00 62.33 63.18 63.74 63.89 63.42 62.93 62.94 62.54 61.32 59.45 56.38 54.94 59.14 59.20 55.58 56.06 56.08 56.38
61.52 61.09 61.24 60.08 58.00 56.28 57.38 60.27 62.34 60.56 61.20 62.66 62.59 62.84 62.37 61.05 61.08 60.94 60.44 60.64 56.95 55.70 55.36 53.84 51.90 52.53 53.48 54.48 56.53 56.46 56.45 57.36
60.27 60.18 59.04 58.94 58.78 58.91 59.50 60.27 60.84 59.77 60.83 61.44 61.60 60.41 59.07 58.21 58.88 58.62 57.31 56.46 54.09 53.78 52.78 51.50 50.69 50.00 51.22 52.94 54.44 54.72 55.63 56.55
60.33 59.68 59.07 57.21 57.41 58.12 59.66 61.21 59.82 59.53 60.62 59.61 59.35 58.11 57.56 57.09 56.93 55.94 54.90 53.44 53.25 53.33 51.09 50.29 48.67 47.99 47.87 50.30 51.57 53.41 54.25 54.78
60.05 60.40 59.53 57.75 56.99 58.32 61.57 60.03 60.10 59.74 59.52 58.37 57.23 57.12 56.69 56.35 55.06 54.06 53.68 52.72 53.82 53.42 51.22 49.15 47.40 46.57 46.41 47.59 49.49 49.69 49.91 50.87
59.05 60.27 61.02 59.41 59.59 60.87 60.45 60.09 60.30 59.80 59.03 58.48 56.88 56.72 56.07 55.74 54.10 54.19 54.30 53.37 54.22 52.88 51.40 50.12 46.88 46.33 45.59 45.93 47.00 47.63 47.80 48.11
56.55 59.62 58.81 58.40 58.18 58.02 58.19 57.03 59.76 60.10 59.48 58.54 58.20 57.84 57.68 56.14 55.39 55.27 55.81 55.22 54.33 52.97 51.16 49.25 46.84 44.87 43.71 44.26 45.34 45.59 47.03 47.74
55.41 57.05 57.52 57.08 56.21 55.85 55.24 54.99 55.99 57.34 58.52 58.63 58.75 59.26 59.73 57.66 57.49 56.88 56.27 55.11 54.15 53.12 50.13 48.83 46.49 44.74 44.44 43.22 43.91 43.76 43.94 48.27
55.57 55.85 56.61 56.36 55.45 54.94 55.06 54.98 53.95 54.15 53.88 57.05 59.09 59.18 60.23 58.75 57.99 56.92 55.97 54.31 53.33 51.75 49.97 48.65 47.22 46.14 47.13 45.23 42.75 43.29 42.95 43.82
55.59 54.99 55.08 55.63 55.01 54.47 53.97 53.97 53.92 53.95 54.20 55.78 56.45 57.28 59.36 58.76 57.92 57.42 55.42 54.44 53.64 52.79 49.51 47.73 45.62 45.15 44.63 44.21 44.06 43.62 43.25 42.74
54.43 54.60 54.70 55.13 55.64 56.10 55.45 54.78 54.16 54.28 54.23 54.63 55.80 57.17 57.21 58.08 57.66 57.22 56.11 53.90 53.12 51.85 49.20 46.00 45.47 45.79 44.07 43.56 42.20 44.09 43.45 42.92
53.14 53.20 53.35 53.61 54.32 54.98 53.35 53.23 52.70 51.26 52.74 52.70 54.39 56.61 56.42 57.85 58.35 57.42 56.15 54.58 53.65 52.36 49.91 47.87 45.86 46.71 46.34 45.15 41.90 40.93 42.46 43.37
51.88 52.03 51.79 51.69 52.72 51.79 50.80 51.45 50.76 51.89 51.72 51.95 52.97 55.39 56.59 56.35 57.58 57.80 56.43 55.57 54.13 53.53 52.91 49.92 49.46 45.12 45.93 47.04 46.77 45.18 41.65 39.71
51.50 51.86 51.94 51.63 51.48 50.95 49.28 49.43 49.78 50.66 51.24 51.66 52.96 55.38 56.89 57.94 57.86 57.40 57.04 56.11 55.22 53.97 52.08 50.65 50.82 49.43 48.11 45.47 46.17 44.41 44.62 42.40
50.96 51.08 51.29 51.65 51.64 51.56 50.73 50.38 51.26 51.49 52.22 52.77 53.87 55.23 56.64 57.25 57.77 56.90 56.41 56.33 55.75 55.04 53.79 52.20 50.59 49.82 49.55 48.47 47.31 45.96 42.09 42.15
50.42 50.75 50.68 51.54 51.29 51.56 51.85 51.62 52.50 53.35 53.39 53.37 53.99 54.65 55.76 57.38 56.85 56.03 56.13 56.86 56.85 56.53 53.80 52.06 50.67 50.20 49.25 47.36 48.36 47.43 46.11 44.60
50.08 50.62 50.72 51.31 51.25 51.31 52.15 53.30 54.56 55.42 55.26 54.67 54.07 54.70 55.69 56.91 57.84 57.84 57.70 57.46 57.53 55.77 54.62 53.62 51.89 50.58 49.18 48.96 48.35 47.76 46.12 44.35

GFSFLT2_sfc_wetblb_054.txt.gz
Wetbulb
63.51 64.55 65.67 66.27 65.58 64.99 66.56 67.56 68.38 68.41 68.17 68.10 68.02 67.55 67.04 67.13 66.75 66.14 65.86 66.18 66.94 66.43 65.56 64.74 64.62 63.68 63.18 62.43 61.58 60.22 55.59 56.66
63.75 63.27 63.53 62.27 62.77 64.32 64.66 66.83 67.35 67.67 67.89 67.85 67.33 67.10 66.84 65.82 64.96 65.10 65.06 64.98 65.64 65.83 65.01 64.65 64.08 63.44 62.64 62.08 61.47 59.77 55.41 56.19
60.97 60.82 60.77 60.39 60.56 61.78 63.50 65.30 65.67 66.89 67.61 67.27 65.47 64.36 63.11 62.06 63.45 64.27 63.84 63.32 63.98 64.77 64.84 64.34 63.16 62.86 62.56 61.65 59.06 55.47 55.79 56.54
60.32 59.55 58.88 58.84 60.13 61.00 60.28 59.96 63.98 65.58 66.51 65.49 64.63 62.47 61.15 62.02 63.11 63.09 62.69 62.61 62.63 63.39 64.25 63.59 61.17 59.08 59.81 58.91 55.70 55.95 56.41 57.03
59.99 58.93 58.48 58.16 58.47 58.48 59.03 57.76 61.34 64.09 64.70 64.28 62.42 61.70 62.15 60.37 59.96 59.79 59.00 59.68 56.17 56.40 55.08 54.85 54.99 54.99 55.22 55.52 56.05 56.33 56.49 57.57
59.82 58.91 58.61 58.18 57.40 57.80 57.78 58.22 59.57 59.82 62.54 63.04 62.10 60.75 59.36 58.98 57.76 57.14 55.45 53.63 53.21 53.07 51.53 50.90 52.26 53.33 54.63 55.27 55.61 55.87 55.97 57.31
59.97 59.48 58.86 56.88 55.79 56.45 57.32 58.24 58.46 60.00 60.61 62.15 61.32 59.04 58.10 57.70 57.16 55.52 54.48 53.71 53.07 50.64 49.59 49.61 49.68 50.66 52.42 54.07 54.62 55.07 55.94 56.70
59.39 58.84 58.96 57.15 55.79 56.04 56.53 57.40 57.53 59.62 60.64 59.78 58.85 57.85 57.28 56.93 55.67 54.36 53.05 53.35 52.68 50.70 49.37 47.08 46.23 47.49 48.95 50.97 52.21 53.44 53.70 54.38
59.41 59.00 57.78 57.78 57.52 57.18 57.36 58.27 57.86 58.91 59.96 58.61 57.69 56.69 55.99 55.98 54.54 53.89 53.15 52.94 52.60 50.75 49.42 46.83 45.31 46.18 46.52 48.34 49.19 48.75 49.37 50.29
57.84 59.94 57.59 57.06 57.08 58.25 59.80 60.16 59.47 59.53 59.01 57.53 56.97 56.86 56.53 55.37 54.10 54.12 53.90 53.57 53.17 51.34 49.87 47.72 45.42 44.99 44.55 45.31 46.30 47.31 47.75 48.01
56.46 58.63 58.06 58.21 58.00 57.88 58.54 58.49 59.22 59.15 57.61 57.04 57.29 57.19 57.11 55.92 55.34 54.92 54.98 53.94 53.41 52.31 49.86 49.16 45.88 44.46 44.68 44.13 44.66 45.08 46.01 48.45
56.00 57.45 58.52 57.88 56.90 56.20 55.98 55.49 54.63 56.45 57.44 57.38 57.65 58.40 58.06 57.20 56.45 56.08 55.27 54.19 53.01 51.51 49.60 48.56 47.65 45.73 46.44 44.82 43.63 43.94 43.91 44.70
55.01 56.22 56.64 56.28 55.70 55.70 55.68 54.70 53.78 53.72 55.56 57.87 58.57 59.31 59.61 57.99 57.85 57.04 56.06 54.38 54.17 51.98 49.86 48.09 46.47 46.05 44.65 44.64 44.54 43.77 43.75 43.26
55.21 55.23 56.02 56.64 56.02 56.51 56.92 56.02 55.11 54.91 54.31 55.31 56.74 57.42 58.59 58.82 57.60 56.80 55.21 54.27 53.04 51.26 49.53 46.77 46.80 45.57 44.01 43.49 42.34 44.34 44.47 44.86
54.64 54.54 55.48 55.98 56.63 55.80 55.01 55.37 54.38 53.73 53.55 52.61 54.65 56.52 56.81 57.67 57.66 56.72 55.49 54.15 52.77 51.56 49.91 48.13 46.04 45.52 46.20 46.53 41.35 41.28 42.48 43.40
53.23 54.02 53.83 54.40 55.85 54.72 54.74 54.13 52.76 53.98 53.18 53.03 53.32 55.76 56.42 56.53 57.47 57.20 56.20 55.17 53.47 52.84 51.91 49.52 48.55 46.92 47.60 47.80 46.67 45.10 42.34 41.82
50.28 52.94 53.18 53.09 53.52 53.90 54.53 54.73 54.49 54.16 51.96 51.87 52.62 53.34 55.83 56.48 55.29 55.37 55.81 55.34 54.87 53.92 52.77 50.44 50.98 49.88 48.99 47.41 46.61 45.13 43.69 43.54
50.32 50.72 51.41 51.40 50.80 51.00 51.19 51.77 50.72 50.92 50.71 50.63 50.63 51.83 52.92 54.93 55.57 55.33 55.71 55.09 54.45 53.53 52.68 52.01 51.84 51.22 50.95 50.03 46.88 45.78 43.98 43.33
50.65 50.61 50.73 51.41 50.39 50.32 49.72 50.25 50.56 50.22 50.57 50.82 50.67 51.40 52.29 53.32 53.79 54.01 54.29 54.99 54.95 54.91 54.21 53.88 52.84 51.98 51.51 50.57 50.14 48.54 47.71 45.47
50.23 50.62 50.54 51.09 50.81 50.60 50.82 50.32 50.76 51.45 51.75 51.97 52.36 52.81 52.92 53.35 54.50 55.23 54.79 55.47 55.33 56.24 55.90 55.01 54.02 53.12 52.06 51.41 49.96 48.58 47.42 45.37

GFSFLT2_sfc_wetblb_057.txt.gz
Wetbulb
65.71 66.27 67.81 66.93 66.63 67.59 68.01 68.30 68.38 68.16 67.65 67.76 67.90 67.74 67.76 67.91 67.23 67.18 67.60 67.31 67.13 66.20 65.41 65.08 64.59 63.88 63.31 62.60 61.84 62.44 62.09 61.97
65.85 65.08 63.97 63.15 65.76 65.42 66.11 66.94 67.41 67.41 67.27 66.90 66.67 67.07 67.19 66.69 66.06 67.02 67.96 67.48 66.79 65.64 65.04 64.74 64.24 63.43 62.86 62.26 61.60 61.91 61.82 61.82
63.30 63.61 61.71 62.55 63.74 62.94 65.05 66.85 66.67 67.06 67.16 66.56 65.74 67.02 66.08 64.43 64.26 65.89 66.70 65.73 65.33 65.04 64.66 63.97 63.32 62.82 62.58 61.71 61.26 61.33 61.64 61.94
61.97 61.89 62.17 61.78 62.98 62.21 62.74 63.54 64.85 65.91 67.03 67.19 65.86 65.47 64.63 63.18 63.88 64.03 64.53 65.01 64.78 64.62 63.91 63.28 62.12 61.56 61.39 60.35 60.66 61.37 61.44 61.78
61.06 60.43 60.54 61.23 60.94 61.39 60.96 60.48 62.90 64.43 66.85 65.76 64.94 63.87 64.45 63.31 62.65 62.40 63.61 64.18 64.48 63.78 62.69 62.05 61.98 61.22 60.39 60.50 61.15 61.16 61.42 61.53
60.37 59.70 59.82 60.90 60.24 59.22 59.00 60.21 62.15 62.50 65.84 64.77 63.31 62.45 61.97 61.98 60.72 60.95 60.59 60.79 61.75 62.71 61.11 60.54 61.00 60.62 60.47 60.58 60.77 60.88 61.25 61.55
59.16 59.56 59.46 59.46 58.80 59.34 58.89 60.05 61.16 61.63 64.63 63.82 61.65 60.47 60.69 60.96 60.19 59.59 58.81 59.18 59.74 58.99 59.93 60.11 59.96 60.15 60.37 60.05 60.08 60.78 61.32 61.22
59.03 59.33 59.07 58.62 57.84 59.34 59.24 59.56 59.85 61.90 63.00 62.58 61.47 60.57 60.90 59.96 59.46 58.89 58.83 57.88 57.66 58.52 58.51 59.36 59.42 59.35 59.44 59.76 59.85 60.29 61.11 61.51
59.20 59.42 58.91 57.13 57.45 57.66 59.62 58.75 59.30 60.31 62.37 62.70 61.69 61.48 60.95 60.74 59.08 58.43 58.84 58.46 57.57 55.86 56.60 57.33 57.12 57.52 57.96 58.26 58.85 59.28 59.67 60.46
59.39 59.36 58.18 57.83 57.06 57.57 58.97 58.12 58.27 59.06 60.95 61.99 60.91 61.02 61.29 60.64 58.82 58.68 59.26 58.28 57.22 55.58 54.23 53.47 53.91 54.67 54.93 55.61 56.23 56.28 56.76 57.21
59.06 58.44 57.85 58.88 58.90 57.97 60.03 59.81 58.53 58.19 60.03 59.98 60.41 59.69 59.91 60.22 59.62 59.61 59.23 58.67 57.47 56.40 54.77 54.11 52.28 52.36 53.12 54.13 54.16 54.01 54.09 53.87
57.44 58.84 57.81 58.30 58.09 58.65 59.74 59.88 59.53 59.21 59.08 60.12 60.92 60.15 60.35 60.63 59.84 59.63 59.07 58.85 57.62 56.83 55.71 55.23 53.52 52.36 49.86 49.87 51.15 51.89 51.87 52.87
56.35 57.14 57.40 57.90 56.88 56.94 57.40 57.08 57.81 59.47 60.17 60.75 60.54 60.49 59.95 59.90 60.20 59.47 59.06 58.34 58.28 58.00 56.56 54.94 53.09 52.55 50.97 50.57 50.98 51.34 51.71 52.05
56.72 57.06 57.82 57.57 57.50 57.89 58.64 57.38 55.89 59.31 60.69 60.55 60.71 60.87 60.21 60.64 60.19 60.11 59.31 59.03 58.72 58.20 57.13 55.27 55.10 52.73 52.03 51.75 50.69 51.61 51.78 52.17
56.06 56.59 56.89 57.96 58.55 58.27 58.08 57.40 55.47 55.29 56.29 58.19 59.70 60.74 61.06 61.00 61.10 60.93 60.14 59.69 59.25 58.88 57.96 56.38 54.30 52.76 53.79 54.69 50.02 50.26 52.00 52.20
56.95 56.98 56.52 57.23 57.77 57.43 55.84 55.61 53.60 56.53 55.74 55.49 56.71 58.23 58.70 60.38 59.93 59.82 59.25 59.14 59.06 58.86 58.27 57.24 56.33 54.68 52.48 52.56 53.62 53.46 50.26 49.54
56.41 56.25 55.87 56.63 57.21 58.22 56.63 54.87 55.76 56.30 55.34 53.96 55.95 57.12 58.04 58.00 58.15 58.78 60.09 59.92 60.30 59.22 58.06 56.77 56.82 56.18 54.59 53.40 51.97 48.36 49.39 50.60
55.18 56.24 54.86 55.49 56.04 56.37 56.34 55.25 54.68 53.66 54.03 53.54 53.34 54.36 56.01 56.60 56.31 56.68 59.01 60.48 60.59 60.59 60.18 58.63 57.52 57.02 56.45 53.37 50.14 47.90 47.75 48.01
53.88 55.09 55.25 55.32 55.59 56.41 56.67 55.96 55.94 54.57 54.23 54.30 54.30 53.22 54.66 56.02 57.77 57.65 59.38 59.96 59.78 60.28 59.85 59.37 58.94 58.18 57.72 55.52 51.65 50.42 51.43 49.68
53.25 53.98 54.72 55.41 54.87 54.78 55.95 57.31 57.00 57.23 57.10 56.96 56.86 55.72 56.31 58.62 57.68 58.36 58.57 59.15 59.54 59.89 60.22 59.87 59.56 58.96 57.99 55.35 53.64 53.68 54.52 52.08

GFSFLT2_sfc_wetblb_060.txt.gz
Wetbulb
67.69 67.19 66.91 67.18 67.34 68.36 67.63 68.80 68.67 68.63 68.71 68.92 68.80 68.42 68.39 68.54 68.44 68.72 68.47 67.18 66.69 66.29 65.83 65.29 64.53 63.89 63.35 63.17 63.44 64.32 63.87 63.52
66.92 66.32 66.46 65.59 65.37 66.17 67.14 67.41 67.75 67.82 68.27 68.08 67.38 67.49 67.71 67.28 67.28 67.94 68.00 66.91 66.34 65.75 65.32 64.86 63.87 63.57 62.98 62.63 62.40 63.28 63.76 63.51
67.42 65.62 65.81 64.96 64.87 65.47 67.58 67.71 67.23 67.16 67.79 67.14 66.41 67.89 67.13 66.16 66.23 66.90 67.09 65.57 65.12 65.17 64.70 64.07 63.44 63.16 62.79 62.23 62.23 63.27 63.73 63.37
65.43 64.28 64.51 63.93 63.92 63.44 65.05 65.90 66.59 66.93 67.03 68.06 67.60 67.99 66.59 64.65 66.39 66.42 65.93 64.86 64.68 64.69 64.01 63.12 62.57 62.16 62.12 61.77 62.88 63.54 63.56 63.22
63.73 64.23 63.51 64.14 63.36 63.55 62.94 64.10 63.57 64.18 64.81 66.51 67.26 66.57 65.16 65.38 67.02 66.83 66.57 64.21 64.00 63.71 62.83 63.17 62.79 61.89 61.66 62.41 63.02 63.24 63.48 63.01
62.33 64.78 63.29 63.59 63.64 62.43 62.43 62.01 62.75 62.67 62.57 64.68 65.13 63.61 63.85 64.98 65.53 65.75 65.12 64.67 63.99 63.72 63.61 64.31 63.38 61.68 61.94 62.22 62.61 62.89 63.16 62.95
61.42 61.91 62.21 61.87 60.72 60.29 60.66 60.88 62.15 62.18 62.00 63.96 64.34 63.85 62.64 63.06 64.12 64.77 64.92 65.22 64.92 63.98 63.98 63.55 62.55 61.77 61.79 61.72 61.92 62.57 63.00 62.68
60.63 60.32 61.37 61.72 60.65 60.33 59.78 60.96 61.70 61.64 61.88 63.66 63.80 62.76 62.53 62.10 62.36 62.14 63.00 64.22 64.64 63.72 62.96 62.31 61.89 61.57 61.24 61.35 61.33 62.10 62.61 63.09
60.30 60.21 61.01 61.49 60.43 59.85 60.36 60.47 61.29 60.82 60.86 63.75 63.01 62.44 62.88 62.83 61.24 61.42 61.95 62.83 62.84 62.62 62.37 62.21 61.43 60.93 60.70 61.05 61.13 61.69 61.87 62.25
61.36 60.02 59.95 61.52 61.00 59.82 60.23 60.08 60.44 61.20 61.55 62.66 61.93 61.34 61.49 61.50 60.46 61.08 61.31 61.36 61.24 61.11 60.96 60.50 59.93 59.65 59.66 59.74 60.12 60.52 60.74 61.22
60.11 60.04 58.66 58.08 57.96 59.19 59.69 59.33 59.60 60.40 61.96 62.32 62.36 61.13 61.32 60.97 60.35 61.65 61.98 60.78 60.27 60.07 59.55 59.21 57.77 57.70 57.91 58.22 58.90 58.57 59.16 58.39
60.17 59.40 58.81 58.97 58.06 59.04 59.79 59.15 58.86 59.87 60.09 62.00 61.70 61.45 62.19 61.51 60.72 61.73 62.14 61.04 60.71 60.37 59.44 58.71 57.92 57.09 55.00 55.88 57.13 57.14 57.70 57.34
57.92 58.26 58.19 58.46 56.99 57.09 57.83 57.75 57.81 58.67 59.17 60.71 61.87 61.94 62.45 62.28 61.81 62.05 62.42 61.68 61.49 61.18 59.91 58.86 57.52 57.59 54.82 54.45 54.79 56.35 56.11 55.86
57.96 57.55 58.00 57.77 58.81 57.51 58.38 59.49 59.48 58.92 58.82 59.24 61.37 62.65 62.16 61.68 61.42 61.49 61.59 61.67 61.77 61.14 60.22 59.20 58.65 57.40 56.05 56.74 53.50 54.33 55.22 55.99
59.78 59.45 57.89 57.81 58.18 59.04 58.42 58.57 57.13 57.94 58.23 57.75 59.41 62.64 63.04 61.75 61.15 62.38 62.06 61.70 61.13 61.39 60.96 59.85 58.02 58.53 58.94 58.13 55.25 53.72 57.56 57.62
59.78 59.58 59.52 58.97 59.20 57.88 58.09 55.45 55.73 56.30 58.63 59.16 60.55 61.83 62.14 61.96 60.99 62.50 62.59 62.39 61.39 62.10 61.92 60.81 60.84 58.65 58.21 58.17 59.74 58.57 55.05 53.43
58.39 59.36 59.18 58.30 58.60 58.61 57.23 56.24 55.96 56.68 57.64 59.24 60.60 60.37 61.39 61.43 61.27 62.67 62.70 62.67 62.42 62.42 61.51 60.23 60.74 59.87 59.11 58.79 57.53 57.64 56.02 53.06
58.08 57.56 58.12 57.98 58.01 58.45 57.82 57.13 55.96 55.65 56.52 56.47 56.96 58.83 60.25 61.06 61.49 62.56 62.62 61.53 60.27 58.27 60.59 61.67 61.60 60.92 60.91 60.15 58.64 56.38 55.39 53.44
58.37 56.52 56.59 58.26 57.89 58.19 58.78 59.39 58.21 55.46 55.65 56.53 57.41 58.86 59.10 59.23 60.44 61.43 60.57 60.19 59.56 59.04 60.74 62.36 62.44 61.26 61.04 60.15 59.95 59.05 59.34 55.74
58.19 57.96 56.70 57.09 58.03 57.91 59.13 60.30 59.43 56.02 56.81 57.01 56.76 57.06 58.63 58.22 57.60 60.52 60.53 59.14 59.62 62.08 61.30 61.00 61.53 61.51 61.39 61.47 61.04 60.95 60.34 57.36

GFSFLT2_sfc_wetblb_063.txt.gz
Wetbulb
70.16 70.63 67.20 65.85 65.19 66.02 67.26 68.69 69.08 69.15 69.16 68.93 68.94 68.28 68.18 68.53 68.47 68.02 67.37 67.06 66.85 66.41 65.90 65.55 65.09 64.44 63.98 62.83 62.76 64.09 63.60 63.19
68.26 68.43 66.45 66.51 65.47 65.24 65.54 66.90 67.88 68.35 68.62 68.33 67.84 67.96 68.49 68.36 67.64 67.41 67.21 66.81 66.46 65.95 65.29 65.09 64.20 63.73 63.16 62.78 62.32 62.60 63.21 62.93
68.30 66.62 65.95 65.11 65.58 64.77 65.24 66.23 67.57 67.56 68.10 67.36 66.93 68.16 68.25 68.08 66.81 66.64 66.15 65.57 65.45 65.12 64.73 64.21 63.64 63.22 62.73 62.46 62.81 63.40 63.50 62.69
66.85 66.52 66.26 66.05 65.59 65.34 65.09 64.97 66.61 67.69 69.05 68.61 67.59 68.29 68.50 66.86 66.62 65.49 65.11 64.67 64.69 64.52 63.82 63.09 62.57 61.31 61.82 61.73 63.38 63.97 63.27 62.52
66.26 66.12 67.02 65.98 64.34 64.58 65.42 63.65 66.07 68.07 67.50 67.76 67.31 68.19 67.72 66.50 67.38 65.60 64.50 64.04 63.00 62.79 62.07 61.34 61.26 60.66 62.30 63.50 63.60 63.85 63.04 62.30
65.44 65.53 65.32 64.79 65.05 62.63 63.29 62.99 63.43 65.06 65.52 64.93 64.62 65.56 65.35 66.16 65.70 65.01 63.67 63.24 62.79 61.88 61.85 63.87 62.19 61.67 62.81 63.12 63.55 63.36 62.87 62.22
62.93 64.85 64.16 64.60 64.38 64.06 63.62 62.83 62.07 62.37 63.10 63.44 63.50 63.85 65.45 65.45 65.59 65.28 63.76 64.60 63.74 62.72 63.46 62.29 61.85 62.02 62.49 62.89 62.73 63.43 63.21 62.10
63.33 62.60 63.86 63.78 62.91 63.27 63.42 62.65 62.48 62.19 61.22 62.21 62.42 63.72 63.81 64.63 64.77 65.00 64.32 65.04 64.52 63.52 63.18 62.38 61.56 61.66 61.73 62.40 62.48 63.07 63.18 62.82
61.45 62.11 61.91 61.85 60.96 60.37 60.90 61.44 61.71 60.95 61.28 61.93 61.52 62.82 63.91 64.49 64.57 65.16 64.94 65.31 65.37 64.23 63.21 62.62 60.98 61.06 61.00 61.56 62.11 62.78 62.63 62.97
61.44 61.52 60.86 61.98 61.49 60.83 60.44 60.75 61.35 60.90 61.08 61.35 60.15 62.49 62.89 63.40 63.06 63.32 63.88 64.46 63.73 62.44 61.75 60.96 60.56 60.19 60.30 60.62 61.13 61.88 62.31 62.64
61.52 60.82 60.74 61.05 61.45 61.09 60.90 60.15 59.70 59.71 60.26 60.80 61.36 62.64 62.38 62.67 62.24 63.08 63.81 62.85 62.82 62.26 62.06 61.63 60.06 59.53 59.63 60.24 60.71 60.49 61.07 61.15
61.59 60.89 60.41 59.60 60.31 59.79 60.60 59.64 59.44 59.61 60.07 61.03 61.96 61.07 61.48 61.48 61.85 62.69 61.70 60.44 59.91 61.19 61.54 60.96 60.07 59.09 57.77 57.99 59.45 59.59 59.90 59.47
60.49 59.91 58.94 57.36 58.22 58.55 58.07 57.75 58.19 58.98 59.84 60.29 61.93 59.76 61.35 61.77 61.44 61.84 62.11 59.94 59.93 62.17 60.53 59.73 57.98 59.03 56.37 56.31 57.14 58.21 58.41 58.21
59.58 59.07 58.20 57.38 57.37 58.51 59.07 58.24 58.04 58.14 59.48 59.86 61.61 61.26 62.15 62.61 62.30 61.50 61.43 61.61 62.33 61.71 61.34 59.00 58.64 58.66 55.06 54.62 52.78 54.90 56.61 57.28
60.10 59.08 58.39 58.02 57.13 58.19 58.92 58.63 58.02 56.76 58.04 58.25 59.30 60.37 61.99 62.37 62.95 62.61 62.23 63.12 61.73 62.13 62.66 61.61 58.55 58.94 59.47 57.48 53.81 52.78 56.01 57.66
61.94 60.62 58.93 58.53 58.60 57.60 57.30 57.45 56.36 57.49 56.94 58.69 58.55 58.64 61.82 61.80 60.35 60.81 62.65 62.22 62.32 62.61 62.62 62.10 61.61 58.77 59.00 58.42 60.56 59.33 55.15 53.78
60.90 60.43 60.00 59.30 59.60 58.00 57.51 56.77 58.14 58.47 57.86 57.72 57.56 57.74 59.81 59.68 60.87 59.91 60.66 62.89 62.60 62.96 62.82 62.31 62.23 60.16 60.22 59.12 58.45 58.76 59.58 56.64
61.35 59.26 59.07 59.86 59.04 58.36 57.69 56.35 57.77 56.65 57.81 57.27 57.10 58.09 59.18 61.23 61.21 60.38 59.84 60.74 61.24 62.02 62.16 62.70 61.76 61.46 61.03 61.05 59.62 57.33 56.60 56.00
60.55 59.85 58.44 59.09 58.80 58.74 58.50 58.28 57.90 57.32 57.52 56.90 56.34 56.62 58.79 61.05 61.56 61.51 61.24 60.81 60.01 61.59 62.23 62.34 62.33 61.42 61.85 61.27 60.80 60.16 60.27 58.84
60.73 59.50 59.48 58.67 58.60 58.31 58.78 59.03 59.40 58.50 57.30 57.33 57.18 58.02 59.72 61.08 61.97 61.91 61.52 60.79 59.47 61.02 61.04 60.87 61.38 61.50 61.73 62.01 61.15 60.49 61.17 60.10

GFSFLT2_sfc_wetblb_066.txt.gz
Wetbulb
70.45 70.81 68.99 66.00 65.84 65.15 63.80 63.94 66.48 69.04 69.56 69.52 69.04 68.24 67.99 68.35 68.40 68.17 67.87 67.53 66.85 66.42 65.97 65.67 65.51 64.50 63.68 62.58 62.55 64.83 60.22 59.85
68.19 68.95 67.56 66.51 65.75 64.16 63.67 62.08 62.50 67.27 68.70 68.21 67.40 67.61 68.06 67.67 67.34 67.32 67.29 66.97 66.38 65.66 65.57 65.30 64.50 63.64 62.62 62.71 62.08 64.04 59.62 59.65
68.01 67.67 66.77 66.93 65.44 64.89 63.41 63.85 63.34 64.47 68.15 67.40 66.17 66.98 67.02 66.33 66.26 66.51 66.42 65.74 65.60 65.49 64.92 64.24 63.35 62.50 62.73 62.71 62.92 60.03 60.02 59.39
67.59 66.65 65.90 65.13 64.62 64.25 64.04 63.02 62.67 60.71 66.83 66.42 66.19 66.54 66.33 66.13 65.69 65.62 65.42 64.88 64.60 64.51 64.09 63.08 61.89 58.70 58.95 60.86 58.93 61.02 59.60 59.13
66.28 66.01 65.91 65.24 64.53 65.09 64.32 62.36 63.22 65.39 66.46 65.84 66.39 66.33 65.44 65.15 64.20 63.73 63.50 63.87 62.08 62.14 61.23 59.23 57.52 57.75 58.56 58.95 60.80 60.83 59.49 59.08
65.22 65.54 65.23 64.98 64.42 64.22 63.55 62.57 63.14 64.77 65.64 65.35 65.36 64.68 64.33 64.20 61.60 61.75 60.75 60.54 59.39 59.29 58.40 58.37 56.93 58.33 59.89 60.82 60.34 60.62 59.07 58.85
63.88 64.37 64.19 63.64 63.54 63.28 62.69 62.38 62.52 63.18 64.61 63.98 64.40 63.72 63.45 63.37 60.96 60.65 60.16 60.59 59.52 58.03 58.37 58.94 58.39 58.27 59.87 59.97 60.77 60.34 59.08 58.97
63.60 63.67 63.44 63.46 63.45 63.37 62.72 61.96 62.24 62.10 62.39 62.75 62.97 62.62 63.35 63.05 61.90 59.85 60.39 60.39 60.76 58.91 60.29 58.58 58.18 58.63 59.18 59.77 60.96 60.67 59.36 59.02
62.10 62.78 63.27 62.58 62.73 62.88 62.90 62.34 61.88 61.33 61.14 62.09 62.13 62.27 62.66 62.97 62.70 61.28 61.28 60.84 60.88 60.03 60.97 58.97 58.07 58.48 58.37 59.20 59.55 59.99 60.09 59.30
61.36 61.60 61.54 61.54 61.34 60.90 61.49 62.01 61.45 60.84 61.05 61.61 61.46 61.60 61.66 62.34 61.77 61.69 62.12 61.27 61.38 60.34 59.18 58.26 57.36 56.74 56.51 57.25 57.93 58.65 59.41 59.45
61.05 61.62 61.18 60.78 60.36 60.43 60.40 60.84 61.01 60.07 60.25 60.76 60.57 60.62 61.05 61.50 60.92 61.62 62.33 61.13 61.25 60.29 58.59 58.07 56.86 56.30 57.04 56.52 57.08 57.22 58.13 59.28
60.80 61.26 60.75 60.28 60.25 60.05 59.82 59.32 60.48 60.23 59.75 59.84 59.44 59.78 60.54 61.13 60.52 61.03 60.05 60.18 59.70 59.15 58.03 58.31 57.30 56.17 57.51 56.70 56.36 56.78 56.96 56.73
60.72 60.00 59.24 58.91 58.71 58.20 57.58 56.96 57.64 58.51 58.33 58.12 58.56 59.91 60.16 59.66 59.52 60.04 59.01 58.13 57.60 58.14 57.76 56.27 55.95 56.65 54.66 53.32 53.78 55.12 55.33 54.86
59.99 59.50 57.84 58.62 58.45 58.26 58.49 57.43 57.23 57.41 58.68 58.20 59.36 59.47 59.10 59.12 59.29 59.07 59.50 58.60 57.92 57.51 56.36 54.87 55.15 55.51 52.55 51.71 48.32 50.26 52.70 54.50
59.76 59.21 57.50 57.63 59.01 58.52 58.28 57.82 57.40 56.43 57.46 58.19 58.57 58.56 58.44 58.07 59.68 59.13 58.45 59.68 58.32 57.93 58.16 56.46 54.46 54.83 54.71 52.39 48.63 47.54 49.86 52.23
60.13 58.95 57.44 57.20 58.41 57.85 56.87 55.89 54.55 55.35 57.04 58.00 57.97 58.87 58.41 58.69 59.86 59.43 58.89 59.27 59.17 59.41 60.07 58.33 57.65 53.91 53.57 55.54 55.56 55.90 51.93 49.32
59.89 59.12 58.09 57.56 57.42 57.70 57.17 56.21 56.44 56.41 56.59 57.17 57.43 57.54 58.78 59.45 60.05 60.10 60.22 59.62 59.65 59.28 59.01 59.01 58.44 56.99 55.49 55.60 54.73 55.21 55.02 52.70
60.27 59.31 58.19 58.64 57.58 57.67 57.05 56.18 56.52 55.49 55.23 55.81 56.71 56.78 56.89 58.35 59.65 59.25 58.94 59.24 59.33 59.09 59.06 58.60 59.05 58.37 57.56 57.16 56.61 54.36 53.67 52.92
59.33 59.34 58.56 58.71 58.09 57.29 57.62 56.97 56.99 56.12 55.02 55.07 55.97 55.76 55.45 55.98 58.81 58.79 58.16 58.57 59.55 59.37 58.59 58.51 58.83 58.04 57.55 57.06 57.19 57.07 56.89 55.45
59.32 58.58 58.24 58.62 58.16 57.63 57.48 57.36 57.10 57.25 57.20 56.16 56.28 56.53 56.29 56.80 58.29 58.77 58.85 58.65 58.86 58.66 57.45 57.31 57.53 57.47 57.47 58.00 57.81 57.68 57.38 56.77

GFSFLT2_sfc_wetblb_069.txt.gz
Wetbulb
67.32 67.23 67.01 66.68 66.68 66.32 65.69 66.34 65.49 66.61 68.39 68.62 69.00 68.95 68.73 69.01 68.82 68.50 68.34 67.62 67.29 66.82 66.37 66.13 65.59 64.74 63.36 62.87 63.16 62.51 59.29 59.30
65.65 65.86 64.74 63.77 64.00 64.73 65.02 65.85 66.10 63.89 64.45 67.30 67.69 68.04 68.06 68.11 67.95 67.80 67.36 67.02 66.32 66.32 65.72 65.13 64.68 63.15 62.24 63.28 62.57 62.01 58.79 58.23
64.50 64.93 64.39 63.71 63.44 63.57 64.72 65.54 65.58 64.32 64.48 62.39 66.27 66.71 66.51 66.44 66.44 66.72 66.59 65.71 65.79 65.67 65.08 64.03 63.33 62.43 62.68 62.37 61.89 58.80 58.60 58.52
64.00 64.29 63.06 62.91 63.93 62.37 61.60 62.54 63.03 62.18 62.00 62.58 66.21 65.62 65.05 65.47 65.78 65.85 65.49 65.25 65.16 64.80 64.03 63.21 61.10 57.69 57.27 59.97 58.76 58.36 58.34 58.39
63.66 63.28 62.94 61.45 61.78 61.85 61.07 61.07 60.17 59.70 59.50 60.19 65.92 64.94 64.76 64.83 64.27 64.04 63.41 64.08 62.04 61.67 61.11 58.76 57.21 56.55 56.53 56.73 58.18 58.24 58.34 58.83
62.51 62.98 63.12 62.46 63.12 62.19 61.22 60.40 61.06 59.52 59.48 59.83 65.29 64.37 63.76 63.25 62.20 62.13 61.84 60.71 59.27 58.11 57.03 56.71 55.79 56.88 57.58 58.05 58.07 57.76 57.96 58.23
61.34 62.95 63.45 62.27 60.88 60.48 61.10 61.34 61.60 61.47 63.91 64.38 64.75 63.72 62.60 60.80 60.38 60.08 59.56 59.08 57.31 55.64 55.88 56.68 54.96 55.69 57.50 58.53 57.96 57.55 57.61 58.06
60.94 62.39 62.50 61.52 60.45 60.51 61.53 61.06 61.32 63.18 63.84 63.68 63.72 63.59 61.88 59.21 58.85 57.96 58.36 58.23 56.47 55.31 55.59 54.47 55.05 55.99 57.16 59.01 57.99 57.66 57.39 57.11
59.84 61.44 62.01 61.58 61.62 60.11 59.70 61.00 62.35 62.40 62.46 62.76 63.31 63.31 61.34 58.95 58.28 57.83 58.30 57.58 56.11 55.62 56.02 56.32 55.88 57.30 56.83 58.20 58.59 57.68 57.21 57.28
60.77 61.66 60.32 59.90 60.29 60.79 59.92 61.00 61.54 61.82 61.90 62.35 62.02 62.92 62.54 60.87 58.49 58.48 58.98 58.15 57.36 56.96 57.24 56.44 55.56 55.49 54.91 56.53 58.50 57.61 57.23 57.06
59.75 59.99 60.04 59.93 58.36 60.44 59.73 60.31 60.90 61.19 61.36 61.72 61.38 61.50 62.69 61.76 59.99 59.60 59.75 58.66 58.37 57.93 58.01 56.29 55.32 54.79 55.18 54.83 55.35 57.59 57.05 57.66
58.97 60.08 59.99 59.22 59.49 59.84 60.13 60.69 59.67 59.86 60.47 60.95 60.77 60.32 61.20 61.35 61.09 60.43 60.74 59.22 58.43 58.52 57.86 55.60 55.39 55.91 57.27 55.41 54.39 55.50 57.09 56.61
59.54 59.58 59.42 59.15 58.60 57.96 57.60 57.16 59.37 59.12 59.90 60.29 59.95 59.84 60.07 60.39 59.95 59.99 58.90 59.74 57.90 57.84 56.88 55.68 54.09 54.91 52.51 51.77 52.59 54.15 54.25 54.86
59.29 58.83 58.64 58.56 58.44 58.35 57.90 57.61 58.98 59.27 59.43 59.40 59.46 59.73 59.12 59.00 59.64 59.22 57.38 59.15 57.90 56.53 54.93 53.11 54.20 54.15 51.44 50.76 48.14 49.80 52.18 52.71
58.32 58.04 58.14 58.30 58.54 58.39 57.83 57.20 57.06 56.92 57.24 57.79 57.93 59.13 58.76 58.42 59.17 58.93 58.14 58.34 57.34 55.85 54.52 53.28 52.44 52.77 53.57 50.96 47.33 46.31 48.01 49.36
58.51 57.64 57.50 57.90 58.58 57.65 56.60 55.35 54.41 55.83 56.14 57.00 57.36 57.68 57.45 57.21 58.22 57.95 57.77 58.20 56.31 55.58 56.60 54.61 54.56 51.63 52.36 54.31 53.93 53.33 48.57 47.00
57.50 57.07 57.22 57.41 57.95 57.31 56.28 54.98 55.61 55.62 56.22 55.79 56.75 56.83 56.79 57.06 57.22 57.38 56.72 57.02 56.81 57.18 56.82 56.44 56.32 54.48 52.25 52.99 52.41 53.07 53.02 49.94
57.06 56.71 56.68 57.05 57.63 57.45 56.43 55.09 54.72 53.60 54.50 55.69 56.28 56.23 56.55 57.54 56.51 58.31 58.24 57.05 57.47 57.24 57.41 57.18 56.94 56.78 55.20 54.32 53.37 52.01 51.47 50.90
56.46 55.90 55.62 56.79 56.73 57.01 56.32 55.56 54.92 53.65 53.83 54.91 55.38 55.53 55.88 56.10 57.62 57.01 57.16 57.57 57.62 57.48 57.43 56.68 56.78 56.63 56.66 56.44 56.31 56.33 55.20 53.54
56.94 56.00 55.60 56.87 56.69 56.24 57.11 56.96 55.97 55.41 54.62 55.24 56.12 56.09 56.18 56.52 57.00 58.35 58.04 56.79 57.07 57.68 57.48 56.95 57.19 57.23 56.64 56.78 57.13 56.78 57.07 56.00

GFSFLT2_sfc_wetblb_072.txt.gz
Wetbulb
66.54 66.72 67.36 67.36 68.08 67.63 67.56 68.31 68.85 68.30 67.47 68.48 67.73 68.46 68.57 69.46 69.58 69.32 68.91 68.36 68.30 67.58 67.02 66.13 65.68 64.86 64.46 63.45 62.83 62.45 58.81 58.59
65.15 64.97 63.69 63.38 64.27 66.22 66.35 67.34 66.29 65.93 66.38 64.52 65.22 67.02 67.74 68.36 68.63 68.42 68.10 67.62 67.39 67.16 66.09 65.49 64.58 64.49 63.36 62.88 62.55 62.03 57.62 57.34
63.95 63.49 64.05 63.47 63.67 65.27 66.36 66.69 66.40 66.06 65.75 64.00 64.56 65.57 66.71 67.09 66.92 67.09 66.93 66.16 66.31 66.22 65.30 64.38 63.70 63.86 63.26 62.61 61.41 58.78 58.36 57.91
62.84 62.63 62.41 63.72 63.75 64.19 63.52 64.52 63.84 63.18 62.29 63.55 61.61 60.60 66.07 65.52 65.88 65.95 65.73 65.49 65.51 65.19 64.41 63.54 61.05 59.95 61.01 60.93 58.17 58.50 58.25 57.79
62.28 61.68 61.66 63.14 61.92 62.22 61.46 60.72 61.77 60.83 61.75 61.97 60.41 61.81 65.19 65.16 64.47 64.12 63.63 64.45 62.84 61.95 61.42 58.34 56.41 56.04 57.27 57.19 57.77 57.61 58.04 58.38
61.83 61.65 61.43 59.95 60.82 61.20 59.92 60.49 59.71 59.97 60.54 61.67 60.83 62.93 64.40 63.83 63.06 62.43 62.38 61.71 59.82 59.10 57.13 55.36 55.34 56.28 57.73 57.27 57.21 57.34 57.28 58.16
61.13 61.36 62.55 62.28 61.99 60.16 59.44 59.09 59.39 59.32 59.63 60.83 64.22 64.00 63.24 62.89 62.12 61.43 60.77 60.08 58.85 56.69 55.28 54.34 54.76 56.75 57.99 57.08 56.56 56.85 56.92 57.87
59.98 61.33 62.34 61.50 59.61 59.53 60.79 60.79 61.38 59.92 59.66 60.18 63.51 63.72 62.37 61.49 60.84 59.53 58.61 57.71 57.58 56.83 54.71 53.25 53.61 55.49 57.37 57.11 56.60 56.69 56.97 56.54
59.51 59.91 61.90 60.79 59.06 59.35 60.78 59.78 62.06 61.73 61.41 61.26 63.71 62.80 61.00 60.05 58.46 57.47 57.46 56.17 54.39 53.76 54.15 52.64 53.09 55.64 57.44 57.03 56.58 56.35 56.44 56.15
59.47 61.12 59.46 59.51 59.79 59.41 60.92 61.30 62.16 62.41 63.14 62.79 63.37 61.44 59.72 58.25 57.07 56.87 56.90 55.00 54.99 55.04 54.64 53.11 52.99 54.59 56.01 56.69 55.99 56.03 56.20 56.35
58.98 60.43 59.71 58.17 60.85 60.51 60.18 60.57 61.63 62.23 62.65 62.45 62.84 60.95 59.08 57.53 57.08 57.20 56.43 55.26 54.47 55.46 54.49 53.63 52.57 53.28 55.67 56.81 56.43 55.21 55.21 56.73
59.91 60.00 59.40 56.84 57.78 60.03 60.47 59.85 59.99 60.26 62.12 62.17 62.41 61.91 59.77 58.23 57.93 58.74 57.08 55.76 54.99 55.76 54.52 53.52 54.02 53.40 56.16 55.21 56.26 55.99 55.31 55.20
58.24 58.99 58.74 58.08 58.50 58.08 58.43 58.31 58.97 59.35 60.78 60.74 60.05 62.01 61.36 58.47 58.26 59.45 57.66 56.94 56.69 56.73 55.13 54.39 53.53 53.55 51.95 51.03 52.40 55.06 55.44 55.10
57.93 58.33 58.83 58.67 58.04 58.30 57.67 58.05 59.22 59.58 59.89 60.49 60.20 60.20 61.30 59.71 58.44 59.37 59.36 57.80 57.11 56.27 54.45 53.85 53.47 54.11 52.99 50.88 48.38 49.90 52.46 54.15
58.31 58.12 58.60 58.55 58.58 57.48 56.36 57.40 58.11 58.11 58.51 58.87 59.55 59.94 59.31 60.63 59.61 59.55 58.51 58.88 56.83 55.52 54.11 54.00 51.11 51.80 53.69 51.36 46.69 46.97 49.06 50.70
57.78 57.76 58.07 58.23 58.40 57.22 55.72 55.29 55.12 56.96 57.68 58.64 58.58 59.30 58.53 58.62 59.54 58.88 57.66 59.06 57.44 56.58 55.90 53.61 53.23 52.25 50.85 52.39 51.83 51.17 48.41 46.62
56.94 56.96 57.12 57.17 57.83 57.13 56.26 55.84 56.16 56.87 57.38 57.40 57.78 58.15 57.53 57.46 58.43 58.27 57.32 58.18 57.45 56.64 56.26 54.90 53.37 51.45 50.19 51.00 51.81 53.13 52.55 48.66
56.36 55.66 55.86 56.78 57.63 57.08 56.20 55.46 55.38 55.11 55.54 55.72 56.20 57.09 56.68 56.65 57.45 57.74 57.53 57.70 57.34 56.94 57.25 56.05 55.07 53.85 52.46 52.66 52.28 51.42 50.73 49.81
56.25 55.76 55.38 55.96 56.71 56.75 56.29 55.50 55.30 54.81 55.30 55.08 55.41 55.40 56.19 56.08 56.35 57.31 57.23 57.42 58.00 57.66 57.01 56.88 55.97 55.09 54.05 53.59 55.21 53.60 53.42 52.36
56.43 55.92 55.31 55.84 56.84 56.74 56.85 56.13 55.60 54.26 54.36 55.28 55.12 55.77 56.27 56.89 57.03 57.16 58.02 57.41 57.28 57.78 57.25 56.40 55.58 55.38 56.04 55.42 55.80 56.28 55.84 55.58

GFSFLT2_sfc_wetblb_075.txt.gz
Wetbulb
66.39 68.19 70.22 69.92 69.18 69.31 68.05 68.20 68.53 68.57 68.54 67.57 67.54 67.92 68.60 68.97 69.16 69.05 69.18 68.90 68.42 67.79 67.45 65.93 66.47 65.81 64.83 63.69 62.97 62.73 58.23 59.94
64.63 64.73 64.29 65.09 66.03 66.62 66.69 67.00 66.47 66.66 66.17 63.59 63.14 66.53 67.43 67.50 68.00 68.49 68.24 68.45 67.88 67.21 65.94 65.71 65.96 64.96 64.06 63.06 62.53 61.47 57.22 57.08
63.29 62.89 62.32 62.62 65.17 66.54 67.05 67.29 65.64 65.75 66.08 65.59 64.24 65.16 65.86 66.22 66.81 67.59 67.13 66.92 66.62 66.16 64.96 64.73 64.41 64.11 63.43 62.75 61.37 57.91 57.02 56.44
63.39 63.44 61.54 61.82 64.57 65.43 65.85 65.50 64.52 64.04 64.44 64.24 63.82 64.67 65.08 65.39 65.40 66.28 65.99 65.88 65.61 65.16 63.95 64.11 62.82 61.14 61.25 61.07 57.82 57.47 56.80 55.89
62.56 63.51 62.56 62.74 62.42 62.87 63.64 64.84 63.92 63.39 63.41 62.90 62.91 62.25 64.12 65.35 64.76 64.63 63.99 64.91 63.08 62.18 60.78 60.59 59.86 59.16 57.32 57.04 57.20 57.27 56.39 56.17
62.33 61.99 62.86 62.47 62.26 62.09 61.24 62.31 62.20 61.26 61.11 62.62 60.31 59.87 61.98 63.73 64.18 62.81 62.41 62.30 60.68 59.67 56.95 57.43 57.63 57.50 57.08 56.79 56.73 56.82 56.25 56.85
62.34 62.65 60.48 59.95 60.16 60.30 59.94 60.51 60.98 61.03 61.06 61.15 59.91 60.75 62.39 63.84 63.07 61.98 61.55 60.90 59.15 57.74 55.69 56.16 56.43 56.76 56.52 56.63 56.29 56.79 56.62 57.44
62.00 62.64 62.33 60.73 61.28 59.99 59.97 59.71 60.13 60.19 60.07 61.16 60.47 62.23 63.59 63.28 62.16 61.03 60.33 59.82 58.02 56.70 54.98 54.88 56.26 56.58 55.79 56.29 56.72 56.54 56.33 56.27
59.87 62.12 61.44 59.92 60.56 59.71 60.95 60.24 60.92 59.19 59.84 60.05 61.53 62.27 63.63 62.61 61.46 59.76 58.53 57.41 56.65 54.46 53.70 53.50 54.80 56.35 55.77 56.38 56.78 56.51 55.89 55.54
59.33 61.52 59.63 58.44 57.42 58.88 59.96 60.74 61.10 61.47 60.30 59.94 60.56 62.62 63.08 61.90 60.46 58.49 57.32 55.23 54.60 54.78 53.26 52.77 54.24 55.92 55.28 55.60 56.00 56.57 55.75 55.18
58.13 58.65 58.03 58.17 57.68 59.05 60.29 60.72 61.31 62.02 62.20 60.90 60.93 61.89 61.35 60.15 58.83 57.72 55.49 54.63 54.75 54.23 52.58 53.10 53.36 54.60 54.69 54.58 54.01 54.96 55.47 56.35
58.20 58.38 58.21 59.57 60.06 59.49 59.71 59.73 60.38 61.70 62.16 61.34 60.64 60.15 59.52 58.08 57.25 55.95 55.60 53.83 52.78 53.50 53.05 52.42 53.21 54.70 56.05 54.25 53.45 53.61 55.10 55.16
57.84 57.36 57.10 58.38 58.97 58.73 57.48 57.99 58.71 60.00 61.40 61.83 60.86 59.48 58.59 57.07 57.12 55.84 55.70 53.01 53.46 54.06 53.19 52.35 51.28 52.72 51.71 51.35 51.70 53.10 53.47 53.95
57.78 56.96 57.30 58.57 58.36 58.32 58.52 58.33 58.93 59.63 60.35 60.49 61.78 60.22 58.75 57.29 57.48 55.91 55.63 53.91 54.16 54.36 53.76 52.63 52.99 53.38 51.99 51.61 48.59 51.10 52.93 54.01
57.20 56.66 56.94 57.70 57.88 57.72 57.34 57.94 58.35 58.01 58.57 59.37 59.94 61.30 59.76 57.79 58.04 57.12 56.22 55.61 55.49 55.63 54.52 54.36 52.12 52.10 53.24 51.63 47.48 47.90 50.40 51.06
57.48 57.93 56.92 57.30 57.81 56.75 56.32 56.01 55.82 57.15 58.46 59.15 59.43 60.26 60.45 59.00 58.51 58.78 58.44 57.35 56.64 56.19 55.19 54.85 53.76 52.50 50.23 52.04 51.46 50.39 49.57 46.26
57.95 57.36 57.78 57.38 56.62 56.56 56.26 55.46 55.78 57.02 57.73 57.92 58.35 58.55 59.03 59.70 59.18 57.99 57.86 58.61 57.36 56.91 54.89 53.56 53.36 53.79 50.62 49.90 50.80 51.93 50.58 48.61
56.66 56.01 56.13 56.97 56.00 55.66 55.38 55.38 55.44 54.39 56.46 56.76 57.36 57.52 57.08 57.86 58.68 58.56 57.92 57.82 57.06 56.36 56.42 55.44 53.68 53.73 53.95 51.72 51.34 51.15 50.52 50.21
55.99 55.78 55.01 56.21 56.04 54.98 54.32 54.69 55.40 55.33 55.84 56.30 56.20 56.76 57.00 56.68 57.70 57.76 57.46 57.89 57.91 57.38 56.32 56.16 55.60 54.91 53.36 52.76 53.38 52.61 53.13 52.32
56.04 55.47 55.13 55.93 56.58 55.86 54.78 54.77 55.90 55.68 55.77 56.13 56.33 56.60 57.27 57.56 56.58 57.48 57.48 57.57 57.69 57.58 57.16 56.54 56.32 55.52 54.89 54.52 54.62 53.86 54.66 53.63

GFSFLT2_sfc_wetblb_078.txt.gz
Wetbulb
66.66 68.93 69.85 69.82 69.37 69.28 68.59 69.00 68.92 69.24 68.87 68.13 67.39 67.08 68.18 68.47 68.95 69.74 69.60 69.06 68.99 68.64 67.92 67.39 67.18 66.35 65.48 64.27 63.59 63.44 61.26 62.07
64.70 68.17 69.05 69.10 69.51 68.38 66.76 67.77 67.14 66.34 66.05 65.83 65.18 64.16 65.28 67.24 67.11 67.96 68.36 68.68 68.41 67.86 67.18 66.76 66.26 65.13 64.30 63.50 62.98 62.16 59.72 60.94
63.13 64.37 65.53 65.99 66.76 67.30 67.36 67.34 66.63 66.07 65.87 65.18 64.36 64.02 64.86 65.22 66.43 66.77 67.91 67.02 67.35 66.37 66.18 65.88 65.03 64.32 63.73 62.96 61.47 58.13 58.67 58.64
64.24 63.88 61.43 61.89 64.83 65.15 66.34 66.36 65.37 64.41 63.53 62.65 62.37 63.29 63.40 64.32 65.01 66.12 66.19 66.00 65.86 65.32 65.64 64.74 63.15 61.31 61.35 61.00 58.38 57.61 57.38 57.52
63.08 63.92 62.03 62.71 63.98 64.60 65.62 64.86 63.82 63.88 63.16 62.30 62.39 63.25 64.13 64.33 64.30 64.79 64.84 65.03 62.80 62.56 63.30 61.26 60.13 59.90 56.67 57.31 57.66 57.30 56.30 56.84
62.47 63.33 63.43 62.77 63.09 63.42 63.22 64.02 63.69 63.08 63.64 63.42 62.71 63.36 63.66 63.07 63.43 63.61 63.52 62.61 59.84 59.83 60.63 59.27 59.07 57.73 56.93 57.36 56.98 56.69 55.93 56.35
61.71 62.66 62.95 62.46 62.38 61.89 61.95 62.61 62.83 62.67 63.05 62.48 62.13 62.28 62.62 63.46 63.07 62.83 62.90 61.09 59.10 55.99 57.02 57.61 56.00 56.57 56.74 57.03 56.96 56.50 56.51 56.88
62.24 62.29 62.33 60.65 61.06 60.84 61.06 61.30 61.85 61.56 61.89 62.46 61.14 61.06 61.39 62.13 62.41 62.23 61.47 60.35 58.29 55.54 56.36 56.57 55.96 56.42 56.03 56.85 56.78 56.47 56.95 57.34
62.02 62.33 61.16 58.95 59.60 60.33 59.87 59.63 60.19 59.83 60.91 61.43 60.36 60.67 61.41 63.02 62.38 61.56 60.81 59.98 57.20 54.30 54.12 55.77 55.90 56.51 55.81 56.09 56.57 56.80 56.85 56.91
61.51 62.04 60.55 58.11 58.84 60.35 60.71 60.26 59.81 59.08 59.67 60.80 60.82 60.98 63.17 63.25 62.20 60.87 59.56 58.68 57.30 54.81 54.09 54.49 55.07 54.66 54.58 55.25 56.12 56.53 56.75 56.71
59.27 60.81 59.41 56.97 57.09 59.14 59.76 60.48 60.90 61.40 60.27 60.21 61.07 61.31 61.83 62.71 61.54 59.57 57.80 57.22 57.14 54.88 53.21 54.81 54.85 54.55 54.47 54.60 54.46 55.57 55.77 56.62
59.36 59.87 58.37 57.47 58.01 58.84 59.86 59.98 60.70 61.00 61.48 60.62 60.42 61.00 62.10 61.98 60.26 57.76 57.67 56.36 54.92 54.00 52.47 52.02 54.69 54.47 54.90 53.45 53.25 53.95 55.09 55.62
58.28 58.68 58.87 58.15 57.40 57.25 57.93 57.59 58.90 60.16 61.49 62.16 61.05 60.96 61.82 60.48 58.19 56.73 56.68 54.66 54.92 54.08 52.45 52.28 51.97 54.07 52.59 52.03 52.06 52.75 53.53 54.15
57.80 58.39 57.86 58.15 58.99 58.52 58.40 58.32 58.77 59.76 60.64 60.03 59.49 58.82 58.70 58.09 56.82 56.39 55.44 54.25 54.26 53.87 53.28 51.53 51.96 54.42 51.71 50.93 49.58 51.45 52.73 53.95
57.63 57.60 57.41 57.35 58.59 57.86 57.53 57.79 58.35 58.21 59.24 60.04 59.51 59.11 58.44 57.92 57.16 56.51 54.31 54.25 53.97 54.49 53.48 52.32 52.40 53.19 54.66 51.34 48.19 48.10 50.95 52.26
57.62 56.87 56.43 57.70 57.99 57.09 56.49 55.65 55.82 57.12 58.61 59.54 60.14 59.27 58.08 57.62 57.31 55.74 54.42 54.06 54.22 55.04 54.94 54.01 53.91 53.03 51.48 52.59 52.78 51.80 49.90 46.88
56.34 56.06 56.44 56.93 57.07 57.01 53.78 54.77 55.53 57.28 58.09 58.47 58.84 59.71 58.63 57.69 58.26 56.72 55.61 55.31 55.65 55.63 54.52 53.95 54.04 53.89 51.90 51.17 51.17 51.62 51.06 48.71
56.56 57.33 57.21 56.82 56.38 56.54 53.59 54.68 55.41 55.16 55.76 57.17 57.51 57.91 58.85 57.97 58.44 58.11 58.09 57.27 56.61 56.36 55.23 54.42 53.80 54.09 54.24 52.04 51.92 50.90 49.86 49.45
57.04 56.25 55.57 55.68 55.57 55.61 55.27 53.39 54.15 53.29 55.99 56.75 56.99 56.87 56.65 57.99 58.11 57.98 57.94 57.73 56.78 56.64 55.99 55.33 54.34 53.58 53.21 52.78 53.00 52.92 53.39 52.15
56.13 55.50 55.20 55.55 55.03 55.07 54.19 53.17 53.62 53.85 55.59 56.44 57.08 57.12 57.30 57.29 58.24 58.09 57.53 57.72 57.96 57.00 56.34 55.88 55.97 55.40 54.93 54.12 53.58 53.53 53.97 53.58

GFSFLT2_sfc_wetblb_081.txt.gz
Wetbulb
68.64 70.22 71.03 69.72 68.92 69.49 69.36 69.31 69.72 69.30 69.59 70.14 68.58 67.09 67.77 67.93 67.73 68.55 69.33 69.57 68.82 69.11 68.64 68.01 67.96 67.07 66.10 64.93 64.57 65.55 67.17 66.95
69.81 69.52 70.14 71.94 71.96 68.57 68.44 68.66 68.23 68.05 67.89 67.00 66.22 65.97 65.50 66.08 67.04 67.62 67.95 69.22 68.57 68.50 67.92 67.45 66.83 65.92 64.91 64.07 63.91 64.48 66.41 66.25
69.76 68.48 69.62 70.91 70.55 70.23 68.57 68.43 67.34 67.13 67.65 66.02 65.55 66.46 65.91 65.84 66.28 66.69 66.95 67.33 67.37 67.30 67.14 66.24 65.39 64.69 64.31 63.61 63.32 65.29 65.42 65.22
67.58 66.71 67.76 68.22 67.46 68.87 69.79 69.42 68.92 66.15 66.15 65.72 66.22 66.09 66.32 64.91 64.70 65.60 66.21 66.35 66.40 66.24 65.93 64.75 64.93 65.60 64.38 62.27 64.36 64.36 64.01 63.99
66.48 66.28 66.13 66.44 66.82 67.27 66.90 67.09 67.11 64.98 64.46 64.04 65.47 65.61 65.25 64.39 64.90 65.88 65.79 66.01 66.42 66.52 65.64 65.84 65.99 65.30 64.01 63.93 63.65 63.65 63.20 63.16
65.17 65.48 65.44 65.95 66.37 65.29 65.63 65.41 65.78 64.18 63.76 64.04 64.97 64.97 64.88 65.22 65.68 65.59 64.54 64.16 64.68 66.36 65.62 65.20 64.73 64.02 63.53 62.75 62.75 62.68 62.58 62.13
64.22 64.73 65.04 65.30 64.97 64.81 65.07 65.13 64.50 64.74 64.03 63.38 65.06 64.39 64.82 65.07 65.08 65.40 63.86 62.86 63.22 65.09 64.39 63.82 63.31 62.88 62.93 62.41 61.88 61.69 61.32 61.65
63.78 63.89 64.61 65.23 64.77 64.26 64.09 64.51 64.64 63.99 63.94 64.13 63.55 63.80 65.02 65.17 64.88 64.93 64.01 61.51 62.43 64.50 63.64 62.83 62.53 62.45 62.03 61.93 61.47 61.37 61.48 61.13
62.73 63.58 65.28 63.89 63.11 64.11 63.49 62.76 62.83 62.80 63.40 64.08 63.22 63.54 63.60 63.94 64.22 64.01 64.11 61.12 60.12 62.93 62.76 62.56 61.67 61.71 61.32 61.23 61.05 60.97 60.23 60.81
63.19 63.94 64.03 63.61 62.94 62.79 62.08 61.69 60.98 61.14 62.04 62.63 62.61 62.88 63.94 64.27 63.72 63.30 63.28 60.77 59.26 60.80 61.25 60.69 60.95 60.43 60.06 60.22 60.37 60.32 60.82 61.53
62.58 63.23 63.25 61.92 61.96 62.00 62.29 61.98 61.90 60.84 61.23 61.62 61.51 61.90 63.04 63.14 63.22 63.17 62.67 59.60 59.01 59.90 60.03 60.13 59.12 59.48 59.41 59.80 59.92 59.85 60.69 60.88
62.12 62.35 63.05 61.50 60.95 61.21 61.09 61.52 61.88 62.37 61.31 61.34 62.16 62.26 62.16 62.96 62.30 60.71 60.85 59.23 58.73 58.73 59.12 59.94 59.69 59.58 58.44 58.47 59.29 60.06 60.72 60.50
60.40 60.96 60.38 59.50 58.85 59.15 59.28 59.18 60.70 61.40 61.99 62.72 61.93 61.65 62.03 61.25 61.20 59.33 59.79 58.99 58.39 58.62 58.71 58.57 58.62 60.02 57.69 56.62 57.57 58.77 59.07 59.44
59.49 60.15 60.15 59.38 59.64 59.58 59.27 59.78 60.45 61.17 62.55 62.20 62.32 60.86 61.61 61.64 58.71 59.22 58.98 58.36 59.22 58.07 58.35 57.97 58.13 58.86 57.11 56.33 52.47 55.02 57.40 58.42
59.15 59.47 60.00 59.51 60.26 60.94 59.54 59.74 59.97 59.67 59.90 59.55 58.74 60.51 60.97 59.77 58.78 58.35 57.88 58.73 57.53 57.74 58.47 58.51 56.32 57.97 59.27 57.55 52.56 52.75 55.13 57.57
59.44 59.26 59.24 59.12 61.55 60.23 58.20 57.40 57.23 58.84 59.86 60.20 58.96 59.02 58.47 58.27 57.80 57.33 56.59 58.24 57.47 57.29 57.30 58.33 58.77 56.34 57.90 57.34 59.79 58.37 54.93 53.28
58.65 58.22 58.81 59.21 60.87 60.43 58.72 57.62 58.34 59.17 59.20 59.26 59.41 58.52 58.80 57.87 56.93 55.46 56.08 56.75 57.30 56.94 56.59 57.04 58.67 58.55 57.45 56.75 56.52 57.00 58.18 56.03
57.47 57.02 57.46 58.24 59.51 59.16 58.35 59.03 57.88 57.49 58.40 58.22 58.18 58.86 58.38 58.34 57.34 56.59 55.84 56.26 56.74 57.44 57.25 57.20 57.30 58.05 57.22 57.23 56.11 55.05 53.98 54.59
56.58 56.95 56.31 57.24 57.85 57.60 57.63 59.18 58.33 57.53 57.92 58.18 57.95 58.00 57.90 57.33 57.48 56.49 56.43 56.56 57.28 58.44 58.12 57.74 57.89 58.02 58.63 57.20 57.69 56.85 56.60 56.12
57.99 59.11 57.50 56.55 56.86 56.87 56.78 59.03 58.92 58.28 59.09 58.80 58.68 58.78 59.20 58.65 58.52 57.48 57.06 56.98 57.15 57.38 56.88 57.61 58.65 58.08 58.30 59.16 57.80 57.35 56.76 55.97

GFSFLT2_sfc_wetblb_087.txt.gz
Wetbulb
74.01 73.05 71.63 69.67 69.64 69.92 70.11 70.68 70.84 70.95 70.11 70.69 70.07 69.69 69.61 69.87 69.65 69.63 69.32 68.89 68.73 69.07 69.30 69.11 69.02 67.46 67.06 66.56 66.72 65.71 68.35 68.53
73.73 73.74 73.24 72.90 72.23 68.92 69.50 70.33 70.23 70.22 70.42 68.76 68.54 68.62 69.13 68.61 68.65 68.74 68.39 67.92 68.51 68.68 68.25 68.38 67.24 66.72 66.05 65.76 64.59 65.14 67.85 67.66
73.27 72.32 73.11 73.06 71.82 71.55 69.84 69.81 69.49 68.65 69.28 67.73 67.32 70.57 70.32 68.66 67.76 67.58 67.48 67.01 67.66 68.36 67.68 67.03 65.89 65.38 65.19 65.34 65.03 67.87 67.12 65.65
72.89 71.68 71.40 72.04 71.60 72.51 72.02 71.20 71.54 71.45 71.00 70.96 70.44 70.79 70.22 68.94 67.40 66.50 66.59 66.52 67.18 67.41 66.90 65.89 65.83 68.41 67.48 64.96 67.95 67.43 65.91 65.16
72.19 72.28 71.78 72.13 71.23 72.31 71.78 71.45 72.08 71.73 71.80 71.33 71.16 70.78 70.09 68.93 66.88 67.04 67.16 66.85 66.54 67.03 66.47 67.21 68.05 68.29 68.33 68.18 66.97 66.23 65.64 64.55
71.52 72.39 70.70 72.21 71.57 70.87 70.94 71.29 71.69 71.06 70.68 71.06 70.85 69.91 69.15 68.11 67.36 66.81 67.09 68.49 67.24 65.85 65.91 67.16 68.05 67.54 67.59 67.05 65.85 66.28 66.30 65.73
71.03 71.24 71.05 71.55 70.70 69.69 70.12 70.30 70.02 69.61 70.70 70.26 70.90 69.41 68.52 68.03 66.93 67.12 67.54 68.35 65.50 63.48 64.19 66.22 67.38 67.18 66.87 66.41 63.96 65.81 65.06 65.31
71.14 70.62 70.91 71.07 70.26 69.20 68.08 69.13 68.71 68.44 68.63 69.45 69.65 69.60 68.52 67.87 67.12 66.95 67.65 67.68 66.44 63.40 63.90 64.52 67.00 66.89 65.68 65.19 65.00 64.86 64.56 64.16
70.30 70.55 70.84 70.51 69.99 70.09 68.07 68.72 67.07 66.83 67.25 69.40 68.92 68.32 67.77 67.77 67.14 67.35 65.99 66.38 66.77 63.47 63.42 64.06 65.30 65.11 63.58 64.43 64.05 64.24 63.47 63.04
69.43 70.13 70.08 70.18 70.20 69.86 68.95 66.84 66.66 67.31 68.11 68.44 68.13 67.29 67.36 67.34 66.69 66.57 66.83 65.60 65.43 62.67 62.96 62.10 62.63 62.91 62.88 62.09 63.44 63.10 62.88 62.63
68.01 70.11 69.15 69.50 69.92 69.46 68.82 67.39 66.33 66.96 67.95 67.14 66.66 66.49 66.42 66.38 66.07 65.76 65.65 64.94 64.52 63.54 62.43 62.01 62.15 61.83 61.99 62.57 62.53 61.45 61.81 61.60
68.05 69.65 68.88 69.21 69.23 67.57 67.06 65.19 65.50 65.50 65.49 65.70 66.32 65.56 65.11 64.85 64.32 64.20 63.85 64.21 64.17 63.31 61.65 61.84 62.42 61.99 61.06 61.10 61.96 61.96 61.91 61.27
67.84 68.58 68.37 68.94 66.46 64.33 64.36 62.61 64.22 63.98 64.43 64.84 64.81 65.09 64.58 64.28 63.96 63.77 63.05 63.31 62.66 62.64 61.57 60.31 60.03 61.21 59.72 59.60 60.28 60.95 61.31 61.10
67.71 67.99 68.15 67.53 66.06 66.12 65.46 64.78 64.16 65.25 65.19 64.26 64.13 63.39 63.47 62.93 62.96 62.76 62.25 61.95 61.43 61.16 60.85 59.70 60.02 61.50 59.21 57.39 54.47 56.29 59.23 60.56
67.09 67.77 68.00 67.29 66.84 66.50 65.47 64.71 63.77 63.17 62.49 63.31 65.70 65.39 65.39 64.65 64.06 62.82 61.32 62.12 60.41 60.26 60.75 59.81 57.77 60.36 61.84 58.29 53.86 52.88 56.54 59.17
67.07 67.71 67.52 67.11 67.14 65.55 64.04 62.21 61.04 62.51 62.83 64.03 64.58 64.79 64.38 64.49 63.90 62.62 61.75 60.85 59.80 60.13 61.03 60.42 59.81 59.31 59.95 60.35 60.60 59.46 55.39 54.37
66.91 66.94 66.55 66.59 66.31 65.65 63.97 62.95 62.82 63.15 63.25 62.64 62.78 62.82 62.09 62.54 61.51 61.31 60.39 60.30 59.76 59.96 59.29 60.15 60.42 60.87 59.13 60.20 60.00 60.38 59.81 56.95
66.76 65.48 65.91 65.06 65.85 65.27 64.55 63.26 62.37 61.61 61.94 61.70 60.85 61.26 60.08 59.13 59.07 60.34 60.27 59.43 58.82 59.28 59.26 59.48 60.42 60.96 60.54 60.75 59.72 58.06 58.32 57.99
65.40 64.26 64.22 63.99 64.96 65.08 64.34 63.37 62.51 61.58 61.73 61.24 59.49 58.99 58.53 57.43 57.27 57.29 58.60 59.05 58.86 59.32 59.45 60.11 61.04 60.44 60.82 59.88 61.53 60.93 60.89 60.09
62.98 61.77 61.42 62.16 64.36 64.81 63.97 62.98 62.17 61.28 62.49 60.61 60.27 59.29 59.18 58.18 57.20 56.85 57.57 58.17 58.49 58.77 59.35 59.88 60.78 61.11 60.75 60.75 60.22 60.72 61.44 60.19

GFSFLT2_sfc_wetblb_090.txt.gz
Wetbulb
72.04 71.12 71.00 70.37 69.74 70.34 70.43 70.93 70.94 71.63 71.87 71.88 71.59 70.70 70.39 70.38 70.05 69.81 69.55 68.48 67.53 67.76 68.71 68.18 68.56 67.27 68.11 67.06 65.26 66.04 66.89 67.02
72.85 72.26 71.40 70.75 70.52 69.11 70.06 70.48 70.64 70.52 70.98 69.79 68.90 69.43 69.54 69.40 69.04 69.15 68.86 68.51 67.97 68.33 68.68 68.62 67.88 66.83 66.42 65.58 65.36 66.24 65.87 66.91
73.51 72.61 71.99 72.08 71.64 70.26 69.63 70.45 70.03 69.44 69.33 68.46 67.36 69.97 69.48 68.17 68.05 68.00 68.43 67.69 67.91 68.41 68.15 67.61 66.76 66.45 65.80 65.17 64.69 65.39 65.97 65.88
72.14 71.89 72.21 71.82 70.65 70.63 70.18 70.34 70.12 70.37 70.40 69.33 69.96 69.77 69.34 68.58 67.28 66.75 66.29 66.68 66.94 66.86 67.12 66.62 66.25 66.00 65.06 64.63 64.84 64.77 64.73 65.32
71.41 70.83 71.13 71.05 70.11 71.01 70.14 70.37 69.92 70.00 69.96 69.85 68.74 69.01 68.72 67.95 66.94 66.25 65.48 66.29 65.93 66.45 65.90 66.13 66.37 66.36 65.70 65.10 65.18 64.40 64.32 64.32
71.24 71.03 70.10 70.69 70.74 70.28 70.63 70.08 70.21 70.26 70.12 69.77 68.95 68.16 67.56 67.23 66.70 65.92 64.85 65.27 65.11 65.22 65.49 65.75 65.69 66.31 65.63 65.25 64.13 64.44 63.27 64.15
70.06 71.18 70.12 70.74 70.72 69.80 69.70 70.14 70.29 69.98 69.79 69.49 68.95 67.53 66.80 66.91 66.62 66.03 65.32 65.71 64.98 64.91 64.65 63.99 64.17 65.57 65.45 64.37 63.73 62.92 64.18 63.32
70.10 70.59 70.39 70.47 70.23 69.62 69.21 69.49 69.48 69.39 69.20 68.83 68.47 67.52 66.76 66.52 65.84 65.14 65.31 65.58 64.62 64.19 63.36 62.75 63.27 64.45 64.61 64.19 63.35 62.89 63.15 62.42
69.75 69.48 70.40 69.67 69.72 68.72 67.79 68.17 68.05 67.72 67.95 68.57 67.59 67.19 66.53 65.84 65.27 64.93 64.89 65.47 64.49 63.09 62.80 62.72 62.45 64.01 63.63 63.30 63.73 62.18 62.19 61.29
69.72 69.71 69.43 69.52 68.70 68.58 67.29 66.99 67.68 67.45 66.94 67.34 67.32 66.99 66.18 65.74 64.71 64.58 65.27 64.93 64.11 62.36 62.16 61.92 62.66 63.02 62.23 62.34 61.06 60.95 59.78 60.49
68.88 69.04 68.96 69.07 68.97 69.38 67.84 66.93 66.64 66.39 66.73 66.69 66.43 66.47 66.08 65.29 64.54 64.82 64.65 64.34 63.52 62.45 61.66 61.36 61.02 61.18 61.31 59.74 59.62 59.78 58.92 59.63
68.99 68.81 68.79 68.94 68.70 68.45 67.63 66.08 65.48 65.84 65.22 65.78 65.92 65.94 65.53 65.02 64.42 64.23 64.17 63.17 62.86 62.41 61.66 61.61 61.00 60.94 61.71 59.50 58.83 58.06 57.99 57.43
68.58 68.12 67.97 67.97 67.44 65.72 64.86 63.46 63.58 63.63 64.25 64.98 65.13 65.53 64.76 64.51 63.58 63.77 63.60 62.71 62.31 62.30 61.37 59.80 60.01 61.24 59.00 56.42 57.90 58.14 57.26 56.92
67.86 68.18 67.50 67.32 67.65 65.66 64.99 64.05 63.52 63.16 62.93 63.08 64.43 65.09 64.20 63.37 63.00 62.54 62.47 62.10 62.17 61.67 60.61 59.04 59.26 60.38 57.33 55.61 52.87 55.12 57.66 57.68
67.17 67.80 67.01 67.23 67.15 65.35 64.72 63.91 63.31 62.51 62.43 62.73 62.95 63.28 63.76 63.35 62.90 62.69 62.25 62.17 61.64 61.51 60.75 58.83 57.48 59.34 59.55 55.40 52.12 50.59 54.27 57.25
66.63 67.78 66.47 67.14 66.19 64.96 63.13 61.53 60.10 61.36 61.52 62.30 63.03 64.01 63.27 63.13 62.91 62.79 62.24 61.89 61.25 61.17 61.47 60.00 58.67 57.33 58.50 58.58 56.87 55.93 52.35 52.32
65.28 67.19 66.65 66.31 64.97 65.48 63.58 61.87 61.54 61.60 61.99 61.88 62.58 62.47 63.05 62.71 62.90 62.49 61.80 61.16 60.80 61.13 60.62 59.98 59.33 58.25 57.56 57.10 55.87 56.47 56.00 53.97
64.84 65.99 65.66 66.18 65.29 65.39 63.40 62.31 61.25 60.56 60.51 60.89 60.88 60.43 59.74 59.22 60.31 61.18 61.20 61.16 60.12 60.47 60.86 60.36 59.35 58.94 58.69 57.66 56.32 54.44 54.80 54.80
64.69 65.06 64.48 65.35 64.86 64.39 63.53 63.05 62.00 60.89 60.84 60.55 59.63 58.40 58.14 57.58 57.93 59.02 59.98 60.47 60.16 60.18 60.13 60.22 59.35 58.47 58.65 58.08 58.38 57.46 57.80 56.59
64.39 63.99 63.66 63.96 64.27 63.77 63.84 62.97 61.40 60.97 61.28 60.41 59.69 58.97 58.37 58.07 57.53 57.63 58.28 59.18 59.03 59.61 59.51 59.39 58.93 58.27 58.94 58.63 58.31 58.43 57.72 56.83

GFSFLT2_sfc_wetblb_093.txt.gz
Wetbulb
68.60 69.21 70.50 70.21 69.78 70.07 70.26 70.85 70.57 70.54 71.71 71.73 71.74 70.73 70.42 70.75 70.70 70.24 69.77 68.98 68.80 68.53 68.61 68.53 68.84 68.60 67.45 65.68 65.27 66.95 66.11 66.65
68.12 68.24 68.40 67.88 67.83 69.09 69.70 69.93 69.46 70.17 71.38 70.62 69.77 69.67 69.89 69.91 69.54 69.51 69.18 68.66 68.60 68.62 68.24 67.66 68.26 67.72 66.62 65.29 65.66 66.33 65.84 66.13
68.72 68.37 68.13 67.31 67.36 68.75 69.74 70.28 69.69 69.37 69.44 68.78 67.36 68.53 68.46 68.51 67.88 68.57 68.39 67.46 67.82 67.98 67.74 67.74 67.49 67.00 66.47 65.41 65.17 64.93 65.64 65.73
69.48 68.89 68.57 68.46 69.35 67.77 67.04 69.12 68.96 67.97 68.28 67.32 67.54 67.43 67.05 67.22 67.30 67.49 67.31 66.82 66.91 67.53 67.54 66.53 66.73 66.47 65.64 65.86 64.13 64.50 64.44 64.12
69.23 69.11 68.84 68.50 67.55 67.38 67.72 67.56 67.74 67.61 67.47 66.69 66.76 67.25 66.78 65.75 65.68 66.13 65.68 66.71 65.91 65.80 66.00 66.08 65.91 65.13 64.93 64.18 63.72 63.73 64.32 64.19
69.39 68.87 68.21 67.70 66.98 67.83 67.34 67.72 67.11 66.97 66.71 66.96 65.63 66.23 65.83 65.51 64.78 63.95 63.27 64.36 64.04 64.61 64.92 64.82 65.38 65.82 65.26 64.03 63.36 63.44 63.66 64.15
69.12 68.49 68.04 68.35 67.14 67.67 67.25 67.65 67.38 67.45 67.25 66.91 65.90 65.88 65.50 65.62 64.47 64.36 63.93 63.63 63.35 63.46 63.89 64.09 63.87 65.19 65.29 64.34 62.97 62.68 62.40 63.19
69.23 68.34 67.88 68.55 67.92 66.13 65.90 67.83 67.29 66.55 66.62 66.33 65.75 65.54 65.25 64.84 64.45 64.64 64.01 63.96 63.75 63.31 63.55 63.35 62.59 64.01 64.03 63.72 62.51 62.93 62.25 62.45
68.42 68.48 68.35 68.43 68.05 66.11 65.49 65.72 66.51 65.62 65.83 65.88 65.64 65.25 64.51 64.01 63.59 63.57 64.12 64.09 63.08 62.76 62.39 62.29 62.11 63.51 62.84 63.16 62.58 62.56 61.89 61.65
68.02 69.14 68.12 67.79 67.22 66.11 65.34 64.82 64.81 64.73 64.58 64.81 64.92 65.06 64.68 63.43 62.90 62.53 64.23 63.32 62.42 61.81 61.43 61.06 61.06 61.35 61.25 62.54 62.84 61.82 61.08 60.62
66.96 68.28 67.11 67.04 66.55 65.59 64.84 64.39 64.53 64.54 63.88 63.66 64.16 64.48 64.46 63.27 62.69 62.72 63.60 63.00 61.76 61.25 60.95 61.31 60.59 60.85 61.59 62.42 61.11 60.90 60.19 60.61
66.61 67.19 66.95 67.17 66.57 65.40 64.86 64.22 63.20 63.39 63.64 63.27 63.97 64.56 63.55 62.96 62.57 62.41 62.97 62.66 62.24 61.27 60.28 60.93 60.79 60.84 62.25 61.63 59.85 59.33 59.76 59.39
66.06 66.27 66.34 66.43 65.74 64.89 63.79 62.92 63.02 62.28 62.94 64.11 63.99 63.77 62.59 62.13 62.19 61.69 62.83 61.98 61.26 60.93 60.78 60.36 60.06 60.92 59.28 57.35 57.70 56.84 57.60 58.19
65.75 66.17 66.63 66.46 66.14 65.44 64.01 62.68 60.75 61.20 62.79 63.65 63.58 62.64 62.10 62.05 62.16 62.57 62.07 61.00 60.76 61.55 61.12 59.77 59.78 60.99 57.57 55.77 52.93 54.70 56.36 55.31
65.39 66.06 66.24 65.95 65.05 63.31 62.05 61.02 60.30 58.77 59.44 60.76 62.85 64.19 62.58 62.06 62.61 62.60 62.39 62.26 61.57 61.33 60.80 59.62 58.04 59.77 59.35 55.73 51.61 50.57 53.62 55.25
65.71 65.97 65.69 65.22 64.44 63.46 61.12 60.43 59.00 58.90 59.39 60.49 62.01 63.11 63.24 62.49 62.51 62.10 62.09 61.57 61.28 61.54 60.98 59.51 58.73 57.40 58.89 59.48 56.38 55.46 51.35 50.27
65.62 65.14 65.28 64.86 63.51 62.60 60.93 59.24 58.36 59.47 58.99 59.53 60.63 60.85 62.19 62.36 62.10 60.61 61.61 61.69 61.51 61.72 60.59 59.55 59.13 57.98 57.79 57.43 55.88 55.30 55.07 52.24
65.22 64.35 64.46 64.27 63.05 62.36 61.25 59.63 58.44 58.82 58.06 58.20 59.51 61.24 61.57 61.12 62.02 61.83 61.04 61.25 61.16 61.26 61.30 60.06 59.15 59.06 58.72 57.84 55.90 54.23 53.83 52.57
62.94 63.66 63.22 63.47 62.84 62.31 62.14 61.07 58.91 57.95 57.51 58.60 57.65 57.68 57.43 57.70 58.23 58.65 59.74 61.13 60.91 61.11 60.97 60.44 59.42 58.72 58.37 57.58 57.58 55.92 56.30 55.54
60.30 62.46 62.75 62.06 62.17 61.51 61.94 61.55 58.59 58.74 58.84 58.42 56.54 56.36 57.55 57.47 57.02 57.61 58.61 58.49 59.99 60.56 60.43 60.34 59.77 59.02 58.58 58.28 58.21 57.66 57.03 56.32

GFSFLT2_sfc_wetblb_099.txt.gz
Wetbulb
68.71 69.61 70.41 69.94 69.45 69.65 69.63 70.22 70.71 70.82 70.96 71.13 71.49 71.06 71.03 71.46 71.45 71.38 70.89 70.64 70.82 70.64 70.05 69.54 69.71 69.37 68.49 66.87 66.78 67.09 65.51 65.64
67.06 68.75 69.14 68.89 68.78 68.46 68.98 69.55 69.70 69.95 70.40 70.08 69.90 69.92 70.36 70.44 70.27 70.46 70.26 70.00 70.02 70.19 69.58 69.22 69.22 68.45 67.13 66.33 66.35 66.66 65.69 65.03
66.20 67.61 67.78 67.20 67.35 68.78 69.41 69.95 69.36 68.73 69.43 68.96 68.39 69.21 68.91 69.26 68.64 68.91 69.12 68.35 68.69 69.24 68.89 68.07 67.76 67.09 66.60 66.20 66.46 65.66 65.40 64.68
65.30 66.22 66.04 65.68 68.10 68.23 68.82 69.14 67.72 67.58 68.96 69.17 68.82 67.76 67.45 68.03 67.74 67.67 67.31 66.91 67.35 67.48 67.22 66.46 66.31 65.05 65.32 66.26 64.80 65.42 65.17 64.46
65.62 66.02 65.89 65.73 66.99 67.83 68.36 68.99 68.03 66.68 68.06 68.84 67.19 66.85 66.43 66.47 66.40 66.86 65.75 66.42 64.83 65.14 65.05 64.65 64.36 64.80 64.88 64.65 65.18 65.16 64.78 64.46
65.86 65.72 65.73 65.87 66.45 66.93 67.56 67.87 67.40 67.92 66.84 66.13 67.06 66.54 65.09 64.78 65.70 65.55 64.59 64.40 63.05 63.02 62.99 63.90 64.25 64.44 64.28 63.96 64.52 64.65 64.05 64.85
66.12 65.90 65.50 65.90 65.66 66.15 66.46 66.42 66.60 66.93 67.54 65.98 66.16 66.24 65.16 64.37 64.21 64.78 64.54 63.81 62.89 62.42 61.97 63.58 64.43 64.86 64.27 63.87 63.71 63.88 63.68 64.50
67.14 66.62 66.11 66.19 65.92 65.57 65.61 66.28 66.31 66.19 66.79 66.27 65.51 65.53 64.69 64.01 63.33 63.33 62.81 63.24 62.80 62.63 62.14 62.25 62.44 63.04 63.36 63.43 63.65 63.50 63.66 63.59
67.02 67.40 67.20 66.57 66.13 65.40 65.40 65.40 65.69 65.37 65.73 64.98 64.82 64.85 64.20 63.89 63.70 63.34 62.20 62.84 61.92 61.26 61.56 62.12 61.95 63.10 62.69 63.19 63.37 63.07 63.27 62.65
67.06 68.21 67.74 67.18 66.44 66.30 65.78 65.46 65.60 65.31 65.40 65.32 64.30 64.79 64.57 63.77 64.60 64.35 62.54 63.36 62.96 62.00 61.62 61.35 61.21 61.98 61.42 62.08 62.62 62.89 62.53 62.90
65.06 67.42 67.07 67.29 66.89 66.19 65.76 65.90 65.76 65.71 65.51 65.33 64.55 64.48 64.55 64.05 64.19 63.75 63.89 63.39 62.93 62.63 61.64 61.59 60.87 60.77 60.91 61.40 61.69 62.01 61.93 62.67
60.31 66.43 67.05 67.09 67.07 65.76 65.37 65.65 65.78 65.66 65.40 65.08 64.53 64.60 64.35 63.25 62.74 63.06 63.13 63.19 62.65 62.44 61.72 61.39 60.72 60.57 60.93 60.68 60.91 61.71 61.59 61.77
58.37 64.23 66.20 66.02 65.55 64.77 64.50 64.10 65.31 65.03 65.47 64.69 64.58 64.42 63.45 62.84 61.62 62.21 63.13 62.10 61.62 62.21 61.48 60.25 59.63 60.68 59.51 59.03 59.65 60.53 60.45 60.82
53.61 62.74 65.42 65.93 65.86 65.59 64.82 64.75 65.12 65.19 64.45 63.93 64.26 63.20 63.31 62.68 61.45 62.17 62.12 61.29 60.97 61.09 60.68 59.71 59.80 60.59 57.76 56.48 53.32 54.89 58.08 59.82
51.84 61.68 64.93 65.91 65.97 65.40 61.50 61.32 61.40 61.42 62.04 62.52 62.69 63.11 62.98 63.89 62.46 62.09 61.84 61.96 60.41 60.49 60.65 59.88 58.40 59.93 57.99 56.20 52.15 51.17 53.58 56.48
50.47 60.52 64.67 65.50 65.88 64.71 62.74 62.12 61.32 62.17 62.94 63.26 61.81 62.14 61.98 62.70 62.32 61.99 61.78 61.71 60.64 60.53 60.82 60.18 59.33 57.33 58.20 58.37 55.48 54.97 52.42 50.94
53.86 57.13 63.90 65.01 65.48 64.84 63.02 62.03 61.74 61.50 62.13 59.35 61.55 61.33 61.53 61.74 62.00 61.58 61.50 61.29 60.81 60.48 60.03 59.43 58.95 57.95 57.66 57.26 56.26 55.08 54.88 53.28
50.67 57.79 62.87 64.55 65.23 64.53 63.07 61.84 59.79 59.23 59.92 59.10 59.46 60.48 61.25 61.72 61.64 61.62 61.72 61.11 60.50 60.19 60.46 59.89 59.31 58.20 59.09 57.23 56.39 53.37 53.74 53.60
48.85 53.92 62.76 64.16 64.67 64.29 62.64 61.44 59.69 59.07 59.13 59.35 58.39 57.86 57.54 60.77 60.84 60.55 60.49 60.31 60.18 59.89 60.23 59.67 59.44 59.02 59.15 57.39 57.10 55.80 55.81 55.61
45.25 49.88 61.99 63.45 63.51 62.58 61.50 59.67 59.92 59.71 59.08 59.10 58.99 58.52 58.38 58.48 59.42 58.80 59.80 60.04 59.28 59.19 60.03 60.21 59.96 59.18 58.98 58.92 57.60 56.70 56.74 55.71

GFSFLT2_sfc_wetblb_105.txt.gz
Wetbulb
72.38 72.74 72.17 70.12 69.75 69.84 69.64 69.96 70.32 70.61 71.06 71.29 71.80 71.52 71.50 71.88 72.19 72.10 71.89 71.74 70.84 71.38 70.32 69.90 70.11 69.69 69.18 67.91 67.14 68.08 71.70 71.42
70.83 71.22 71.42 72.26 73.00 68.70 68.90 69.23 69.48 69.90 70.17 70.15 70.02 70.33 70.80 70.99 70.32 71.36 71.50 71.25 70.52 70.62 69.67 69.43 69.60 68.87 67.84 66.99 66.70 67.32 71.32 71.08
69.20 69.96 70.30 71.15 72.27 71.89 69.84 69.77 69.48 69.14 70.15 69.50 69.31 72.68 72.77 72.54 70.82 70.04 70.15 69.19 69.83 69.75 69.08 68.53 68.17 67.79 67.14 66.88 66.90 70.52 70.64 70.60
67.88 68.74 68.99 69.57 69.53 71.86 72.25 71.57 72.06 72.38 72.38 72.33 72.38 72.67 72.53 71.64 70.50 68.51 68.91 68.08 68.62 68.06 68.22 67.64 68.10 70.70 69.82 67.27 70.30 70.46 70.27 70.09
67.12 66.90 67.78 67.82 68.25 70.15 70.25 70.24 70.44 69.93 72.01 72.46 72.19 71.87 72.13 71.72 71.54 71.67 72.18 68.85 71.19 69.92 69.48 70.44 70.55 70.51 69.62 69.70 69.68 69.23 69.80 69.46
67.76 66.64 66.26 66.69 68.11 68.64 69.04 68.42 68.93 68.95 71.39 72.18 71.69 70.34 70.59 70.90 70.79 71.52 71.61 71.02 70.61 70.88 70.50 70.36 70.19 70.09 70.19 69.12 67.58 68.14 68.83 69.20
67.43 67.41 66.11 66.04 66.80 68.16 68.51 68.25 68.55 69.32 70.85 71.32 71.72 69.36 69.26 69.53 70.74 70.64 70.62 70.48 70.09 69.52 69.72 69.11 69.29 69.14 69.20 68.91 67.32 67.90 67.21 68.07
69.24 67.88 66.98 67.64 67.06 67.86 67.87 68.19 68.48 69.31 70.32 70.36 70.87 70.73 68.96 68.57 68.20 68.92 69.56 69.63 69.53 69.21 68.74 68.65 68.29 68.24 68.06 67.70 67.85 67.40 66.52 65.25
64.20 68.43 68.70 68.12 67.97 68.28 68.39 68.30 68.95 67.47 67.67 68.21 68.10 68.31 68.18 67.74 67.39 67.84 67.81 68.29 68.66 68.26 67.86 67.43 67.33 66.56 66.02 67.10 67.69 67.33 66.76 64.49
55.37 64.14 68.65 68.57 68.28 68.38 68.25 68.31 68.12 67.46 66.72 66.68 67.34 67.67 68.17 67.01 66.45 66.60 66.47 66.18 67.07 66.81 65.56 65.43 65.62 65.40 64.94 66.06 66.45 66.25 64.05 64.16
52.56 56.22 64.76 67.79 68.37 68.88 68.26 67.75 67.51 67.83 67.02 66.38 66.70 67.05 67.30 66.32 66.36 66.52 65.81 64.70 65.22 65.18 64.82 65.12 64.36 64.14 64.45 65.17 65.55 64.64 62.87 63.15
51.64 52.74 57.01 67.13 68.12 68.12 67.67 66.89 67.28 66.65 65.83 65.95 66.20 66.11 66.25 66.58 66.67 66.45 65.74 64.38 64.22 63.91 63.25 63.69 63.70 63.63 62.75 63.00 63.84 64.55 64.03 62.78
55.54 55.45 53.35 59.10 65.51 66.35 64.96 63.63 65.15 65.36 65.61 66.67 66.37 66.02 65.51 66.02 66.61 66.07 64.89 64.47 63.78 63.82 63.10 61.83 61.57 62.60 61.51 61.75 62.05 63.66 63.50 62.12
53.20 54.79 55.98 56.08 62.76 66.32 66.83 65.70 65.25 66.03 65.99 65.87 66.41 66.18 65.85 66.04 66.11 65.07 64.25 63.87 63.80 63.89 62.80 61.76 61.32 61.85 59.34 58.26 55.05 57.56 60.71 62.39
50.70 52.70 53.94 56.31 58.84 65.89 67.46 65.66 65.32 64.73 65.04 64.58 65.18 66.81 66.25 66.18 65.67 65.03 63.89 63.73 63.12 63.86 63.59 62.55 59.72 61.03 61.34 58.20 53.68 53.80 56.06 60.01
49.07 50.04 52.02 54.49 57.81 62.33 64.71 62.79 62.11 63.90 65.21 65.28 65.01 65.34 65.58 66.15 65.56 64.87 64.20 63.88 63.92 63.65 64.01 62.95 61.54 59.12 60.44 60.56 59.01 58.75 55.58 54.76
46.81 47.27 49.42 52.75 54.98 58.57 64.19 64.13 65.01 66.37 66.28 66.38 65.60 65.07 65.60 65.40 65.29 64.92 65.01 64.37 63.95 63.57 63.32 62.36 61.87 60.33 59.90 59.55 58.06 57.01 56.88 56.09
43.58 44.31 46.35 49.47 52.31 56.14 62.00 64.24 64.53 64.10 65.17 65.15 64.67 63.79 64.01 64.80 64.53 64.35 64.80 63.72 63.91 64.39 62.75 62.43 61.41 61.05 60.92 60.49 58.63 56.01 55.78 55.46
41.20 42.20 43.27 46.71 49.71 54.33 59.90 63.48 63.80 64.45 64.74 65.22 63.62 62.49 62.79 63.03 63.80 63.91 64.01 63.50 63.88 64.19 62.22 61.87 61.50 60.67 59.71 59.46 59.94 59.14 58.96 58.56
39.27 40.09 41.51 45.50 48.15 51.88 60.52 63.43 63.46 64.62 65.24 65.09 64.01 62.24 62.31 63.55 63.44 64.02 64.14 63.34 62.98 64.03 63.79 62.88 61.28 60.38 60.17 60.29 59.85 59.73 59.40 58.19

GFSFLT2_sfc_wetblb_108.txt.gz
Wetbulb
75.44 74.96 73.19 70.49 70.21 70.10 69.89 70.35 70.73 71.02 71.38 71.88 72.33 72.09 71.77 72.43 72.68 72.62 72.68 72.22 71.69 71.54 71.22 70.48 70.33 70.10 69.75 68.42 68.06 68.81 72.05 71.71
74.77 74.66 73.80 74.68 74.22 69.48 69.31 69.55 69.73 70.25 70.60 70.54 70.50 70.97 71.46 71.56 71.54 71.71 71.75 71.54 71.16 70.97 70.44 69.84 69.90 69.46 68.79 67.65 67.50 68.21 72.05 71.42
73.30 72.15 72.35 73.07 74.39 73.14 70.22 69.98 69.82 69.42 70.55 70.01 69.91 73.44 74.00 73.43 71.27 70.47 70.42 70.08 70.23 69.86 69.60 69.08 68.81 68.57 68.12 67.34 67.32 71.40 71.29 71.59
71.73 71.07 71.61 71.81 71.50 74.26 73.84 73.86 73.24 73.08 72.98 73.25 73.15 73.53 73.89 72.68 71.21 69.42 69.60 68.90 68.82 68.95 68.63 68.21 68.66 71.59 70.94 68.01 71.05 70.99 70.79 71.12
71.59 71.15 71.35 71.45 70.72 73.01 72.43 72.75 73.09 73.70 74.01 73.89 73.50 73.29 73.73 73.11 73.27 72.81 73.14 69.94 72.26 70.72 71.04 71.51 71.28 71.49 71.74 70.71 70.84 70.02 72.15 70.95
71.42 71.81 71.96 71.53 70.85 72.34 72.93 72.51 72.19 70.89 72.42 74.03 73.41 72.86 72.84 72.79 72.38 72.71 72.31 72.55 71.70 71.91 71.14 71.41 71.05 71.24 70.81 70.14 70.94 71.03 71.27 70.63
70.79 71.28 71.28 71.02 69.89 71.72 71.78 71.52 71.19 71.23 72.73 73.39 73.17 71.61 71.83 72.60 72.06 72.10 72.07 71.58 71.26 71.48 70.89 70.78 70.51 70.64 70.66 70.52 70.19 70.22 69.63 70.09
65.36 70.47 71.16 70.89 70.30 70.91 70.82 71.27 71.30 71.52 71.70 72.15 73.20 72.49 71.54 70.50 71.68 71.15 71.90 71.82 71.49 71.16 70.68 70.26 69.96 70.08 69.57 70.08 69.79 69.60 67.96 69.70
58.51 65.35 71.61 71.00 70.49 70.53 70.59 70.58 70.73 70.50 71.09 72.30 72.40 72.40 71.99 70.49 69.85 69.78 70.87 71.77 71.58 71.04 70.71 70.17 69.54 68.82 68.69 69.24 69.10 69.15 68.28 68.68
57.91 58.13 61.74 67.37 70.32 70.81 70.76 70.62 70.60 70.46 70.50 71.15 72.04 71.70 71.85 70.11 68.91 68.88 69.70 70.90 70.84 69.87 69.19 68.10 68.66 67.86 67.84 68.22 68.01 68.88 68.36 68.32
60.80 59.86 58.79 62.79 67.98 69.91 70.86 71.39 70.71 70.56 70.87 70.27 70.25 70.57 70.16 68.91 68.04 68.81 69.02 68.28 68.96 68.72 68.15 68.09 66.94 66.48 67.08 67.45 67.55 67.26 67.26 66.95
61.08 61.59 61.44 59.17 63.19 67.95 68.84 69.88 70.47 70.98 70.50 70.00 69.60 69.38 68.89 68.43 68.31 68.86 67.67 67.12 67.81 67.73 66.79 67.06 66.49 65.96 64.75 65.17 66.30 66.66 66.73 66.30
58.96 59.73 61.14 61.54 58.11 62.85 65.67 66.24 67.73 68.72 70.19 70.24 69.49 69.27 68.29 67.70 67.61 67.64 66.79 66.14 66.41 66.73 66.77 65.23 65.13 65.66 62.85 62.43 64.20 65.60 65.14 65.70
56.73 57.53 58.84 60.06 60.97 59.78 64.67 66.47 67.10 67.58 68.86 69.46 68.78 68.08 68.08 67.36 67.68 66.74 66.59 66.44 66.15 65.79 64.95 63.25 64.20 65.35 61.30 59.74 57.25 59.67 63.19 64.98
54.27 55.43 56.25 57.53 59.48 61.00 61.47 65.93 67.12 66.45 66.66 67.48 67.68 68.33 67.67 67.10 67.18 67.14 66.65 66.92 65.69 65.72 64.53 63.73 61.40 62.74 64.64 60.13 55.23 54.73 57.61 62.14
53.52 53.80 54.27 55.20 57.39 58.70 60.32 61.25 63.58 65.70 66.17 66.72 66.25 67.10 68.25 67.61 67.36 67.46 67.61 66.72 65.95 66.23 65.04 65.59 64.54 61.00 62.54 63.45 60.62 60.32 57.29 57.00
51.38 51.54 52.08 53.15 53.87 54.22 56.07 59.54 64.41 66.11 66.21 65.96 65.51 65.79 66.78 67.42 67.94 67.60 66.95 66.39 66.11 66.02 65.18 65.75 66.11 64.33 62.01 61.10 61.22 59.41 58.36 58.01
48.86 48.42 48.99 50.48 50.19 51.29 52.82 55.37 60.67 64.82 65.70 65.29 64.52 65.17 65.00 66.01 66.92 67.31 67.53 66.00 65.11 65.50 66.67 66.82 65.40 65.55 64.74 63.87 62.15 58.17 57.65 56.50
45.39 44.30 44.21 46.32 45.98 47.73 50.48 51.87 58.31 61.48 65.51 65.73 64.88 64.69 63.91 64.71 65.47 65.87 65.78 65.83 66.83 66.73 67.13 66.42 66.00 65.19 64.18 64.33 64.20 63.69 62.20 59.81
42.10 39.76 40.09 41.99 42.77 45.09 47.79 49.70 53.75 61.94 64.38 63.55 65.16 65.17 63.92 64.78 64.86 65.62 65.67 66.33 65.77 66.33 66.06 65.84 65.72 65.50 63.58 63.58 62.16 61.48 61.64 59.89

GFSFLT2_sfc_wetblb_111.txt.gz
Wetbulb
76.11 74.76 72.77 70.94 70.50 70.29 70.19 70.78 71.20 72.02 72.25 72.40 72.87 72.36 72.12 72.56 72.64 73.14 73.19 72.89 72.83 72.54 71.84 70.84 70.73 70.34 70.03 69.40 68.69 69.28 71.26 70.34
75.84 75.56 74.44 73.93 73.40 70.12 69.82 70.02 70.26 70.74 71.41 71.47 71.29 71.49 71.79 71.85 71.92 71.61 72.63 72.54 72.34 71.87 71.26 70.52 70.12 69.72 69.39 68.46 68.03 68.97 71.26 70.41
75.72 75.37 74.44 74.96 74.62 72.82 70.59 70.29 70.33 70.20 70.99 70.61 70.39 74.29 74.43 73.59 71.60 70.86 71.44 71.00 70.99 71.03 70.46 69.54 69.16 69.35 68.84 68.06 68.01 70.91 70.30 69.79
73.69 72.93 72.68 73.81 74.21 74.70 73.36 72.88 72.37 72.36 72.41 72.81 73.08 73.51 73.62 72.90 71.49 70.14 70.37 69.62 69.63 69.74 69.53 68.72 68.69 71.01 70.78 68.37 70.49 70.50 69.78 69.30
73.13 72.54 72.56 72.33 72.77 74.34 73.77 73.71 73.18 73.13 73.28 73.38 73.06 73.15 73.72 72.90 73.12 72.51 73.09 70.11 72.25 70.84 71.00 71.16 70.93 70.75 69.61 70.57 70.21 70.23 68.88 70.00
72.81 73.25 73.52 73.34 73.44 73.40 73.38 72.80 72.98 73.24 73.18 74.83 74.21 72.86 73.58 72.64 71.49 72.12 72.89 72.83 71.73 72.11 71.27 71.00 70.81 71.19 71.51 71.05 71.08 71.84 70.41 70.76
71.62 73.00 72.67 73.15 73.35 72.70 72.85 72.61 73.18 72.91 73.13 74.08 73.95 72.00 73.24 72.24 72.34 71.75 72.87 72.08 72.00 71.91 71.13 70.79 70.43 70.35 70.95 70.31 70.36 70.27 70.29 69.85
62.40 70.26 72.37 72.68 72.18 72.26 72.19 73.07 72.77 72.37 72.42 72.46 74.18 72.54 72.46 71.61 71.90 71.23 70.63 71.92 71.93 71.46 71.00 70.46 69.80 70.28 70.31 70.29 70.11 69.91 69.77 69.64
58.42 62.64 68.52 71.41 71.76 71.65 71.56 71.32 71.90 71.19 71.58 73.09 74.34 72.76 73.44 72.32 71.19 71.31 70.80 71.50 73.23 71.87 71.45 70.94 70.25 69.56 69.01 69.47 70.05 69.44 69.09 68.91
60.95 60.05 61.14 67.40 70.69 70.35 70.91 71.07 71.02 70.67 71.32 72.12 73.17 72.47 72.81 73.41 70.62 70.97 71.59 71.42 71.14 71.42 70.78 69.70 68.64 68.83 68.68 68.41 68.45 68.99 68.66 68.76
61.76 63.16 62.69 61.53 63.77 67.54 70.71 72.18 71.39 71.21 71.77 71.64 73.15 72.97 72.21 72.88 71.04 70.17 70.67 70.27 70.75 70.25 70.07 69.89 68.40 68.59 68.35 68.48 68.27 67.65 68.16 68.17
61.18 61.86 62.73 63.66 63.06 62.93 66.76 68.34 70.25 71.62 71.86 71.92 72.80 71.88 72.17 72.59 71.44 70.64 70.44 69.39 69.55 69.94 69.12 69.02 68.63 67.85 66.61 65.82 67.35 67.88 67.85 67.82
59.86 59.89 60.88 61.67 61.72 61.38 60.42 65.46 67.73 69.64 70.63 72.37 73.09 72.11 71.66 71.77 71.02 69.79 69.74 67.67 68.83 67.77 68.27 66.62 66.54 68.18 66.33 65.57 65.26 66.19 66.14 66.40
57.60 58.23 59.12 59.69 60.28 61.56 62.31 62.48 65.22 67.11 69.50 70.46 71.93 72.60 71.63 70.73 70.67 69.26 69.69 67.50 67.09 66.65 66.43 65.26 65.88 67.26 63.53 62.62 59.82 62.43 63.94 65.44
55.61 56.42 57.14 57.80 58.78 59.60 61.28 62.67 62.94 65.25 67.13 67.46 69.82 71.84 71.90 70.41 68.66 69.74 69.88 67.67 66.02 66.51 65.98 64.95 63.61 65.18 65.55 61.88 57.55 56.79 59.54 63.55
54.69 55.06 55.11 55.69 56.99 56.94 57.59 57.97 59.47 61.84 66.32 67.12 68.57 70.16 70.32 70.07 69.89 68.22 70.13 68.05 67.15 66.24 66.12 66.24 65.75 61.48 64.19 64.96 65.03 63.16 58.83 57.98
53.35 53.00 53.12 53.59 53.70 54.94 54.73 55.36 57.65 61.07 63.72 67.13 68.23 68.89 69.56 67.37 67.81 68.38 69.14 68.57 68.14 67.26 65.71 66.25 65.96 64.38 63.37 62.97 63.47 62.62 62.72 59.89
51.37 50.46 50.02 50.82 50.46 50.64 50.18 50.41 52.69 55.96 59.82 62.74 67.40 67.80 68.62 67.07 66.84 66.40 68.18 68.32 66.68 67.68 67.77 66.55 66.73 65.70 64.96 63.63 61.66 60.53 59.18 60.02
48.90 47.97 46.54 47.42 47.20 47.46 47.08 47.65 49.77 51.53 55.64 60.71 63.41 66.23 67.17 66.78 65.39 65.90 66.13 66.67 67.05 68.26 67.33 64.64 66.96 65.92 66.09 64.94 64.37 63.20 62.88 61.83
46.24 44.85 43.55 44.04 44.32 44.26 43.98 44.13 46.66 49.62 53.77 58.10 62.46 65.97 67.09 67.92 65.24 65.57 66.24 66.36 67.23 67.65 67.35 65.59 65.56 65.94 66.13 66.00 64.97 64.95 65.25 63.88

GFSFLT2_sfc_wetblb_114.txt.gz
Wetbulb
74.22 72.64 71.79 71.19 70.57 70.66 70.60 71.34 71.90 72.15 72.16 72.45 72.72 72.33 72.28 72.57 72.56 73.06 72.78 72.87 72.64 72.24 71.59 71.22 70.64 70.11 70.00 69.33 68.81 69.08 68.88 68.92
75.06 73.58 72.56 72.09 71.47 69.92 69.96 70.53 70.83 71.30 71.77 71.57 71.26 71.59 71.87 71.90 71.85 72.26 72.51 72.09 72.23 72.07 71.20 70.64 70.14 69.51 69.19 68.75 68.31 68.63 68.47 68.70
75.69 73.77 73.11 72.93 72.41 71.13 70.17 70.53 70.48 70.51 71.27 71.10 69.87 72.66 72.11 71.89 71.15 70.86 71.47 70.86 70.73 71.02 70.72 69.77 69.12 69.04 68.90 68.40 68.06 68.62 67.99 67.00
74.19 73.85 73.21 73.50 72.42 71.84 71.29 71.13 70.85 71.13 71.72 71.76 72.62 72.51 72.61 71.99 71.03 69.93 70.17 70.05 69.81 70.08 69.68 68.87 68.38 68.84 68.60 68.00 68.03 68.46 67.77 66.75
72.81 72.08 71.86 71.82 73.00 72.51 71.30 71.35 70.60 70.83 71.28 71.70 71.50 71.75 72.08 71.24 71.24 70.56 70.79 69.68 70.36 69.42 69.26 69.39 68.79 68.34 68.31 68.32 68.19 67.83 67.60 68.02
72.25 71.84 71.77 71.30 71.76 72.67 72.48 71.81 71.40 71.13 71.08 71.84 71.10 70.69 70.49 70.97 70.16 70.56 70.48 70.39 69.86 69.62 69.41 69.18 68.74 68.90 68.75 68.74 68.11 67.40 67.01 67.04
70.22 71.05 71.42 71.17 71.39 71.89 72.34 71.53 71.65 71.93 71.81 72.15 71.72 70.55 70.52 70.76 69.85 70.37 70.62 70.28 70.05 69.24 69.22 69.26 68.99 68.97 69.07 67.76 67.75 67.80 67.70 67.18
66.49 69.80 70.29 71.87 71.45 71.37 71.23 72.32 72.02 71.41 71.42 72.10 72.13 71.41 69.83 70.26 69.75 69.87 70.31 70.52 70.04 69.24 68.29 67.92 67.84 68.08 67.99 67.82 67.43 67.46 67.61 67.51
60.97 60.32 64.13 66.39 70.26 70.15 70.44 71.24 71.07 71.18 71.09 71.30 71.20 71.71 70.40 69.87 69.90 68.90 68.64 70.26 69.49 69.09 68.87 68.88 68.23 67.77 66.90 67.21 67.42 67.21 67.19 67.45
62.52 62.95 62.18 62.29 62.30 69.63 70.36 69.72 70.22 69.77 70.34 70.64 70.37 71.34 70.30 70.61 69.10 69.01 69.71 68.31 69.79 69.08 68.07 66.35 66.60 66.79 66.03 66.47 66.46 66.61 66.50 66.61
61.07 61.92 62.30 62.99 62.85 61.87 63.64 68.42 69.91 69.30 68.98 69.93 69.80 69.82 70.91 69.97 69.67 69.22 68.95 68.99 67.89 68.78 67.78 67.11 65.99 65.41 65.77 65.80 65.71 65.45 65.62 66.91
60.65 60.78 61.78 62.31 62.50 63.09 61.30 60.63 67.43 69.55 69.55 69.12 69.57 69.94 69.97 69.88 69.42 69.18 68.53 67.84 67.54 67.61 66.57 66.82 66.05 65.69 66.12 65.08 65.25 65.29 65.29 65.89
58.32 58.91 60.29 59.80 59.65 59.34 59.93 59.15 61.28 65.96 68.52 69.44 69.88 69.76 69.78 69.42 68.86 69.18 68.14 67.30 67.02 67.02 66.77 65.54 65.20 65.82 63.59 62.61 63.54 64.48 64.54 64.30
56.12 56.10 56.71 56.98 57.32 57.45 58.44 58.97 60.22 61.34 61.51 64.32 68.69 69.58 69.55 69.60 69.01 68.63 68.48 66.97 66.23 66.56 66.56 64.45 64.98 65.43 61.59 60.58 58.49 60.10 62.50 63.67
53.93 54.28 54.43 55.11 55.99 55.67 56.51 57.91 59.04 60.17 60.27 61.09 66.27 67.51 69.75 68.71 68.70 68.27 67.63 67.03 65.66 65.63 66.48 64.39 63.18 64.45 64.54 59.73 55.20 54.34 57.95 61.30
53.10 53.03 52.65 53.01 52.96 52.47 52.61 52.84 52.86 56.12 57.67 60.03 61.73 65.20 66.22 68.43 67.83 68.22 67.54 67.31 65.61 65.08 66.19 65.49 64.25 62.16 64.27 63.42 60.98 59.40 55.52 54.97
51.42 51.28 50.93 50.75 50.40 50.41 49.63 49.81 50.98 52.50 53.46 54.99 57.45 60.87 64.12 67.46 67.64 67.59 67.29 67.47 66.74 65.13 64.86 65.18 64.50 62.90 62.54 62.41 61.78 60.81 59.80 56.82
49.53 48.56 48.13 48.34 47.67 47.65 47.19 47.20 47.29 48.18 49.77 51.22 53.75 57.26 61.06 65.25 66.78 67.00 66.52 66.33 66.25 65.86 65.66 65.03 64.33 64.21 62.71 61.93 61.63 59.78 58.75 57.16
46.95 46.26 44.81 45.14 44.88 44.89 45.03 44.79 45.03 44.88 46.22 48.69 50.62 53.37 56.58 61.15 65.10 65.62 65.78 66.21 66.41 66.50 66.12 65.02 64.80 63.78 62.96 61.98 61.78 61.11 60.46 59.15
44.74 42.82 41.77 42.10 41.90 41.61 42.28 42.43 42.67 43.61 44.66 46.39 48.60 51.60 54.65 58.57 63.65 64.40 65.02 65.09 65.24 65.85 65.62 65.50 65.22 64.23 63.24 62.92 62.04 61.39 61.53 60.28

GFSFLT2_sfc_wetblb_117.txt.gz
Wetbulb
70.43 70.69 71.33 70.81 70.66 70.71 70.69 71.18 71.35 71.44 71.80 71.96 72.37 71.89 71.84 71.99 72.18 72.31 72.72 72.47 72.21 72.31 71.73 71.36 70.40 69.56 69.29 68.69 68.28 68.76 67.94 65.82
70.10 69.97 69.77 69.41 69.59 69.77 70.04 70.69 70.80 70.82 71.26 71.18 70.96 71.07 71.47 71.57 71.48 71.76 72.17 72.05 71.85 71.87 71.04 70.59 69.92 69.21 68.85 68.36 67.81 68.01 67.54 67.23
71.13 70.02 69.83 69.30 68.98 69.86 70.08 70.73 70.56 70.40 71.03 70.44 69.80 71.28 71.43 71.15 70.69 70.58 71.32 70.47 70.58 70.77 70.41 69.69 68.81 68.54 68.40 68.18 67.90 67.43 67.27 66.75
71.30 70.49 69.97 69.91 70.70 69.09 68.60 69.84 69.75 70.18 70.70 70.83 70.79 70.43 70.54 71.26 70.26 69.46 69.98 69.47 69.58 69.72 69.47 68.77 68.24 67.76 67.60 67.97 66.86 67.61 66.89 66.44
70.97 71.32 71.04 70.56 70.08 68.99 69.10 68.44 68.17 68.96 69.74 70.13 70.27 70.95 70.65 69.93 69.96 69.76 69.14 69.44 69.27 69.00 68.76 68.42 67.85 67.20 66.80 66.65 66.93 67.00 66.15 66.62
70.29 70.40 70.50 70.98 71.52 69.75 68.94 69.00 68.11 68.16 68.62 69.56 69.70 68.26 68.80 69.75 69.40 68.85 68.77 69.05 68.42 68.19 68.28 68.08 67.34 67.47 66.93 67.18 67.02 66.47 65.22 66.48
69.44 69.59 69.24 69.75 69.53 70.65 70.93 69.28 69.07 68.97 68.82 69.32 69.47 67.86 68.01 67.91 68.23 68.93 69.04 69.01 68.57 67.70 67.76 67.99 67.58 67.10 67.38 67.04 66.91 66.50 66.04 66.34
58.38 66.67 69.32 69.27 67.80 68.83 68.26 69.09 69.55 69.65 69.69 69.64 69.90 69.02 67.73 68.10 67.74 68.08 68.73 68.87 68.74 68.01 67.46 67.46 67.53 66.86 66.93 67.45 66.53 66.34 66.34 66.09
58.08 58.31 59.61 60.15 65.60 67.43 68.30 68.28 69.37 69.31 68.61 69.72 70.20 69.82 68.20 67.53 67.42 67.01 68.22 69.29 68.03 68.21 66.66 65.79 65.33 66.37 65.88 65.93 65.93 65.79 66.03 65.97
57.90 59.84 59.32 59.61 59.57 60.60 65.95 67.76 67.85 68.12 69.39 69.36 69.45 70.29 69.25 67.60 67.37 67.26 66.37 68.64 68.35 67.81 67.12 65.29 65.16 65.20 64.38 64.58 65.15 65.19 65.29 65.38
56.25 57.23 57.46 57.94 58.49 59.59 59.76 60.65 60.79 66.53 67.85 69.06 69.02 68.48 69.43 68.94 67.28 66.89 67.12 66.53 67.69 67.67 66.32 64.87 63.48 63.92 64.28 64.46 64.30 64.30 64.38 65.44
54.70 55.91 55.80 56.17 56.66 57.28 58.20 58.17 57.92 60.93 65.89 66.40 67.81 68.64 68.11 68.77 68.48 67.85 66.62 66.20 65.81 66.42 66.22 64.47 64.16 63.93 65.18 64.24 63.45 63.60 63.58 63.29
52.37 52.44 52.66 53.29 53.05 52.43 53.56 54.17 56.09 57.86 59.18 61.21 62.47 67.73 68.04 67.63 67.55 66.73 66.91 66.48 66.29 65.10 63.83 64.75 62.76 63.92 62.04 60.63 61.66 61.89 62.20 62.41
50.54 50.62 50.77 51.42 51.07 51.58 52.15 52.72 54.41 55.76 58.08 58.57 60.21 60.97 65.24 67.08 67.34 67.05 67.49 66.04 64.39 65.06 63.95 61.40 63.14 64.53 59.89 58.47 57.95 57.50 60.51 61.89
48.86 48.86 48.64 49.28 49.36 49.61 49.99 50.83 51.67 52.38 53.36 54.80 56.27 57.51 60.10 64.19 66.83 66.90 66.83 66.53 65.00 64.86 64.31 63.21 62.76 62.36 62.59 59.07 55.24 53.12 55.36 59.14
47.15 47.66 47.02 47.83 46.98 46.14 45.39 45.77 46.12 48.19 48.91 50.30 51.35 53.56 55.59 58.14 61.29 65.55 66.28 66.30 65.44 64.82 65.37 64.91 63.95 61.95 60.87 61.20 57.94 56.40 53.08 52.24
44.40 44.86 44.93 44.35 43.91 44.07 43.49 43.22 44.50 46.18 47.10 47.11 48.41 50.48 52.38 54.34 57.18 59.82 64.77 65.17 64.93 64.71 63.62 64.75 63.90 62.47 62.15 62.38 60.23 57.88 56.75 54.57
42.14 42.08 41.93 42.00 41.70 41.61 41.20 40.37 40.93 41.88 42.70 43.17 44.96 47.59 49.71 51.76 54.77 57.44 61.53 64.81 65.00 64.19 63.74 63.50 64.91 64.51 62.71 61.62 61.25 59.82 58.34 55.47
40.81 39.57 39.00 39.35 39.06 39.37 39.81 40.04 40.26 40.39 41.60 42.70 43.21 44.22 46.37 48.99 51.71 54.09 57.98 62.73 64.77 65.26 63.80 63.33 64.02 64.07 62.94 62.43 61.93 61.18 60.17 59.49
36.69 36.72 36.72 37.05 36.71 36.50 37.91 38.19 38.85 39.23 39.90 41.07 42.28 43.62 44.87 46.69 48.28 51.09 53.54 56.15 63.19 64.13 64.07 63.82 64.25 64.31 63.21 63.00 62.36 61.44 60.44 58.62

GFSFLT2_sfc_wetblb_120.txt.gz
Wetbulb
69.85 70.25 71.02 70.50 70.28 70.24 70.15 70.69 70.79 70.90 71.15 71.35 71.86 71.43 71.16 71.56 71.82 71.82 72.33 72.14 71.70 71.82 71.21 70.71 69.88 69.54 69.03 68.26 67.80 68.14 66.93 65.63
69.33 69.40 69.96 69.94 70.17 69.52 69.65 69.90 69.85 70.10 70.63 70.55 70.26 70.36 70.94 71.07 70.86 71.28 71.67 71.77 71.57 71.56 70.94 70.65 69.80 68.85 68.33 67.62 67.38 67.74 66.81 65.43
68.59 68.68 69.00 69.09 69.15 70.30 70.17 70.57 70.03 69.63 70.26 69.92 69.36 70.89 70.91 70.79 70.18 70.18 70.65 70.11 70.40 70.58 69.98 69.42 68.54 68.11 68.00 67.44 67.47 66.99 66.79 66.72
69.00 68.37 68.21 68.25 69.71 69.13 69.34 70.35 70.31 70.44 70.74 70.42 71.18 69.86 70.26 70.88 69.98 68.95 69.44 69.04 69.33 69.42 68.99 68.32 67.96 67.53 67.17 67.58 66.47 66.72 66.52 65.92
70.44 68.93 68.21 67.94 68.24 67.98 67.62 68.55 68.73 69.43 70.04 70.71 70.21 70.26 69.59 69.92 69.65 69.56 69.20 69.18 69.18 69.09 68.64 68.57 67.55 66.90 66.38 66.06 65.99 66.54 65.75 65.42
70.25 69.83 69.58 68.68 68.68 67.62 67.98 67.62 67.53 67.93 69.13 69.61 69.76 69.59 69.04 68.93 69.11 68.68 68.50 69.02 68.07 68.46 68.27 68.14 67.39 67.15 66.41 66.11 66.16 66.25 65.11 65.54
66.90 68.43 67.87 69.13 69.06 68.46 67.76 67.67 67.78 67.31 67.53 69.04 69.67 69.25 68.88 69.29 68.79 68.55 68.20 68.43 68.25 67.64 67.60 67.58 67.33 66.92 66.54 66.26 66.14 66.01 65.27 65.72
61.02 61.05 62.68 67.24 67.53 68.01 68.46 68.32 67.49 67.69 68.00 68.41 69.47 69.01 68.71 68.14 68.45 68.31 68.14 68.37 68.48 67.92 67.35 67.01 67.04 66.99 66.37 66.37 66.37 66.15 65.38 65.30
58.24 58.60 58.64 58.94 62.60 63.88 65.35 67.06 68.30 67.94 68.83 68.64 68.77 68.95 67.76 68.31 67.80 67.48 68.31 68.48 67.89 67.62 66.97 66.88 66.59 66.32 65.70 65.85 65.74 65.72 65.44 65.33
56.26 57.76 56.29 56.39 56.98 58.68 59.70 61.58 64.03 64.40 66.27 68.10 69.14 69.24 68.90 67.43 67.21 67.42 67.55 68.13 67.84 67.35 66.48 65.72 65.83 65.44 65.06 64.37 64.66 64.64 64.76 65.05
53.07 52.92 52.90 53.53 54.20 55.53 56.36 57.11 57.72 59.13 61.89 65.36 67.75 65.39 67.52 67.65 66.93 67.00 65.92 67.25 67.60 67.26 66.77 66.08 64.74 64.07 64.42 64.02 64.00 64.02 64.12 64.76
51.11 51.16 51.16 51.33 51.47 51.84 52.49 53.38 54.33 56.75 58.21 61.38 63.22 65.72 65.23 67.38 67.82 67.71 65.60 65.38 66.37 66.71 66.41 65.83 64.70 64.15 64.36 63.65 62.89 63.23 63.50 63.64
49.03 48.75 48.93 48.85 48.67 48.21 48.96 48.63 50.58 52.48 55.23 56.85 57.69 60.15 61.84 62.81 66.64 66.95 66.66 65.56 65.50 65.72 65.92 63.34 62.69 63.13 61.41 59.65 60.04 61.54 61.81 62.39
47.29 47.09 46.52 46.46 46.94 46.82 47.22 46.93 49.75 50.73 52.10 51.07 54.02 52.59 54.38 57.42 58.77 62.31 66.10 66.19 65.68 64.21 64.75 62.44 64.09 63.32 61.14 57.48 56.43 58.32 59.91 61.06
44.85 44.52 44.51 44.09 44.44 44.81 44.54 45.79 46.32 46.82 46.38 47.52 48.83 49.99 51.81 53.73 55.88 58.88 61.15 65.03 65.01 65.01 64.32 63.40 61.90 62.03 62.36 58.91 53.80 54.27 55.35 58.12
42.97 43.00 42.15 42.65 42.41 41.49 40.74 40.90 40.81 42.82 43.82 45.24 45.77 47.35 47.83 50.46 52.41 54.16 56.35 58.84 63.14 64.12 64.49 63.83 63.46 61.06 62.13 62.70 58.70 56.49 53.61 52.74
40.60 41.04 40.21 40.24 39.69 39.90 39.07 38.12 39.18 40.56 41.78 41.71 42.59 44.57 46.44 48.14 49.98 51.80 53.57 55.55 58.85 63.10 62.72 63.01 62.89 61.15 60.51 61.91 58.44 57.52 55.38 53.42
38.43 37.93 37.65 37.97 37.56 37.58 37.05 36.62 37.05 37.37 38.05 39.01 41.05 42.42 43.59 45.39 47.25 48.86 51.34 53.55 56.68 60.89 63.31 62.41 61.11 60.73 60.76 61.40 60.94 57.67 56.08 54.29
36.58 35.56 34.97 35.49 35.26 34.76 34.88 35.38 35.77 36.46 38.27 38.95 39.73 40.31 41.40 42.70 44.23 45.22 46.69 49.31 53.52 55.34 60.00 62.81 62.01 61.52 61.42 61.32 61.66 61.16 59.88 57.65
34.13 33.84 33.47 33.57 33.39 33.19 33.79 34.19 34.86 35.77 37.75 38.52 39.33 39.90 40.45 41.73 42.44 44.26 45.34 46.55 48.56 51.28 54.08 61.38 62.48 61.93 61.46 61.83 61.71 61.76 61.67 58.97

GFSFLT2_sfc_wetblb_123.txt.gz
Wetbulb
69.18 70.06 71.11 70.60 70.20 70.25 69.97 70.15 70.62 70.78 70.98 71.31 71.55 71.16 70.92 71.48 71.63 71.77 72.36 72.11 71.70 71.48 71.09 70.12 69.65 69.39 69.03 68.09 67.45 68.40 66.20 65.57
68.06 68.29 69.26 69.48 69.95 69.26 69.46 69.59 69.75 69.99 70.51 70.20 70.06 70.23 70.61 70.64 70.57 70.97 71.57 71.55 71.28 71.30 70.69 70.07 69.43 68.60 68.10 67.41 66.96 67.59 66.12 65.43
67.43 67.52 67.97 68.35 68.69 69.87 69.91 70.29 69.86 69.37 70.04 69.61 68.69 70.13 70.11 70.08 69.77 69.80 70.47 70.06 70.23 70.59 70.06 69.27 68.53 67.88 67.77 67.27 67.16 66.32 65.85 65.89
67.18 67.00 67.25 67.38 69.55 68.94 68.78 69.66 70.05 69.59 69.46 69.23 70.09 69.37 69.12 70.34 69.50 68.69 69.31 69.03 69.27 69.34 69.05 68.31 67.93 66.79 66.61 67.30 66.07 66.03 65.71 65.46
67.95 66.98 66.68 66.93 67.77 67.58 68.03 69.73 69.72 69.95 70.62 70.40 70.29 69.71 69.60 69.89 69.05 68.80 69.03 68.87 69.44 68.98 68.47 68.53 67.58 66.41 65.66 65.52 65.60 65.60 65.12 65.03
65.53 67.81 67.13 66.43 67.20 66.99 66.95 67.79 67.97 68.57 69.20 69.70 69.26 68.75 68.68 69.09 69.21 68.53 67.85 68.67 69.23 68.67 68.83 69.05 67.83 66.77 65.96 65.35 65.51 65.37 65.28 64.74
66.96 68.71 67.09 66.91 66.59 66.93 66.39 67.31 67.72 67.68 68.08 69.11 69.28 68.58 68.26 68.89 68.97 68.47 67.72 67.43 68.15 68.44 68.69 68.22 67.86 66.84 66.23 65.51 65.33 65.31 65.15 65.01
59.67 61.11 65.86 68.10 66.86 67.00 66.79 67.29 67.29 66.95 66.98 67.61 68.94 68.69 68.15 68.04 68.67 67.65 67.65 67.22 67.61 67.68 68.03 67.72 67.45 66.93 66.09 65.58 65.45 65.61 65.25 64.86
56.58 56.42 56.62 57.67 59.25 60.55 61.46 65.42 67.13 66.97 67.40 68.06 67.81 68.42 67.90 67.20 67.59 67.63 67.81 67.72 67.09 67.31 67.06 67.18 66.82 66.41 65.44 65.31 65.58 65.47 65.09 64.48
53.12 54.70 53.38 53.16 54.10 55.62 57.31 57.77 58.83 61.54 63.96 65.21 66.35 67.79 68.31 66.73 66.19 66.60 67.50 65.98 66.50 66.61 67.00 66.68 66.21 65.51 65.17 64.63 65.04 65.11 64.80 64.55
49.75 50.30 50.09 50.30 50.43 51.66 52.66 53.38 54.18 56.44 58.07 61.01 61.92 63.43 64.41 63.74 62.97 66.04 65.38 65.60 65.84 66.03 66.05 66.17 65.51 65.13 64.79 64.93 64.22 64.39 64.71 64.97
48.32 47.80 47.70 48.01 48.15 48.35 49.68 48.64 49.80 52.64 54.75 55.07 57.69 57.95 59.75 62.71 61.80 61.31 62.66 64.56 64.24 64.80 65.26 65.49 65.16 64.87 64.15 63.67 63.32 64.24 64.36 64.47
45.74 44.97 44.92 45.55 45.34 44.94 46.32 44.50 46.60 48.05 51.26 51.03 53.95 52.16 53.59 55.37 58.85 59.92 63.03 62.76 62.40 64.78 65.05 64.22 63.72 62.47 61.09 60.52 60.52 61.18 62.56 63.73
43.20 43.15 42.57 42.96 43.54 43.37 43.73 43.68 46.27 46.49 46.43 46.91 49.23 48.56 51.14 51.97 53.61 56.67 59.19 59.94 63.30 63.41 64.51 63.52 62.70 62.57 60.75 58.69 57.90 59.39 60.50 61.42
40.80 40.25 40.26 40.58 40.97 41.39 41.50 42.63 42.85 43.36 41.92 42.74 44.42 45.83 47.44 48.48 50.60 52.35 53.41 56.54 57.87 60.01 63.43 62.47 61.38 62.16 63.15 59.73 54.95 55.11 56.52 59.07
38.49 39.27 38.69 39.08 39.06 38.34 37.74 37.70 37.03 39.27 39.65 41.21 41.60 43.29 44.96 47.12 48.65 49.37 50.72 52.45 54.35 56.88 61.00 62.60 61.23 58.60 62.07 62.06 60.98 57.86 54.65 53.31
36.70 36.98 36.77 37.04 36.45 36.02 35.61 35.22 36.59 37.65 38.24 38.34 39.57 41.67 42.82 43.82 45.85 46.45 47.64 49.60 51.57 53.95 55.98 59.63 62.99 60.87 60.67 59.51 59.57 59.14 58.07 54.65
36.29 35.47 34.98 34.94 34.29 33.95 33.38 33.08 33.25 34.11 35.16 36.49 38.40 39.98 41.17 41.98 43.17 43.54 44.32 45.83 47.32 50.17 53.26 55.34 60.86 62.74 61.03 60.06 58.39 57.15 56.47 55.58
35.00 34.21 33.40 33.51 33.15 33.01 32.96 32.54 32.81 33.51 34.74 35.70 36.27 38.28 39.82 40.44 41.15 41.46 42.39 43.78 45.03 46.09 47.43 49.40 51.94 60.26 60.76 59.19 59.16 59.01 58.45 58.03
32.68 32.34 32.67 33.11 33.27 33.17 33.87 34.31 34.14 35.08 35.84 35.52 36.27 37.79 39.09 40.51 41.28 42.47 43.68 44.79 45.60 45.67 45.94 47.58 50.74 53.23 60.95 60.15 59.98 59.91 60.13 59.03

GFSFLT2_sfc_wetblb_129.txt.gz
Wetbulb
72.66 73.45 72.99 70.39 69.57 69.81 69.81 70.49 70.73 70.79 70.96 71.05 71.75 71.65 71.61 72.09 72.32 72.62 72.73 72.30 72.11 72.09 71.45 70.70 70.66 70.12 69.21 68.30 67.77 68.32 71.54 71.23
72.10 72.64 73.14 73.59 73.89 69.35 69.03 69.50 69.66 69.88 70.44 70.12 69.94 70.28 70.91 70.95 71.09 71.83 72.23 72.06 72.02 71.70 70.85 70.50 70.12 69.15 68.53 67.52 67.23 67.97 71.29 71.04
72.13 71.95 72.32 73.04 73.21 72.47 70.40 70.04 69.71 69.30 70.30 69.60 69.06 72.55 72.89 72.54 70.77 70.40 71.05 70.54 70.69 70.60 69.95 69.34 68.44 68.24 67.95 67.32 67.28 70.90 71.41 71.00
72.05 72.10 71.71 71.75 71.34 72.57 72.99 72.89 72.82 72.92 72.77 72.89 72.81 72.86 72.61 71.74 70.79 68.71 69.39 69.28 68.52 68.94 68.76 67.86 68.21 71.25 70.61 68.01 70.32 70.77 70.66 70.46
71.51 71.46 71.59 71.43 71.34 71.85 71.75 70.86 70.86 71.67 71.85 72.43 72.37 71.52 71.35 71.53 71.77 71.20 71.88 69.92 72.67 71.46 71.48 71.90 71.92 71.65 71.03 70.68 70.40 70.38 70.17 70.41
68.87 70.35 70.76 71.13 71.41 71.26 70.61 70.03 70.34 70.45 71.27 71.87 71.47 72.09 70.92 70.07 69.93 70.60 70.90 71.32 71.36 71.24 71.49 71.61 71.40 71.74 71.40 70.96 70.45 69.89 69.67 70.00
62.92 67.24 68.35 69.47 70.35 70.39 70.53 69.31 69.34 69.56 70.16 70.09 70.78 70.76 70.59 70.23 70.26 69.94 70.04 70.36 71.13 70.65 70.21 70.05 70.04 69.94 70.43 70.62 70.21 69.69 69.52 69.42
56.48 56.35 59.12 64.61 67.50 68.22 68.47 68.93 69.36 69.51 69.59 69.28 69.64 70.16 70.55 70.55 69.75 69.62 69.14 69.48 68.93 70.97 70.56 69.54 69.75 70.00 69.64 69.01 69.45 69.91 69.86 69.64
50.38 52.19 53.07 54.88 57.73 59.91 61.52 63.74 64.72 66.02 65.60 65.65 67.95 69.59 70.62 70.31 69.67 68.97 69.78 69.59 68.45 68.83 69.04 69.85 69.51 68.63 68.26 69.04 68.66 69.46 69.54 69.76
47.48 47.69 47.97 49.46 52.31 55.87 58.40 59.15 60.37 59.19 60.40 62.09 62.75 62.78 62.81 67.10 67.53 67.01 67.77 67.84 67.82 67.46 67.70 66.63 67.30 67.86 67.90 67.78 68.24 67.88 68.85 69.67
45.38 45.67 45.91 47.35 49.41 53.02 54.22 55.08 56.03 54.56 55.66 56.28 55.14 55.74 56.94 60.09 64.08 66.89 67.15 65.84 66.40 64.99 62.83 65.68 66.27 66.61 66.52 66.96 67.38 67.02 67.92 68.90
43.46 43.91 43.71 45.30 47.02 49.25 51.51 50.63 52.30 51.29 50.69 52.15 50.89 51.42 52.89 53.99 57.13 58.36 61.67 64.18 65.23 64.08 62.27 63.77 67.10 67.85 66.91 67.19 67.91 68.08 68.24 67.68
42.21 42.14 42.20 42.39 43.01 44.04 46.54 45.89 49.51 50.35 48.05 48.36 48.35 48.64 50.00 51.37 52.84 54.73 57.21 58.97 61.11 62.90 64.45 63.74 62.65 64.96 64.16 64.85 65.40 66.47 66.12 66.12
41.21 40.74 40.92 40.78 41.23 41.60 43.08 44.46 47.05 48.48 45.64 46.05 46.22 46.65 48.06 49.34 50.27 51.25 52.71 54.14 56.06 58.77 61.14 61.07 62.70 64.53 62.57 62.61 58.75 62.23 63.23 64.52
39.84 40.20 39.83 40.03 40.15 40.82 41.76 43.60 43.92 44.18 42.54 43.15 43.59 45.13 46.62 47.38 47.97 49.27 50.17 51.20 52.04 54.31 56.67 57.50 58.56 62.78 63.48 61.69 57.86 57.97 59.70 62.05
38.32 39.14 39.14 39.44 39.65 39.10 38.34 37.51 37.45 38.60 40.00 41.50 42.59 44.06 44.48 45.70 46.78 47.12 47.58 48.36 48.97 50.28 52.23 53.84 56.22 57.63 61.98 63.90 62.34 60.81 56.68 56.27
37.27 37.19 37.14 37.54 38.64 38.87 38.24 37.82 38.03 39.26 39.21 39.74 41.29 42.25 42.94 43.84 44.63 44.19 44.74 46.05 47.01 47.81 49.01 50.55 52.40 54.09 56.74 61.87 60.12 59.48 61.48 58.95
37.64 36.31 36.70 36.26 36.69 37.54 37.37 36.38 36.13 36.20 37.05 37.38 38.48 39.64 40.28 41.19 41.26 41.75 42.42 42.83 43.57 44.79 45.51 46.19 47.63 49.51 51.41 54.42 59.55 59.58 58.32 58.50
36.14 36.25 35.30 35.64 35.26 36.78 36.98 35.98 36.05 35.57 35.50 34.90 35.48 36.70 38.22 38.95 39.80 40.22 40.89 42.01 42.76 43.77 44.68 44.96 45.82 45.95 47.86 51.04 53.80 56.13 60.13 59.58
35.10 34.65 34.52 35.28 35.79 35.25 36.50 36.41 35.66 35.57 35.19 34.49 34.94 35.70 36.50 38.02 38.26 38.86 39.48 40.43 41.64 42.32 42.69 44.30 45.86 45.81 46.04 47.48 49.81 53.56 54.00 60.13

GFSFLT2_sfc_wetblb_132.txt.gz
Wetbulb
76.45 75.78 74.33 70.92 70.76 70.73 70.51 70.98 71.16 71.35 71.26 71.74 72.48 72.43 72.42 72.81 72.84 73.09 73.20 72.87 72.71 72.46 71.93 71.02 70.84 70.45 69.78 68.90 68.19 68.85 71.91 72.24
75.65 76.15 76.26 76.32 75.89 70.07 69.95 70.22 70.38 70.46 70.79 70.62 70.69 71.23 71.83 71.88 71.52 72.36 72.71 71.77 71.40 72.04 71.49 70.85 70.64 70.00 69.29 68.42 68.00 68.37 71.43 72.04
75.02 75.96 76.00 76.34 76.24 74.68 71.11 70.38 70.51 70.20 71.00 70.29 70.15 73.47 73.62 73.53 71.53 70.66 70.96 70.13 70.65 70.96 70.83 69.93 69.68 69.40 68.78 68.24 67.80 71.47 71.92 71.94
73.12 75.01 75.50 75.71 74.73 75.28 75.29 75.10 74.76 74.54 74.38 74.40 73.80 73.87 73.82 72.75 71.36 69.70 69.88 68.85 68.56 69.17 69.64 69.08 69.32 71.79 71.69 68.80 71.29 71.52 71.74 71.67
67.07 73.07 74.88 75.13 74.77 75.00 74.83 75.33 74.53 74.10 74.68 74.62 74.60 73.51 73.86 73.43 73.29 73.17 73.22 69.93 72.56 70.91 71.67 72.33 71.93 71.97 71.37 71.38 71.18 71.54 71.44 71.20
65.86 69.10 71.79 72.92 74.30 73.77 74.42 72.21 72.08 71.89 72.38 73.07 73.20 72.60 72.22 72.79 72.22 73.05 72.40 72.54 72.20 72.75 72.35 72.10 72.13 72.52 72.35 72.01 71.91 71.35 71.05 70.87
61.28 62.65 65.17 69.41 69.81 70.53 72.21 71.59 71.21 71.16 71.63 71.24 71.94 71.47 72.02 71.53 71.54 71.21 71.27 72.60 72.55 72.10 71.95 72.12 72.04 72.44 72.23 71.82 71.63 71.65 71.53 70.92
56.93 58.26 59.90 62.56 61.63 64.63 68.15 69.61 70.18 70.07 69.77 69.71 70.45 70.94 70.85 70.42 71.26 71.86 71.91 72.02 72.19 72.12 70.90 70.86 71.08 71.47 70.78 70.83 71.32 71.46 71.46 71.57
53.55 55.30 57.01 58.63 60.13 61.41 61.17 62.85 63.23 62.53 62.76 61.72 61.52 61.36 61.25 70.21 70.97 70.25 70.74 71.91 72.04 71.39 71.09 70.45 69.86 70.07 69.55 70.26 70.57 71.36 71.19 71.18
51.84 52.06 53.58 55.44 57.02 58.31 58.83 60.07 59.66 58.55 59.90 59.38 58.92 58.66 59.52 61.25 65.43 68.84 69.60 70.26 69.49 68.96 69.67 69.28 68.38 69.04 68.60 69.10 70.02 70.56 70.77 71.11
49.72 49.98 50.06 52.20 54.93 57.23 57.18 57.92 58.60 58.02 59.01 57.81 57.02 57.85 58.42 59.61 62.87 61.63 61.09 65.91 67.43 68.38 68.28 68.99 67.00 66.79 67.56 68.08 69.12 69.53 69.57 70.10
49.30 49.57 49.61 51.07 52.01 54.82 56.54 55.51 56.87 56.65 55.06 54.41 54.69 54.96 55.50 56.73 58.65 59.72 61.22 61.54 64.07 66.21 67.24 67.91 66.56 65.07 65.44 66.40 66.74 68.09 69.71 68.89
48.04 47.99 48.40 48.77 49.31 49.47 51.17 50.41 53.80 54.58 52.88 52.71 52.59 52.99 54.03 54.94 55.67 56.75 58.13 58.91 59.66 60.26 61.59 64.32 66.01 65.73 63.32 63.74 62.46 62.09 67.99 68.40
47.63 47.33 47.70 47.41 47.98 48.24 48.78 49.59 51.47 51.61 50.89 51.19 51.03 51.12 52.28 52.35 53.15 53.96 55.29 55.68 56.90 59.18 59.79 58.44 61.41 63.93 62.12 62.00 59.01 61.12 65.96 67.03
45.37 45.27 45.77 46.24 46.79 47.96 48.48 49.69 49.59 49.16 48.27 48.67 49.11 49.78 50.49 50.96 51.35 52.18 52.87 53.55 53.98 55.76 57.08 57.93 56.53 58.75 62.05 61.05 58.21 57.64 62.06 66.95
45.96 45.53 45.11 44.89 45.71 45.39 44.85 45.26 44.69 46.07 46.80 47.31 47.95 48.56 48.19 48.97 49.72 49.59 49.57 51.13 51.83 53.01 54.11 55.07 53.88 53.05 57.10 59.77 62.54 63.73 59.52 59.09
45.03 44.85 44.04 43.67 44.22 44.48 44.41 43.55 44.10 45.07 45.70 45.24 46.49 46.89 47.43 46.93 46.42 45.93 46.51 46.97 48.27 47.86 49.61 51.47 53.34 53.79 54.52 55.29 56.59 62.00 64.23 60.73
44.50 44.02 43.25 43.48 43.36 43.14 42.77 42.03 41.76 42.01 42.24 42.09 43.11 43.99 45.30 45.95 44.58 43.76 43.32 43.39 44.32 45.19 45.98 47.12 46.71 48.22 51.19 53.53 53.49 53.71 58.00 60.18
43.01 42.75 41.87 42.47 41.68 41.17 41.61 40.45 40.77 40.09 38.81 39.56 39.56 40.64 41.44 42.18 41.65 41.24 41.70 42.19 42.33 43.16 43.59 44.01 44.91 45.46 46.93 48.47 52.87 55.03 54.74 54.07
41.75 41.11 40.53 40.53 39.92 39.37 39.43 38.21 38.03 38.32 37.67 37.28 37.61 37.26 38.11 39.28 39.53 39.94 40.37 40.61 40.93 41.39 41.88 42.61 43.41 44.90 45.47 46.40 46.56 50.19 54.29 54.37

GFSFLT2_sfc_wetblb_135.txt.gz
Wetbulb
75.80 77.00 73.97 71.68 71.87 71.73 71.49 71.72 71.58 71.71 71.80 72.53 73.31 73.14 72.59 72.94 73.04 73.12 73.30 72.75 73.23 73.24 72.39 71.98 71.44 70.63 70.31 69.60 68.96 69.30 70.57 71.68
74.31 76.30 77.21 76.63 75.34 70.41 70.94 71.10 71.01 71.01 71.23 71.31 71.55 72.23 72.55 72.12 72.22 72.09 71.93 72.37 72.13 72.61 72.20 71.71 70.88 70.25 69.98 69.16 68.56 69.02 70.51 70.90
72.23 74.46 75.43 77.22 77.17 75.23 71.18 70.87 71.00 71.05 71.19 70.69 70.48 72.93 73.37 73.70 72.14 71.15 71.55 70.68 70.86 71.50 71.23 70.54 69.99 69.99 69.74 69.10 68.47 70.74 70.78 70.84
68.55 72.89 74.35 75.64 75.17 76.17 76.34 75.88 75.09 74.40 74.08 74.30 73.45 73.42 72.99 72.71 71.49 69.91 70.60 70.00 70.05 70.25 70.01 69.74 69.91 71.50 70.92 69.03 70.37 70.58 70.59 70.15
67.28 69.16 72.89 73.93 73.38 73.75 73.47 73.40 74.66 74.86 75.22 75.08 74.81 74.91 74.13 73.37 74.37 73.63 72.86 70.29 72.19 70.88 71.61 72.37 71.40 70.94 70.23 70.83 70.94 70.28 70.37 69.82
62.85 64.30 67.24 69.77 73.03 73.68 74.50 73.72 72.80 72.62 73.29 73.98 74.13 74.54 74.05 73.63 72.85 73.39 73.52 73.24 71.24 71.90 72.01 71.91 71.63 71.71 71.53 72.30 72.01 70.72 69.98 69.70
59.98 61.74 63.79 66.65 67.54 67.55 70.53 72.03 71.93 71.35 71.06 70.87 71.25 72.11 72.42 73.25 73.23 72.82 72.53 73.24 72.53 72.23 72.23 71.86 71.57 72.17 71.69 71.66 70.92 71.71 71.44 70.26
57.91 58.85 60.79 63.17 64.79 64.28 64.82 64.80 65.06 65.46 64.45 62.34 62.65 62.54 62.63 66.84 71.80 71.96 72.85 72.60 73.27 72.28 71.83 71.16 70.99 71.26 70.70 70.76 71.28 71.98 71.35 71.65
55.05 56.28 58.25 60.50 62.51 63.45 63.46 62.51 61.68 61.25 60.50 60.32 60.19 59.69 60.31 61.44 65.08 69.80 70.49 71.44 71.17 70.37 68.34 70.59 71.69 71.06 69.53 70.48 70.53 71.15 70.51 69.98
54.53 54.42 55.37 56.97 58.92 60.63 60.71 61.32 60.32 59.80 59.46 59.35 59.17 59.77 60.45 60.95 63.56 65.37 65.00 64.10 68.16 67.67 66.39 64.89 65.70 67.45 67.80 69.60 70.08 70.47 70.12 70.36
52.78 53.36 53.28 54.64 56.27 59.41 59.24 59.42 59.13 58.99 58.92 58.21 57.54 58.44 58.43 59.42 61.53 63.12 63.70 64.33 64.73 67.10 67.72 67.94 67.19 67.70 65.90 67.78 69.53 69.46 69.75 69.75
52.61 52.20 52.23 53.34 53.87 55.24 56.50 55.64 57.45 57.99 56.11 55.26 55.51 55.41 56.25 57.05 58.65 59.67 60.71 61.67 62.74 63.17 64.04 65.07 67.16 67.15 66.55 66.69 67.80 68.34 69.28 69.73
50.76 50.62 51.40 51.42 51.51 51.20 51.90 51.73 54.16 54.20 54.31 54.12 53.95 53.63 54.56 54.74 55.61 56.62 57.65 57.92 58.72 60.05 61.44 61.44 61.57 65.51 63.05 63.47 65.78 67.14 67.08 68.02
50.24 50.08 49.94 49.98 50.33 51.17 51.61 51.99 52.51 53.24 52.77 52.87 52.71 52.38 52.84 52.85 53.46 53.86 54.94 55.08 56.25 57.47 58.50 58.40 59.60 61.55 60.55 60.41 58.97 62.49 65.26 66.42
49.73 49.78 49.52 49.15 49.62 50.42 50.55 51.58 51.75 50.72 50.40 50.68 50.78 51.54 51.59 51.56 51.38 52.02 51.77 52.30 52.81 54.33 55.51 56.13 55.25 58.25 59.73 58.10 56.68 55.77 60.05 64.77
49.44 48.73 48.00 47.93 48.70 48.50 48.06 47.58 46.69 47.93 48.64 49.47 49.44 50.52 49.86 50.46 50.41 49.54 49.05 49.93 49.89 51.00 52.59 52.51 53.36 53.11 56.17 57.54 59.49 59.78 56.04 56.97
48.61 48.44 47.46 47.60 47.59 47.07 46.47 45.72 46.18 47.05 47.21 46.56 47.60 47.95 48.60 48.95 48.51 47.14 46.84 46.31 47.15 46.97 48.04 48.65 49.45 49.55 51.21 53.73 55.81 56.70 57.35 58.59
47.66 47.42 46.44 46.54 46.01 45.50 45.36 43.71 43.70 43.63 43.72 43.47 44.10 45.09 45.55 46.06 44.58 43.61 42.87 43.20 44.02 43.85 44.71 44.60 44.70 45.85 47.56 49.19 50.40 51.94 52.77 55.90
46.32 45.84 44.61 44.97 44.71 44.10 43.26 42.70 42.36 41.81 41.10 40.37 40.04 40.56 41.15 41.11 40.68 40.13 40.57 40.96 41.43 42.18 41.92 42.67 43.18 43.24 44.20 44.95 47.54 49.83 53.15 54.68
45.19 44.55 43.38 43.53 43.02 42.79 42.71 42.02 40.93 40.49 39.38 38.59 38.64 37.55 37.95 38.75 38.47 38.79 39.10 39.50 40.09 40.29 40.47 40.94 41.82 43.00 42.76 44.16 44.71 45.81 48.08 50.63

GFSFLT2_sfc_wetblb_138.txt.gz
Wetbulb
75.77 74.52 72.97 71.93 71.55 71.54 71.32 71.54 71.69 71.73 72.30 72.98 73.33 73.19 72.94 73.16 73.20 72.92 73.01 73.12 72.73 73.15 72.52 72.25 71.98 71.07 70.14 69.31 68.76 68.91 67.94 68.10
74.00 76.16 74.99 74.19 73.61 70.60 70.88 71.05 71.07 71.13 71.25 71.25 71.64 72.42 72.57 72.37 72.07 72.42 72.43 72.39 72.17 72.44 72.12 71.70 71.59 70.59 69.33 68.94 68.50 68.69 67.54 67.72
69.29 70.38 74.19 76.13 76.63 73.67 71.04 71.28 71.26 70.95 70.69 70.47 69.81 71.75 72.35 72.98 71.84 71.24 71.46 71.08 71.01 71.44 71.15 70.82 70.26 69.66 69.25 68.70 68.43 68.29 67.81 68.13
64.86 65.73 68.50 71.10 73.39 72.82 74.14 73.57 72.18 72.30 72.25 72.69 71.55 71.71 71.42 71.41 71.10 69.81 70.08 69.82 70.14 70.24 70.12 69.79 69.50 70.17 69.19 68.69 68.49 68.65 68.18 67.92
61.83 62.73 65.15 68.97 69.84 71.91 71.90 71.62 71.72 72.79 72.45 72.69 72.79 72.56 72.25 71.71 71.16 70.23 70.35 69.64 70.89 69.76 70.12 70.41 70.50 69.89 69.22 68.91 68.67 68.28 68.02 67.89
60.26 61.13 63.05 65.11 68.02 68.07 68.49 70.38 71.65 70.80 69.51 66.69 70.44 71.62 71.55 70.88 70.04 69.70 69.26 69.72 69.96 70.13 69.31 69.70 69.67 70.01 69.81 68.77 68.68 68.27 68.08 67.79
57.60 59.59 60.88 63.28 65.01 65.35 66.22 64.75 64.70 64.73 62.86 62.48 62.31 63.01 63.61 65.93 69.42 70.06 69.18 69.75 69.34 68.93 68.85 69.11 69.11 69.45 69.68 68.58 68.90 68.99 67.81 67.83
55.85 56.48 58.25 61.38 62.92 64.14 62.90 62.56 62.21 61.65 60.28 59.56 60.59 59.78 60.23 60.91 63.76 66.76 68.26 67.93 69.27 68.60 68.04 67.87 67.30 67.87 67.72 68.66 68.49 68.85 69.11 68.44
54.36 55.19 56.83 58.04 59.91 61.25 62.47 61.60 60.83 60.26 58.93 58.50 58.72 58.08 58.73 59.64 61.33 64.64 65.29 64.94 65.30 66.20 65.76 65.61 62.66 59.43 62.24 65.03 67.66 67.83 68.40 68.48
53.56 53.34 53.85 55.28 56.69 60.15 59.52 59.46 59.83 59.60 59.32 57.27 56.14 57.36 57.00 56.90 59.90 62.19 62.06 62.85 65.26 65.37 65.77 64.90 60.98 60.78 60.68 60.96 65.90 67.03 67.50 67.98
51.99 52.23 52.17 53.99 54.53 55.76 57.16 56.54 56.92 57.16 55.03 54.33 54.60 54.37 55.26 54.74 55.77 57.37 57.88 58.83 60.63 62.49 62.49 62.57 63.44 62.32 61.49 64.09 64.82 65.73 66.45 67.43
51.48 51.08 51.07 52.36 52.60 52.69 53.49 53.45 55.11 55.67 53.37 53.30 53.24 52.57 53.22 52.77 53.61 54.22 55.16 55.55 56.08 56.71 57.40 61.17 61.89 62.02 64.30 64.09 64.46 65.22 65.31 65.53
50.58 50.34 50.48 50.08 50.08 49.54 50.09 50.03 51.32 52.39 51.48 52.80 51.05 51.56 51.86 50.84 51.00 51.54 52.42 52.14 52.80 54.26 55.56 55.48 56.85 59.77 59.11 60.77 61.87 63.35 63.88 64.87
50.30 49.55 49.13 48.91 48.93 49.85 50.38 50.79 51.13 50.91 50.70 51.31 50.06 50.63 50.26 49.83 49.45 49.36 48.91 48.65 49.84 50.26 51.70 52.20 53.35 56.23 56.77 57.25 54.90 57.09 61.14 63.24
48.44 47.57 47.21 47.61 47.69 48.05 48.46 49.58 49.15 47.66 47.85 48.13 48.01 49.38 48.78 49.42 48.91 47.72 46.66 47.10 46.76 47.48 48.05 47.72 47.45 50.50 54.16 55.00 52.37 52.10 55.30 58.84
48.43 47.64 47.04 47.04 47.03 46.19 45.49 44.16 42.99 44.77 45.28 45.26 46.43 46.84 47.08 47.37 45.59 44.09 44.08 43.68 43.85 44.25 45.90 45.11 45.68 45.27 48.93 52.50 53.53 54.27 51.18 51.47
48.44 47.38 46.55 46.17 45.87 45.60 43.89 42.64 43.46 43.93 43.55 42.92 42.73 43.88 44.19 43.79 41.48 41.35 40.60 41.14 41.80 41.64 41.75 41.86 42.66 42.50 43.78 45.53 46.72 48.80 51.55 50.60
47.86 46.19 45.05 45.39 44.91 43.96 42.88 41.45 40.75 40.73 39.70 39.05 39.45 40.17 40.27 39.92 39.55 39.51 39.92 39.78 39.69 40.46 40.23 40.86 41.05 41.75 42.40 42.72 43.04 44.33 45.64 47.19
45.82 44.86 43.37 43.75 43.44 42.67 41.86 40.92 40.04 38.99 38.02 37.55 37.22 37.10 36.96 37.26 37.75 37.82 37.53 38.29 38.94 39.31 39.22 39.09 39.72 39.84 40.76 41.42 42.10 42.38 43.88 44.44
44.50 43.26 42.25 42.64 42.57 41.64 41.07 40.20 39.12 38.30 37.55 37.11 36.37 35.88 36.31 36.96 36.71 37.17 36.91 37.57 37.92 38.09 37.91 38.08 38.76 38.98 38.97 39.84 40.72 41.96 43.05 42.96

GFSFLT2_sfc_wetblb_141.txt.gz
Wetbulb
71.23 71.37 71.76 71.36 70.80 70.47 70.34 70.59 70.93 71.30 71.87 72.42 72.85 72.36 72.20 72.74 72.68 72.35 72.33 72.14 72.30 72.67 72.25 71.70 71.76 71.12 69.80 68.69 67.80 67.92 67.20 66.87
63.83 68.83 71.62 70.88 70.19 70.03 70.11 70.16 70.19 70.33 70.76 70.89 70.95 71.11 71.13 72.07 71.91 71.91 71.85 71.78 71.69 71.75 71.73 71.20 71.21 70.66 69.58 68.49 67.78 67.78 66.95 66.49
60.73 62.13 65.00 68.11 70.79 71.62 69.53 70.26 70.38 70.07 70.33 70.20 69.21 70.19 71.22 70.64 70.52 70.77 70.92 70.72 70.63 70.95 70.72 70.05 70.01 69.72 69.20 68.23 67.83 67.35 66.62 66.71
58.55 59.93 61.85 64.71 69.31 69.27 71.02 70.81 70.05 70.10 70.15 70.20 69.44 69.31 69.30 70.47 69.70 68.62 69.68 69.13 69.75 69.75 69.78 69.42 68.14 70.31 69.41 68.23 67.81 67.56 67.23 67.30
56.94 57.91 59.98 62.77 65.37 66.23 66.55 68.69 69.04 69.86 65.42 65.96 69.93 70.46 70.51 70.36 69.65 68.82 69.11 68.75 69.61 69.63 69.76 69.47 69.02 69.68 69.30 67.94 67.96 67.66 67.17 67.01
54.09 55.44 56.91 59.71 62.93 64.68 65.18 65.01 64.94 63.06 61.62 61.70 62.20 62.71 62.77 64.14 65.78 67.78 67.51 67.42 68.01 68.01 69.11 69.20 69.27 69.53 69.11 67.78 67.55 67.58 67.60 67.08
51.64 53.28 54.07 57.23 60.74 61.29 60.91 61.75 61.47 60.47 58.40 59.23 58.44 59.12 59.60 60.45 61.67 64.40 66.19 64.86 65.62 66.01 66.61 66.77 67.39 67.75 66.14 63.17 63.41 62.89 67.47 67.18
50.50 51.28 52.44 54.93 56.76 58.99 58.16 58.35 59.35 58.14 56.32 56.05 57.79 56.92 57.10 57.93 59.96 62.31 64.53 63.72 64.91 65.92 66.23 63.93 63.21 63.62 62.29 63.88 62.32 63.74 67.77 68.07
48.94 50.16 50.24 51.14 52.26 55.95 56.01 57.43 57.51 57.27 55.42 54.37 55.32 54.02 54.39 55.21 57.18 60.59 58.51 60.68 61.89 63.98 63.97 64.26 62.38 62.82 61.78 61.97 62.62 64.07 67.04 67.07
48.57 49.76 48.50 49.02 49.48 52.20 53.41 54.17 54.32 52.50 51.92 51.80 51.81 53.29 52.86 52.87 53.91 54.01 55.04 56.68 58.48 58.40 59.97 62.65 62.61 60.56 60.12 60.42 61.54 64.19 64.86 65.95
46.79 47.14 46.99 47.67 48.16 49.02 49.55 50.17 51.29 50.48 50.56 50.13 50.38 51.68 51.08 50.82 50.50 51.13 52.28 52.69 52.97 53.87 54.82 56.58 59.43 62.12 60.79 59.21 60.04 62.15 63.70 65.99
46.83 47.25 46.67 46.66 47.05 47.41 48.41 47.69 48.35 48.59 48.74 48.43 49.09 49.64 49.54 49.17 48.94 49.51 49.30 48.87 49.43 50.12 50.92 52.85 53.82 57.52 60.18 60.94 63.06 63.78 63.87 64.22
45.70 45.16 44.91 44.91 44.45 44.43 44.98 45.25 46.33 46.79 47.93 47.23 47.82 47.95 47.84 47.26 47.64 46.65 46.51 46.48 47.20 47.80 47.96 48.20 50.58 51.75 54.79 56.49 58.91 61.31 61.97 63.56
43.56 43.37 43.50 43.36 43.26 43.19 44.12 44.51 45.27 44.69 45.62 45.01 46.17 45.74 46.33 44.62 43.09 43.35 43.40 43.24 43.70 43.72 44.56 44.27 47.20 47.81 48.88 50.98 51.30 54.59 57.58 60.71
42.69 42.31 42.40 42.79 42.74 42.87 42.34 42.69 42.54 42.55 41.75 42.38 42.23 43.61 42.07 40.99 40.75 40.37 40.28 40.98 40.58 40.97 40.92 41.19 40.74 44.03 44.22 47.24 47.82 48.65 50.63 54.72
42.21 42.48 41.72 42.43 42.14 40.56 39.24 38.37 37.55 39.32 39.30 39.73 40.03 40.78 40.06 39.35 39.10 38.47 38.51 39.11 38.84 39.43 40.67 40.55 40.64 39.28 42.30 45.70 45.08 46.25 48.47 47.82
40.78 41.50 41.50 41.01 40.29 39.71 38.10 37.06 37.52 37.83 37.70 36.89 37.33 37.86 38.04 37.81 37.67 37.13 37.25 38.10 38.37 38.91 38.25 38.99 39.91 39.94 40.21 40.35 40.91 42.15 44.84 46.89
39.84 40.42 40.17 40.32 39.47 38.54 37.13 35.55 35.69 34.99 34.69 34.61 34.89 35.78 36.14 36.59 37.29 37.30 37.25 37.38 37.47 37.74 38.32 38.23 38.14 38.75 39.77 40.50 40.13 39.93 40.61 41.32
39.64 39.65 39.02 39.27 38.37 37.47 36.82 36.09 35.24 34.32 33.72 33.29 33.19 33.53 34.04 34.25 35.27 35.61 35.99 36.59 36.69 36.76 36.78 36.92 37.22 37.10 37.85 38.36 39.66 40.17 41.61 41.66
38.62 38.87 38.73 38.87 38.02 37.26 36.78 35.92 35.32 34.33 33.13 32.72 33.21 33.32 33.65 34.07 34.01 34.51 35.10 35.14 34.69 35.20 35.84 35.61 36.12 36.13 35.91 36.63 37.63 38.97 40.33 40.60